[[{"header":{"parameterUnit":"m.s-1","parameterCategory":1,"la1":30.6,"la2":29.2853,"lo1":-89.7004,"lo2":-87.6739,"dy":0.0162,"dx":0.0183,"nx":112,"ny":82,"refTime":"2026-04-13T00:00:00:Z","depth":0,"parameterNumber":2,"parameterNumberName":"U-component_of_WINDS"},"data":[0.0,0.0,0.0,0.0,0.0,0.0,0.0,0.0,0.0,0.0,0.0,0.0,0.0,0.0,0.0,0.0,0.0,0.0,0.0,0.0,0.0,0.0,0.0,0.0,0.0,0.0,0.0,0.0,0.0,0.0,0.0,0.0,0.0,0.0,0.0,0.0,0.0,0.0,0.0,0.0,0.0,0.0,0.0,0.0,0.0,0.0,0.0,0.0,0.0,0.0,0.0,0.0,0.0,0.0,0.0,0.0,0.0,0.0,0.0,0.0,0.0,0.0,0.0,0.0,0.0,0.0,0.0,0.0,0.0,0.0,0.0,0.0,0.0,0.0,0.0,0.0,0.0,0.0,0.0,0.0,0.0,0.0,0.0,0.0,0.0,0.0,0.0,0.0,0.0,0.0,-2.6801,-2.7348,-2.9435,-3.0528,-2.9846,-2.9553,-2.8028,-2.4797,0.0,0.0,0.0,0.0,0.0,0.0,0.0,0.0,0.0,0.0,0.0,0.0,0.0,0.0,0.0,0.0,0.0,0.0,0.0,0.0,0.0,0.0,0.0,0.0,0.0,0.0,0.0,0.0,0.0,0.0,0.0,0.0,0.0,0.0,0.0,0.0,0.0,0.0,0.0,0.0,0.0,0.0,0.0,0.0,0.0,0.0,0.0,0.0,0.0,0.0,0.0,0.0,0.0,0.0,0.0,0.0,0.0,0.0,0.0,0.0,0.0,0.0,0.0,0.0,0.0,0.0,0.0,0.0,0.0,0.0,0.0,0.0,0.0,0.0,0.0,0.0,0.0,0.0,0.0,0.0,0.0,0.0,0.0,0.0,0.0,0.0,0.0,0.0,0.0,0.0,0.0,0.0,0.0,0.0,0.0,0.0,0.0,0.0,0.0,0.0,0.0,0.0,0.0,0.0,-2.5921,-2.889,-3.0157,-3.0742,-3.0626,-2.9318,-2.7637,-2.562,0.0,0.0,0.0,0.0,0.0,0.0,0.0,0.0,0.0,0.0,0.0,0.0,0.0,0.0,0.0,0.0,0.0,0.0,0.0,0.0,0.0,0.0,0.0,0.0,0.0,0.0,0.0,0.0,0.0,0.0,0.0,0.0,0.0,0.0,0.0,0.0,0.0,0.0,0.0,0.0,0.0,0.0,0.0,0.0,0.0,0.0,0.0,0.0,0.0,0.0,0.0,0.0,0.0,0.0,0.0,0.0,0.0,0.0,0.0,0.0,0.0,0.0,0.0,0.0,0.0,0.0,0.0,0.0,0.0,0.0,0.0,0.0,0.0,0.0,0.0,0.0,0.0,0.0,0.0,0.0,0.0,0.0,0.0,0.0,0.0,0.0,0.0,0.0,0.0,0.0,0.0,0.0,0.0,0.0,0.0,0.0,0.0,0.0,0.0,0.0,0.0,0.0,0.0,-2.5629,-2.6956,-2.9923,-3.0587,-3.08,-3.08,-2.9708,-2.8067,-2.5836,-2.4879,0.0,0.0,0.0,0.0,0.0,0.0,0.0,0.0,0.0,0.0,0.0,0.0,0.0,0.0,0.0,0.0,0.0,0.0,0.0,0.0,0.0,0.0,0.0,0.0,0.0,0.0,0.0,0.0,0.0,0.0,0.0,0.0,0.0,0.0,0.0,0.0,0.0,0.0,0.0,0.0,0.0,0.0,0.0,0.0,0.0,0.0,0.0,0.0,0.0,0.0,0.0,0.0,0.0,0.0,0.0,0.0,0.0,0.0,0.0,0.0,0.0,0.0,0.0,0.0,0.0,0.0,0.0,0.0,0.0,0.0,0.0,0.0,0.0,0.0,0.0,0.0,0.0,0.0,0.0,0.0,0.0,0.0,0.0,0.0,0.0,0.0,0.0,0.0,0.0,0.0,0.0,0.0,0.0,0.0,0.0,0.0,0.0,0.0,0.0,0.0,0.0,0.0,-2.764,-2.8421,-3.0566,-3.08,-3.08,-3.08,-2.9689,-2.8048,-2.5838,-2.4491,0.0,0.0,0.0,0.0,0.0,0.0,0.0,0.0,0.0,0.0,0.0,0.0,0.0,0.0,0.0,0.0,0.0,0.0,0.0,0.0,0.0,0.0,0.0,0.0,0.0,0.0,0.0,0.0,0.0,0.0,0.0,0.0,0.0,0.0,0.0,0.0,0.0,0.0,0.0,0.0,0.0,0.0,0.0,0.0,0.0,0.0,0.0,0.0,0.0,0.0,0.0,0.0,0.0,0.0,0.0,0.0,0.0,0.0,0.0,0.0,0.0,0.0,0.0,0.0,0.0,0.0,0.0,0.0,0.0,0.0,0.0,0.0,0.0,0.0,0.0,0.0,0.0,0.0,0.0,0.0,0.0,0.0,0.0,0.0,0.0,0.0,0.0,0.0,0.0,0.0,0.0,0.0,0.0,0.0,0.0,0.0,0.0,0.0,0.0,0.0,0.0,0.0,-2.7953,-2.9768,-3.0703,-3.08,-3.08,-3.08,-2.8577,-2.6762,-2.5764,-2.3361,0.0,0.0,0.0,0.0,0.0,0.0,0.0,0.0,0.0,0.0,0.0,0.0,0.0,0.0,0.0,0.0,0.0,0.0,0.0,0.0,0.0,0.0,0.0,0.0,0.0,0.0,0.0,0.0,0.0,0.0,0.0,0.0,0.0,0.0,0.0,0.0,0.0,0.0,0.0,0.0,0.0,0.0,0.0,0.0,0.0,0.0,0.0,0.0,0.0,0.0,0.0,0.0,0.0,0.0,0.0,0.0,0.0,0.0,0.0,0.0,0.0,0.0,0.0,0.0,0.0,0.0,0.0,0.0,0.0,0.0,0.0,0.0,0.0,0.0,0.0,0.0,0.0,0.0,0.0,0.0,0.0,0.0,0.0,0.0,0.0,0.0,0.0,0.0,0.0,0.0,0.0,0.0,0.0,0.0,0.0,0.0,0.0,0.0,0.0,0.0,0.0,0.0,-2.7503,-2.9318,-3.0664,-3.08,-3.08,-3.08,-2.9455,-2.7797,-2.5824,0.0,0.0,0.0,0.0,0.0,0.0,0.0,0.0,0.0,0.0,0.0,0.0,0.0,0.0,0.0,0.0,0.0,0.0,0.0,0.0,0.0,0.0,0.0,0.0,0.0,0.0,0.0,0.0,0.0,0.0,0.0,0.0,0.0,0.0,0.0,0.0,0.0,0.0,0.0,0.0,0.0,0.0,0.0,0.0,0.0,0.0,0.0,0.0,0.0,0.0,0.0,0.0,0.0,0.0,0.0,0.0,0.0,0.0,0.0,0.0,0.0,0.0,0.0,0.0,0.0,0.0,0.0,0.0,0.0,0.0,0.0,0.0,0.0,0.0,0.0,0.0,0.0,0.0,0.0,0.0,0.0,0.0,0.0,0.0,0.0,0.0,0.0,0.0,0.0,0.0,0.0,0.0,0.0,0.0,0.0,0.0,0.0,0.0,0.0,0.0,0.0,0.0,-2.5551,-2.7698,-2.9532,-3.0683,-3.08,-3.0703,-3.0431,-2.9417,-2.7777,-2.5433,0.0,0.0,0.0,0.0,0.0,0.0,0.0,0.0,0.0,0.0,0.0,0.0,0.0,0.0,0.0,0.0,0.0,0.0,0.0,0.0,0.0,0.0,0.0,0.0,0.0,0.0,0.0,0.0,0.0,0.0,0.0,0.0,0.0,0.0,0.0,0.0,0.0,0.0,0.0,0.0,0.0,0.0,0.0,0.0,0.0,0.0,0.0,0.0,0.0,0.0,0.0,0.0,0.0,0.0,0.0,0.0,0.0,0.0,0.0,0.0,0.0,0.0,0.0,0.0,0.0,0.0,0.0,0.0,0.0,0.0,0.0,0.0,0.0,0.0,0.0,0.0,0.0,0.0,0.0,0.0,0.0,0.0,0.0,0.0,0.0,0.0,0.0,0.0,0.0,0.0,0.0,0.0,0.0,0.0,0.0,0.0,0.0,0.0,0.0,0.0,0.0,0.0,-2.5707,-2.8674,-3.0781,-3.08,-3.08,-3.047,-2.967,-2.8011,-2.6274,0.0,0.0,0.0,0.0,0.0,0.0,0.0,0.0,0.0,0.0,0.0,0.0,0.0,0.0,0.0,0.0,0.0,0.0,0.0,0.0,0.0,0.0,0.0,0.0,0.0,0.0,0.0,0.0,0.0,0.0,0.0,0.0,0.0,0.0,0.0,0.0,0.0,0.0,0.0,0.0,0.0,0.0,0.0,0.0,0.0,0.0,0.0,0.0,0.0,0.0,0.0,0.0,0.0,0.0,0.0,0.0,0.0,0.0,0.0,0.0,0.0,0.0,0.0,0.0,0.0,0.0,0.0,0.0,0.0,0.0,0.0,0.0,0.0,0.0,0.0,0.0,0.0,0.0,0.0,0.0,0.0,0.0,0.0,0.0,0.0,0.0,0.0,0.0,0.0,0.0,0.0,0.0,0.0,0.0,0.0,0.0,0.0,0.0,0.0,0.0,0.0,0.0,0.0,-2.6469,-2.8577,-3.0177,-3.0742,-3.08,-3.047,-2.967,-2.8577,-2.6917,-2.4553,0.0,0.0,0.0,0.0,0.0,0.0,0.0,0.0,0.0,0.0,0.0,0.0,0.0,0.0,0.0,0.0,0.0,0.0,0.0,0.0,0.0,0.0,0.0,0.0,0.0,0.0,0.0,0.0,0.0,0.0,0.0,0.0,0.0,0.0,0.0,0.0,0.0,0.0,0.0,0.0,0.0,0.0,0.0,0.0,0.0,0.0,0.0,0.0,0.0,0.0,0.0,0.0,0.0,0.0,0.0,0.0,0.0,0.0,0.0,0.0,0.0,0.0,0.0,0.0,0.0,0.0,0.0,0.0,0.0,0.0,0.0,0.0,0.0,0.0,0.0,0.0,0.0,0.0,0.0,0.0,0.0,0.0,0.0,0.0,0.0,0.0,0.0,0.0,0.0,0.0,0.0,0.0,0.0,0.0,0.0,0.0,0.0,0.0,0.0,0.0,0.0,0.0,-2.6784,-2.8756,-3.0219,-3.0705,-3.0764,-3.0302,-2.9181,-2.8596,-2.7033,-2.4066,0.0,0.0,0.0,0.0,0.0,0.0,0.0,0.0,0.0,0.0,0.0,0.0,0.0,0.0,0.0,0.0,0.0,0.0,0.0,0.0,0.0,0.0,0.0,0.0,0.0,0.0,0.0,0.0,0.0,0.0,0.0,0.0,0.0,0.0,0.0,0.0,0.0,0.0,0.0,0.0,0.0,0.0,0.0,0.0,0.0,0.0,0.0,0.0,0.0,0.0,0.0,0.0,0.0,0.0,0.0,0.0,0.0,0.0,0.0,0.0,0.0,0.0,0.0,0.0,0.0,0.0,0.0,0.0,0.0,0.0,0.0,0.0,0.0,0.0,0.0,0.0,0.0,0.0,0.0,0.0,0.0,0.0,0.0,0.0,0.0,0.0,0.0,0.0,0.0,0.0,0.0,0.0,0.0,0.0,0.0,0.0,0.0,0.0,0.0,0.0,0.0,0.0,-2.6885,-2.9024,-3.0526,-3.0662,-3.0626,-2.9959,-2.841,-2.8218,-2.6715,-2.33,0.0,0.0,0.0,0.0,0.0,0.0,0.0,0.0,0.0,0.0,0.0,0.0,0.0,0.0,0.0,0.0,0.0,0.0,0.0,0.0,0.0,0.0,0.0,0.0,0.0,0.0,0.0,0.0,0.0,0.0,0.0,0.0,0.0,0.0,0.0,0.0,0.0,0.0,0.0,0.0,0.0,0.0,0.0,0.0,0.0,0.0,0.0,0.0,0.0,0.0,0.0,0.0,0.0,0.0,0.0,0.0,0.0,0.0,0.0,0.0,-2.9643,-2.876,0.0,0.0,0.0,0.0,0.0,0.0,0.0,0.0,0.0,0.0,0.0,0.0,0.0,0.0,0.0,0.0,0.0,0.0,0.0,0.0,0.0,0.0,0.0,0.0,0.0,0.0,0.0,0.0,0.0,0.0,0.0,0.0,0.0,0.0,0.0,0.0,0.0,0.0,0.0,0.0,-2.7543,-2.8346,-2.9159,-3.0481,-3.0059,-2.9265,-2.8221,-2.7509,-2.5955,-2.3188,-2.1576,0.0,0.0,0.0,0.0,0.0,0.0,0.0,0.0,0.0,0.0,0.0,0.0,0.0,0.0,0.0,0.0,0.0,0.0,0.0,0.0,0.0,0.0,0.0,0.0,0.0,0.0,0.0,0.0,0.0,0.0,0.0,0.0,0.0,0.0,0.0,0.0,0.0,0.0,0.0,0.0,0.0,0.0,0.0,0.0,0.0,0.0,0.0,0.0,0.0,0.0,0.0,0.0,0.0,0.0,0.0,0.0,0.0,0.0,0.0,-3.1735,-3.0776,0.0,0.0,0.0,0.0,0.0,0.0,0.0,0.0,0.0,0.0,0.0,0.0,0.0,0.0,0.0,0.0,0.0,0.0,0.0,0.0,0.0,0.0,0.0,0.0,0.0,0.0,0.0,0.0,0.0,0.0,0.0,0.0,0.0,0.0,0.0,0.0,0.0,0.0,0.0,0.0,-2.7155,-2.8151,-2.9117,-3.042,-2.9804,-2.8981,-2.8178,-2.7297,-2.5707,-2.3156,-2.1753,0.0,0.0,0.0,0.0,0.0,0.0,0.0,0.0,0.0,0.0,0.0,0.0,0.0,0.0,0.0,0.0,0.0,0.0,0.0,0.0,0.0,0.0,0.0,0.0,0.0,0.0,0.0,0.0,0.0,0.0,0.0,0.0,0.0,0.0,0.0,0.0,0.0,0.0,0.0,0.0,0.0,0.0,0.0,0.0,0.0,0.0,0.0,0.0,0.0,0.0,0.0,0.0,0.0,-3.5192,-3.6052,-3.6892,-3.6756,-3.6678,-3.6542,-3.4236,-3.3377,-3.3514,-3.2123,0.0,0.0,0.0,0.0,0.0,0.0,0.0,0.0,0.0,0.0,0.0,0.0,0.0,0.0,0.0,0.0,0.0,0.0,0.0,0.0,0.0,0.0,-2.6304,-2.6176,-2.6698,-2.638,-2.3416,0.0,0.0,0.0,0.0,0.0,0.0,0.0,0.0,0.0,0.0,0.0,-2.6675,-2.7989,-2.9124,-3.0144,-2.9356,-2.8494,-2.7884,-2.7048,-2.5518,-2.3126,-2.2147,-2.0959,0.0,0.0,0.0,0.0,0.0,0.0,0.0,0.0,0.0,0.0,0.0,0.0,0.0,0.0,0.0,0.0,0.0,0.0,0.0,0.0,0.0,0.0,0.0,0.0,0.0,0.0,0.0,0.0,0.0,0.0,0.0,0.0,-2.6,-2.7756,0.0,0.0,0.0,0.0,0.0,0.0,0.0,0.0,0.0,0.0,0.0,0.0,0.0,-3.3434,-3.4196,-3.5816,-3.7048,-3.7928,-3.8807,-3.9667,-4.0488,-3.9726,-3.9394,-3.9316,-3.8223,0.0,-3.451,-3.4295,0.0,0.0,0.0,0.0,0.0,0.0,0.0,0.0,0.0,0.0,0.0,0.0,0.0,0.0,0.0,0.0,0.0,0.0,0.0,0.0,0.0,0.0,-2.8756,-2.8114,-2.7963,-2.7646,-2.6486,-2.5361,-2.4411,-2.3918,-2.2824,-2.1877,0.0,0.0,0.0,0.0,0.0,0.0,-2.7417,-2.7311,-2.7545,-2.911,-2.7878,-2.6896,-2.6815,-2.6006,-2.4734,-2.2947,-2.2018,-2.1109,-2.0184,-1.8586,0.0,0.0,0.0,0.0,0.0,0.0,0.0,0.0,0.0,0.0,0.0,0.0,0.0,0.0,0.0,0.0,0.0,0.0,0.0,0.0,0.0,0.0,0.0,0.0,0.0,0.0,0.0,0.0,0.0,-2.553,-2.7444,-2.8205,-2.8402,-2.8265,0.0,0.0,0.0,0.0,0.0,0.0,0.0,0.0,0.0,-3.4237,-3.5135,-3.6249,-3.7617,-3.8866,-3.9902,-4.0742,-4.1621,-4.2246,-4.2598,-4.2207,-4.2031,-4.1992,-4.1113,-3.9824,-3.8203,-3.6249,-3.4471,-3.2907,0.0,0.0,0.0,0.0,-3.0678,-3.1088,-3.1695,-3.189,-3.1656,-3.0231,0.0,0.0,0.0,0.0,0.0,0.0,0.0,-2.7612,-2.8207,-2.8868,-2.9447,-2.9602,-2.9608,-2.9311,-2.8435,-2.7673,-2.6588,-2.462,-2.4443,-2.3991,-2.2039,-2.1759,0.0,0.0,0.0,-2.4274,-2.6222,-2.6549,-2.7063,-2.8299,-2.7332,-2.6601,-2.6601,-2.5808,-2.4788,-2.3605,-2.272,-2.185,-2.1,-1.9812,-1.9104,0.0,0.0,0.0,0.0,0.0,0.0,0.0,0.0,0.0,0.0,0.0,0.0,0.0,0.0,0.0,0.0,0.0,0.0,0.0,0.0,0.0,0.0,0.0,0.0,0.0,0.0,0.0,0.0,-2.6975,-2.8635,-2.8635,-2.9574,-2.9806,0.0,0.0,0.0,0.0,0.0,0.0,-3.3283,-3.4226,-3.5501,-3.7242,-3.8143,-3.9335,-4.0859,-4.1523,-4.2246,-4.3066,-4.3711,-4.4141,-4.4355,-4.4121,-4.4023,-4.3984,-4.3105,-4.2266,-4.1269,-3.8242,-3.6347,-3.5234,-3.3943,-3.2927,-3.2282,-3.2888,-3.3239,-3.3571,-3.4665,-3.5014,-3.4699,-3.2805,-3.2281,-3.1878,-2.9065,0.0,0.0,0.0,0.0,-2.8744,-2.9788,-3.0046,-3.014,-3.0587,-3.0678,-3.0471,-2.9765,-2.9586,-2.864,-2.545,-2.5716,-2.5564,-2.2788,-2.2626,0.0,-2.2303,-2.3298,-2.4471,-2.55,-2.6,-2.6601,-2.7467,-2.6794,-2.6269,-2.6269,-2.5673,-2.4865,-2.3836,-2.3163,-2.2312,-2.1235,-2.0615,-1.9985,-1.9354,0.0,0.0,0.0,0.0,0.0,0.0,0.0,0.0,0.0,0.0,0.0,0.0,0.0,0.0,0.0,0.0,0.0,0.0,0.0,0.0,0.0,0.0,0.0,0.0,0.0,0.0,0.0,0.0,0.0,-2.9534,-3.0984,0.0,0.0,0.0,0.0,-3.2892,-3.3022,-3.4144,-3.6716,-3.7734,-3.9032,-4.0798,-4.1696,-4.2578,-4.3496,-4.3555,-4.4004,-4.4863,-4.4902,-4.5371,-4.6133,-4.5312,-4.4922,-4.4883,-4.4004,-4.3144,-4.2207,-4.043,-3.8691,-3.7167,-3.7069,-3.6502,-3.5759,-3.5799,-3.6327,-3.6932,-3.6191,-3.5894,-3.5818,-3.5681,-3.4558,-3.3059,-3.206,-3.1731,0.0,0.0,-3.2282,-3.2722,-3.2046,-3.1778,-3.1514,-3.0856,-3.0611,-3.0501,-3.0451,-3.0389,-2.9602,-2.7076,-2.5975,-2.5143,-2.4156,0.0,-2.3071,-2.3864,-2.4052,-2.4683,-2.6313,-2.5846,-2.5692,-2.6563,-2.5885,-2.5365,-2.5365,-2.5327,-2.4596,-2.297,-2.2816,-2.2062,-2.0423,-2.0327,-2.0288,-2.0231,-1.9373,0.0,0.0,0.0,0.0,0.0,0.0,0.0,0.0,0.0,0.0,0.0,0.0,0.0,0.0,0.0,0.0,0.0,0.0,0.0,0.0,0.0,0.0,0.0,0.0,0.0,0.0,0.0,0.0,-3.2742,-3.4304,0.0,-3.3667,-3.3835,-3.448,-3.5626,-3.568,-3.6793,-3.9415,-3.9818,-4.077,-4.2523,-4.2886,-4.3502,-4.4453,-4.4429,-4.4888,-4.5839,-4.5839,-4.5995,-4.6288,-4.5976,-4.584,-4.578,-4.4922,-4.4043,-4.3144,-4.1992,-4.0508,-3.8925,-3.8359,-3.7949,-3.7675,-3.7675,-3.7871,-3.8085,-3.7728,-3.7231,-3.6533,-3.5382,-3.4205,-3.3168,-3.2822,-3.2699,-3.2714,-3.2704,-3.2918,-3.3064,-3.277,-3.2261,-3.1729,-3.1462,-3.0917,-3.0433,-3.0444,-3.0425,-2.9973,-2.8534,-2.7986,-2.7166,-2.5202,-2.5082,-2.4986,-2.4225,-2.4548,-2.5101,-2.5692,-2.55,-2.5423,-2.5731,-2.55,-2.5308,-2.5308,-2.5308,-2.4827,-2.3701,-2.3105,-2.2274,-2.1115,-2.0577,-2.0308,-2.0308,-1.9442,-1.8561,0.0,0.0,0.0,0.0,0.0,0.0,0.0,0.0,0.0,0.0,0.0,0.0,0.0,0.0,0.0,0.0,0.0,0.0,0.0,0.0,0.0,0.0,0.0,0.0,0.0,-3.1779,-3.394,-3.4503,-3.6307,-3.7043,-3.5885,-3.6277,-3.7093,-3.8251,-3.8267,-3.9233,-4.1539,-4.1937,-4.2611,-4.379,-4.4156,-4.4653,-4.5363,-4.5336,-4.5643,-4.6305,-4.6305,-4.6305,-4.6306,-4.6308,-4.6308,-4.6268,-4.5683,-4.4785,-4.3652,-4.3086,-4.1855,-4.0273,-3.9707,-3.9473,-3.9473,-3.9473,-3.9452,-3.9389,-3.8998,-3.8117,-3.6935,-3.5706,-3.4738,-3.4041,-3.3998,-3.3977,-3.3977,-3.3977,-3.3977,-3.39,-3.361,-3.2879,-3.2162,-3.186,-3.1075,-3.0406,-3.039,-3.0404,-3.0231,-2.964,-2.93,-2.8472,-2.6505,-2.6409,-2.6313,-2.5491,-2.5332,-2.5404,-2.5692,-2.5481,-2.5308,-2.5308,-2.5308,-2.5308,-2.5308,-2.5308,-2.4827,-2.3721,-2.3124,-2.2293,-2.1135,-2.0577,-2.0308,-2.0308,-1.9727,-1.9,-1.8145,0.0,0.0,0.0,0.0,0.0,0.0,0.0,0.0,0.0,0.0,0.0,0.0,0.0,0.0,0.0,0.0,0.0,0.0,0.0,0.0,0.0,0.0,0.0,-3.0698,-3.3034,-3.4678,-3.4653,-3.6849,-3.7719,-3.6013,-3.7346,-3.9024,-4.0719,-4.0738,-4.1424,-4.3139,-4.4099,-4.4633,-4.4727,-4.5602,-4.6147,-4.63,-4.63,-4.6281,-4.6301,-4.6301,-4.6301,-4.6302,-4.6306,-4.6307,-4.6307,-4.6308,-4.5332,-4.373,-4.3711,-4.2734,-4.123,-4.1211,-4.1191,-4.1191,-4.1191,-4.1147,-4.0959,-3.9945,-3.8479,-3.7059,-3.6936,-3.6361,-3.5723,-3.5704,-3.5704,-3.5704,-3.5704,-3.5704,-3.551,-3.4665,-3.3793,-3.2916,-3.2034,-3.1113,-3.0425,-3.041,-3.0404,-3.0404,-3.0404,-2.9717,-2.8876,-2.8088,-2.7236,-2.6967,-2.778,-2.6447,0.0,-2.6486,-2.5846,-2.5308,-2.5346,-2.5346,-2.5346,-2.5346,-2.5346,-2.4615,-2.2913,-2.2797,-2.2043,-2.0365,-2.0308,-2.0308,-2.0346,-2.0288,-1.985,-1.903,0.0,0.0,0.0,0.0,0.0,0.0,0.0,0.0,0.0,0.0,0.0,0.0,0.0,0.0,0.0,0.0,0.0,0.0,0.0,0.0,0.0,-3.072,-3.3118,-3.3351,-3.5047,-3.6721,-3.7975,-3.9215,-3.9772,-3.9296,-4.023,-4.1073,-4.1561,-4.209,-4.2896,-4.4002,-4.4261,-4.4693,-4.5404,-4.5631,-4.5846,-4.6084,-4.6029,-4.6111,-4.6301,-4.6301,-4.6303,-4.6306,-4.6306,-4.6306,-4.6304,-4.6307,-4.5663,-4.4589,-4.3965,-4.3066,-4.2012,-4.1426,-4.117,-4.112,-4.112,-4.1042,-4.0821,-3.992,-3.9253,-3.8593,-3.732,-3.6748,-3.6458,-3.5878,-3.5704,-3.5704,-3.5704,-3.5704,-3.5626,-3.5334,-3.4629,-3.3751,-3.2887,-3.1985,-3.1166,-3.0538,-3.0404,-3.0404,-3.0404,-3.0212,-2.9775,-2.8915,-2.8569,-2.8299,-2.7953,-2.6948,-2.6327,-2.6563,-2.5846,-2.5538,-2.6173,-2.6231,-2.6231,-2.6231,-2.6231,-2.5255,-2.2951,-2.2797,-2.2043,-2.0365,-2.0308,-2.0577,-2.1154,-1.9988,-1.9546,0.0,0.0,0.0,0.0,0.0,0.0,0.0,0.0,0.0,0.0,0.0,0.0,0.0,0.0,0.0,0.0,0.0,0.0,0.0,0.0,0.0,0.0,-3.3061,-3.5267,-3.6303,-3.734,-3.8475,-3.9805,-4.0331,-4.0747,-4.1109,-4.1574,-4.2163,-4.2888,-4.335,-4.4001,-4.4895,-4.488,-4.5117,-4.5715,-4.57,-4.5796,-4.6037,-4.6009,-4.6079,-4.6301,-4.6301,-4.6303,-4.6305,-4.6306,-4.6306,-4.6305,-4.6307,-4.582,-4.4921,-4.4062,-4.3183,-4.2324,0.0,0.0,0.0,0.0,-4.1003,-4.0859,-4.0296,-3.983,-3.9327,-3.8321,-3.7735,-3.7367,-3.6884,-3.6497,-3.6207,-3.6207,-3.5955,-3.5679,-3.5612,-3.4946,-3.4164,-3.3627,-3.2569,-3.1564,-3.1058,-3.0654,-3.0404,-3.0404,-3.0404,0.0,-2.9737,-2.9338,-2.8934,-2.8472,-2.7371,-2.6601,-2.6601,-2.5846,-2.55,-2.6,-2.6058,-2.6058,-2.6058,-2.6058,0.0,0.0,0.0,-2.2586,-2.0865,-2.0481,0.0,0.0,0.0,0.0,0.0,0.0,0.0,0.0,-1.9042,-1.8927,0.0,0.0,0.0,0.0,0.0,0.0,0.0,0.0,0.0,0.0,0.0,0.0,0.0,0.0,0.0,0.0,-3.5272,-3.6781,-3.8991,-3.9476,-3.987,-4.0518,-4.0677,-4.1038,-4.182,-4.2009,-4.2725,-4.4261,-4.4416,-4.4823,-4.5635,-4.5631,0.0,0.0,0.0,-4.5865,-4.6059,-4.6063,-4.6147,-4.6279,-4.6299,-4.6281,-4.6303,-4.6306,-4.6307,-4.6307,-4.6308,-4.5859,-4.5078,-4.4101,-4.3125,-4.2187,-4.1465,-4.1171,-4.1168,-4.1044,-4.0974,-4.0968,-4.0834,0.0,0.0,-3.952,-3.8972,-3.8328,-3.8232,-3.7651,-3.7038,-3.6922,-3.64,-3.5789,-3.5645,-3.5017,-3.4409,-3.4237,-3.307,-3.1929,-3.1737,-3.1096,-3.0519,-3.0423,-3.0404,-3.0404,-3.0404,-2.9756,-2.9204,-2.9107,-2.7755,-2.6717,-2.6621,-2.5846,-2.5346,-2.5442,-2.5538,0.0,-2.5442,-2.5538,-2.5178,-2.4168,-2.3981,-2.3241,-2.1699,-2.0913,-2.0913,-2.1733,-2.242,-2.2809,-2.2951,-2.3615,-2.3538,-2.2759,-2.0481,-1.9846,0.0,0.0,0.0,0.0,0.0,0.0,0.0,0.0,0.0,0.0,0.0,0.0,0.0,0.0,0.0,-3.4166,-3.671,-3.8748,-3.9227,-3.9872,-4.0361,-4.0512,-4.1131,-4.1631,-4.1793,-4.3036,-4.3959,-4.4284,-4.4968,-4.5421,-4.5603,-4.5614,-4.5612,-4.5646,-4.5646,-4.5712,-4.5854,-4.5865,-4.5954,-4.6145,-4.6193,0.0,-4.6308,-4.6307,-4.6307,-4.6307,-4.6307,-4.619,-4.5936,-4.4355,-4.2771,-4.1332,-4.1176,-4.1081,-4.1039,-4.0953,-4.0883,-4.0823,-4.0815,-4.07,-4.0429,-3.9733,-3.9385,-3.9114,-3.8411,-3.8077,0.0,-3.7096,-3.6789,-3.6495,-3.5789,-3.5425,-3.5085,-3.4379,-3.3955,-3.3353,-3.1987,-3.1564,-3.1231,-3.0538,-3.0404,-3.0404,-3.0404,-3.0269,-2.991,-2.9204,-2.828,-2.739,-2.6697,-2.5846,-2.5577,-2.6269,-2.6986,-2.7101,-2.6409,-2.6986,-2.6452,-2.4245,-2.3347,-2.2736,-2.2406,-2.2127,-2.2412,-2.3348,-2.2785,-2.2931,-2.386,-2.3208,-2.2863,-2.2797,-2.2293,-2.2158,0.0,0.0,0.0,0.0,0.0,0.0,0.0,0.0,0.0,0.0,0.0,-2.9593,-3.0868,0.0,-3.5277,-3.6601,-3.8217,-3.9438,-3.9842,-4.0246,-4.0496,-4.0496,-4.1277,-4.1962,-4.2412,-4.3566,-4.447,-4.4921,-4.5344,-4.5594,-4.5594,-4.5594,-4.5594,-4.5594,-4.5594,-4.5648,-4.5789,-4.579,-4.5905,-4.6108,-4.6136,-4.6206,-4.6308,-4.6307,-4.6307,-4.6308,-4.6263,-4.6006,-4.5459,-4.3672,-4.2444,-4.1603,-4.1213,-4.1039,-4.0984,-4.0924,-4.0873,-4.0859,-4.0815,-4.0797,-4.0739,-4.0294,-4.0158,-4.0062,-3.963,-3.9204,-3.876,-3.8272,-3.7544,-3.6786,-3.6312,-3.5843,-3.5387,-3.4956,-3.4526,-3.3859,-3.2583,-3.1987,-3.1448,-3.0577,-3.0404,-3.0404,-3.0404,-3.0404,-3.0096,-2.9223,-2.8415,-2.7582,-2.6717,-2.5846,-2.5462,-2.5904,-2.6639,-2.6912,-2.6485,-2.6796,-2.6453,-2.5187,-2.3844,-2.3099,-2.3099,-2.2659,-2.2615,-2.3093,-2.3026,-2.3271,-2.3856,-2.3787,-2.3822,-2.3946,-2.3946,-2.3535,0.0,0.0,0.0,0.0,0.0,0.0,0.0,-2.6252,-2.7179,-2.8792,-3.0379,-3.2138,-3.4295,-3.5545,-3.6911,-3.8977,-3.9438,-3.9765,-4.0419,-4.0496,-4.0496,-4.0496,-4.1412,-4.2335,-4.3028,-4.397,-4.4836,-4.5556,-4.5594,-4.5594,-4.5594,-4.5594,-4.5594,-4.5594,-4.5594,-4.564,-4.5768,-4.5775,-4.5875,-4.6047,-4.6031,-4.6111,-4.6217,-4.6217,-4.622,-4.6244,-4.6204,-4.5588,-4.4514,-4.3047,-4.2253,-4.1886,-4.1224,-4.0963,-4.0964,-4.093,-4.0893,-4.0863,-4.0814,-4.0797,-4.0797,-4.0797,-4.07,-4.0545,-4.0545,-4.0062,-3.9456,-3.9226,-3.8183,-3.7083,-3.6864,-3.6151,-3.5509,-3.5507,-3.4968,-3.4199,-3.3333,-3.2506,-3.1679,-3.0827,-3.0519,-3.0404,-3.0404,-3.0404,-3.0096,-2.9223,-2.8415,-2.7582,-2.6717,-2.5846,-2.5308,-2.5308,-2.606,-2.6619,-2.674,-2.6479,-2.6332,-2.6332,-2.5036,-2.4277,-2.4277,-2.3632,-2.3279,-2.3306,-2.3771,-2.4025,-2.4098,-2.4766,-2.5163,-2.5297,-2.5443,-2.4717,-2.7307,-2.5559,-2.4992,-2.7217,-2.7188,-2.7365,0.0,-3.1023,-3.1558,-3.3159,-3.427,-3.5244,-3.6238,-3.7777,-3.8977,-3.9246,-3.99,-4.04,-4.0496,-4.0496,-4.0496,-4.0496,-4.195,-4.2989,-4.3085,-4.4528,-4.5498,-4.5594,-4.5594,-4.5594,-4.5594,-4.5594,-4.5594,-4.5594,-4.5594,-4.5603,-4.561,-4.5671,-4.5749,-4.5834,-4.5819,-4.5876,-4.5932,-4.5932,-4.5983,-4.6043,-4.6089,-4.5176,-4.364,-4.3436,-4.2439,-4.1042,-4.0945,-4.0868,-4.0831,-4.0878,-4.0867,-4.0815,-4.0803,-4.0797,-4.0797,-4.0797,-4.0274,-3.9655,-3.9655,-3.9578,-3.934,-3.8549,-3.8151,-3.7791,-3.6992,-3.615,-3.5507,-3.55,-3.5423,-3.5115,-3.4237,-3.3372,-3.2526,-3.1718,-3.0923,-3.0404,-3.0404,-3.0404,-3.0096,-2.9223,-2.8415,-2.7582,-2.6717,-2.5846,-2.5308,-2.5308,-2.659,-2.7698,-2.8298,-2.7627,-2.7169,-2.7169,-2.6884,-2.6708,-2.6708,-2.6514,-2.6449,-2.6568,-2.585,-2.557,-2.5828,-2.58,-2.5853,-2.6008,-2.6714,-2.6327,-2.9405,-2.8184,-2.7593,-2.9245,-2.9317,-2.9486,-3.1366,-3.2136,-3.2921,-3.4609,-3.6026,-3.7219,-3.8065,-3.9222,-4.0038,-3.9996,-4.03,-4.0539,-4.0516,-4.0496,-4.0496,-4.0496,-4.1585,-4.2547,-4.3047,-4.4162,-4.5056,-4.5556,-4.5594,-4.5594,-4.5594,-4.5594,-4.5594,-4.5594,-4.5594,-4.5594,-4.5594,-4.5631,-4.5692,-4.5808,-4.5802,-4.5832,-4.59,-4.59,-4.593,-4.5911,-4.5434,-4.4807,-4.4062,-4.3058,-4.2197,-4.1488,-4.1028,-4.082,-4.0803,-4.0837,-4.082,-4.0797,-4.0797,-4.0797,-4.0797,-4.0797,-4.0216,-3.9501,-3.9501,-3.916,-3.8768,-3.8859,-3.8504,-3.8008,-3.7601,-3.6841,-3.6077,-3.5615,-3.55,-3.525,-3.4398,-3.3917,-3.341,-3.2564,-3.1737,-3.1154,-3.1154,-3.0731,-3.0288,-2.991,-2.914,-2.8253,-2.7301,-2.646,-2.5866,-2.5677,-2.6635,-2.7574,-2.8258,-2.7987,-2.7772,-2.7772,-2.683,-2.6291,-2.6291,-2.6228,-2.6237,-2.6291,-2.6349,-2.6441,-2.6563,-2.6045,-2.5853,-2.5977,-2.5846,-2.5537,-3.0608,-2.9995,-2.9551,-3.0714,-3.1111,-3.1482,-3.256,-3.3403,-3.4449,-3.6199,-3.7507,-3.863,-3.9503,-4.0161,-4.0565,-4.0531,-4.0546,-4.0565,-4.0516,-4.0496,-4.0419,-4.0208,-4.0719,-4.145,-4.2297,-4.3352,-4.4314,-4.519,-4.5257,-4.5372,-4.5594,-4.5594,-4.5594,-4.5594,-4.5594,-4.5594,-4.5594,-4.5594,-4.5662,-4.5742,-4.5742,-4.5775,-4.5819,-4.5844,-4.5846,-4.5822,-4.5195,-4.4654,-4.4116,-4.2873,-4.2086,-4.1603,-4.1029,-4.0797,-4.0797,-4.0797,-4.0797,-4.0797,-4.0797,-4.0797,-4.0797,-4.0797,-4.0042,-3.9146,-3.914,-3.8697,-3.8318,-3.8864,-3.8721,-3.843,-3.8368,-3.7526,-3.6558,-3.5962,-3.5654,-3.5327,-3.4699,-3.4379,-3.4013,-3.3372,-3.241,-3.1698,-3.1698,-3.0937,-3.0311,-3.0311,-2.9749,-2.8983,-2.8077,-2.7001,-2.6208,-2.5925,-2.6616,-2.7362,-2.8031,-2.8319,-2.8467,-2.8467,-2.713,-2.6349,-2.6349,-2.6349,-2.6349,-2.6349,-2.6925,-2.7111,-2.6907,-2.6312,-2.5966,-2.5845,-2.5471,-2.5268,-3.0386,-2.9912,-2.9626,-3.1333,-3.2343,-3.3357,-3.5008,-3.6007,-3.7084,-3.8834,-3.9227,-3.9523,-4.0407,-4.0539,-4.0531,-4.06,-4.0539,-4.0496,-4.0496,-4.0496,-4.0208,-3.9438,-3.9361,-3.9688,-4.0496,-4.2125,-4.3481,-4.4286,-4.4408,-4.4782,-4.5556,-4.5594,-4.5594,-4.5594,-4.5594,-4.5594,-4.5594,-4.5594,-4.5594,-4.5603,-4.5603,-4.5603,-4.5612,-4.5673,-4.5717,-4.5717,-4.5739,-4.4803,-4.325,-4.3265,-4.2299,-4.0835,-4.0816,-4.0797,-4.0797,-4.0797,-4.0797,-4.0797,-4.0797,-4.0797,-4.0797,-4.0797,-3.963,-3.8245,-3.824,-3.8208,-3.8177,-3.8059,-3.8635,-3.9264,-3.9253,-3.7988,-3.6692,-3.6673,-3.6077,-3.5481,-3.5462,-3.4795,-3.4186,-3.4167,-3.2833,-3.1698,-3.1698,-3.0823,-3.0115,-3.0115,-2.9973,-2.9623,-2.8954,-2.7243,-2.6061,-2.5909,-2.6616,-2.7362,-2.8031,-2.8876,-2.9359,-2.9359,-2.8523,-2.8021,-2.8021,-2.8021,-2.8021,-2.8021,-2.8059,-2.7687,-2.6907,-2.6869,-2.647,-2.5708,-2.647,-2.6487,-3.1303,-3.1516,-3.1942,-3.3153,-3.3635,-3.4244,-3.5918,-3.6949,-3.7738,-3.8315,-3.8892,-3.9207,-3.8934,-3.8886,-3.9092,-3.9653,-3.9752,-3.9933,-4.0427,-4.0496,-4.0208,-3.94,-3.9765,-3.9985,-3.9738,-4.0712,-4.1974,-4.3393,-4.4025,-4.4449,-4.472,-4.5287,-4.5594,-4.5594,-4.5594,-4.5594,-4.5594,-4.5594,-4.5594,-4.5594,-4.5594,-4.5594,-4.5594,-4.5631,-4.5657,-4.5701,-4.5719,-4.4758,-4.3221,-4.3278,-4.2286,-4.0739,-4.0784,-4.0797,-4.0797,-4.0797,-4.0797,-4.0797,-4.0797,-4.0797,-4.0797,-4.0797,-3.9618,-3.8298,-3.8827,-3.8196,-3.7494,-3.8565,-3.9064,-3.9299,-3.9304,-3.8854,-3.8123,-3.6981,-3.6481,-3.6154,-3.5615,-3.5269,-3.5064,-3.5064,-3.4141,-3.3179,-3.2602,-3.1647,-3.07,-2.9893,-2.928,-2.8818,-2.8604,-2.6975,-2.582,-2.5778,-2.6012,-2.6264,-2.6488,-2.726,-2.7743,-2.7743,-2.6962,-2.6498,-2.6498,-2.7018,-2.7297,-2.7297,-2.7836,-2.7966,-2.7687,-2.6609,-2.5959,-2.5689,-2.5429,-2.5195,-3.1695,-3.2351,-3.3121,-3.4042,-3.4468,-3.5026,-3.6385,-3.7142,-3.7623,-3.793,-3.82,-3.8303,-3.8087,-3.757,-3.7642,-3.9076,-3.9066,-3.9266,-4.035,-4.0496,-4.0208,-3.94,-3.9765,-3.9877,-3.9348,-3.9761,-4.0785,-4.2533,-4.3418,-4.4006,-4.4278,-4.5133,-4.5594,-4.5594,-4.5594,-4.5594,-4.5594,-4.5594,-4.5594,-4.5594,-4.5594,-4.5594,-4.5594,-4.5594,-4.5631,-4.5657,-4.5359,-4.445,-4.3138,-4.2895,-4.1956,-4.0668,-4.0739,-4.0752,-4.0778,-4.079,-4.0797,-4.0797,-4.0797,-4.0797,-4.0797,-4.0797,-3.983,-3.8768,-3.9245,-3.862,-3.7956,-3.8994,-3.9511,-3.9727,-3.9727,-3.9515,-3.9015,-3.7892,-3.7161,-3.6558,-3.6038,-3.5692,-3.55,-3.55,-3.4735,-3.3913,-3.335,-3.2111,-3.0817,-2.9701,-2.9092,-2.8652,-2.8334,-2.7028,-2.6024,-2.5726,-2.5708,-2.5708,-2.5708,-2.6442,-2.6907,-2.6907,-2.6145,-2.5708,-2.5708,-2.621,-2.6461,-2.6461,-2.726,-2.7538,-2.7241,-2.62,-2.5559,-2.5262,-2.4741,-2.45,-3.169,-3.248,-3.3237,-3.4071,-3.4891,-3.5712,-3.6519,-3.6673,-3.6865,-3.77,-3.718,-3.6822,-3.7621,-3.6485,-3.6247,-3.8712,-3.8481,-3.859,-4.0265,-4.0496,-4.0208,-3.94,-3.9342,-3.935,-3.9309,-3.9338,-4.0069,-4.1763,-4.2649,-4.3442,-4.4201,-4.5094,-4.5594,-4.5594,-4.5594,-4.5594,-4.5594,-4.5594,-4.5594,-4.5594,-4.5594,-4.5594,-4.5594,-4.5594,-4.5594,-4.5556,-4.4752,-4.3901,-4.3034,-4.2232,-4.1386,-4.0614,-4.0661,-4.0694,-4.07,-4.0778,-4.079,-4.0797,-4.0797,-4.0797,-4.0797,-4.0797,-4.0236,-3.954,-3.9476,-3.9469,-3.9441,-3.9376,-3.9919,-4.0496,-4.0496,-3.9938,-3.9361,-3.9304,-3.8046,-3.6808,-3.6712,-3.6096,-3.5558,-3.5519,-3.4637,-3.3883,-3.3867,-3.2154,-3.0506,-2.9595,-2.9444,-2.9099,-2.8263,-2.7464,-2.6646,-2.5856,-2.5764,-2.5726,-2.5652,-2.6368,-2.6814,-2.6776,-2.6061,-2.5652,-2.5652,-2.5689,-2.5708,-2.5708,-2.6442,-2.6461,-2.5708,-2.5671,-2.5243,-2.45,-2.45,-2.45,-3.3369,-3.4206,-3.4885,-3.5115,-3.5346,-3.5712,-3.6519,-3.6231,-3.5865,-3.6096,-3.5449,-3.4533,-3.3519,-3.3987,-3.4957,-3.6252,-3.7331,-3.859,-4.0265,-4.0496,-4.0208,-3.94,-3.9823,-3.9954,-3.9367,-3.9838,-4.0666,-4.1801,-4.2656,-4.319,-4.3393,-4.4806,-4.5594,-4.5594,-4.5594,-4.5594,-4.5594,-4.5594,-4.5594,-4.5594,-4.5594,-4.5594,-4.5594,-4.5594,-4.5594,-4.5556,-4.4752,-4.3904,-4.3033,-4.2225,-4.1384,-4.061,-4.0626,-4.0661,-4.07,-4.0726,-4.0752,-4.0797,-4.0797,-4.0797,-4.0797,-4.0797,-4.0585,-4.0333,-4.0359,-4.0304,-4.0238,-4.0265,-4.0385,-4.0496,-4.0496,-4.0342,-4.0035,-3.9438,-3.895,-3.8277,-3.6981,-3.6538,-3.6212,-3.5615,-3.4637,-3.3792,-3.3497,-3.1986,-3.0693,-3.0339,-2.9768,-2.9322,-2.9099,-2.8319,-2.7483,-2.6684,-2.6591,-2.6117,-2.4908,-2.554,-2.5745,-2.515,-2.4927,-2.4816,-2.4816,-2.5392,-2.5708,-2.5708,-2.5912,-2.5912,-2.5708,-2.5094,-2.4704,-2.45,-2.45,-2.45,-3.4107,-3.4854,-3.55,-3.55,-3.55,-3.5519,-3.5584,-3.5257,-3.4718,-3.3981,-3.3141,-3.2237,-3.1288,-3.1896,-3.3063,-3.4667,-3.6362,-3.8063,-3.9746,-4.0285,-4.0323,-3.9881,-4.0227,-4.0339,-3.9906,-4.025,-4.0897,-4.184,-4.2648,-4.3258,-4.3605,-4.4883,-4.5594,-4.5594,-4.5594,-4.5594,-4.5594,-4.5594,-4.5594,-4.5594,-4.5594,-4.5594,-4.5594,-4.5594,-4.5402,-4.4979,-4.4177,-4.3322,-4.245,-4.162,-4.0992,-4.0565,-4.0591,-4.0612,-4.0653,-4.0654,-4.0674,-4.0713,-4.0713,-4.0713,-4.0713,-4.0746,-4.0707,-4.0647,-4.0653,-4.061,-4.0558,-4.0546,-4.0531,-4.0496,-4.0496,-4.0496,-4.04,-3.9938,-3.9554,-3.8931,-3.7565,-3.6962,-3.6407,-3.5438,-3.4759,-3.4101,-3.3299,-3.211,-3.1086,-3.0663,-2.9917,-2.9396,-2.9396,-2.8635,-2.7929,-2.7464,-2.7111,-2.6535,-2.5633,-2.5652,-2.5503,-2.5057,-2.4704,-2.45,-2.45,-2.4927,-2.5169,-2.5169,-2.5169,-2.5169,-2.5169,-2.4723,-2.45,-2.45,-2.45,-2.45,-3.4425,-3.4963,-3.55,-3.55,-3.5404,-3.5141,-3.4379,-3.3936,-3.3276,-3.1833,-3.075,-3.0077,-3.0077,-3.0254,-3.1189,-3.3635,-3.5495,-3.7254,-3.9042,-3.99,-4.0381,-4.0496,-4.0496,-4.0523,-4.058,-4.0531,-4.0897,-4.1813,-4.2533,-4.3335,-4.4239,-4.5133,-4.5594,-4.5594,-4.5594,-4.5594,-4.5594,-4.5594,-4.5594,-4.5594,-4.5594,-4.5594,-4.5594,-4.5479,-4.5017,-4.4239,-4.3335,-4.2508,-4.1731,-4.0854,-4.0496,-4.0516,-4.0565,-4.058,-4.0588,-4.0612,-4.0607,-4.0595,-4.0595,-4.0595,-4.0614,-4.0661,-4.0764,-4.0828,-4.0656,-4.0665,-4.0727,-4.0569,-4.0516,-4.0496,-4.0496,-4.0496,-4.0496,-4.0496,-3.9977,-3.9227,-3.8354,-3.7377,-3.6312,-3.5134,-3.4889,-3.4505,-3.3361,-3.25,-3.1719,-3.1013,-3.014,-2.9564,-2.9564,-2.8802,-2.8226,-2.8114,-2.7575,-2.713,-2.6925,-2.6349,-2.5968,-2.5875,-2.5206,-2.4816,-2.4816,-2.4723,-2.4667,-2.4667,-2.4555,-2.45,-2.45,-2.45,-2.45,-2.45,-2.4611,-2.4667,-3.5123,-3.5379,-3.55,-3.55,-3.4968,-3.4398,-3.4225,-3.2564,-3.0981,-3.0692,-2.941,-2.8332,-2.8332,-2.9467,-3.1018,-3.289,-3.4623,-3.6559,-3.8955,-3.9415,-3.9746,-4.0419,-4.0496,-4.0496,-4.0523,-4.0516,-4.0862,-4.1747,-4.195,-4.2701,-4.422,-4.5133,-4.5594,-4.5594,-4.5594,-4.5594,-4.5594,-4.5594,-4.5594,-4.5594,-4.5594,-4.5594,-4.5575,-4.4855,-4.4432,-4.422,-4.2701,-4.1942,-4.1731,-4.0854,-4.0496,-4.0496,-4.0504,-4.0539,-4.0607,-4.0595,-4.0598,-4.0595,-4.0595,-4.0595,-4.0595,-4.0621,-4.1101,-4.1554,-4.0824,-4.105,-4.1447,-4.0766,-4.0539,-4.0496,-4.0496,-4.0496,-4.0496,-4.0496,-4.04,-4.0073,-3.9246,-3.7697,-3.6137,-3.5107,-3.4771,-3.4505,-3.4071,-3.3324,-3.2741,-3.2611,-3.1329,-3.0381,-3.0381,-2.9675,-2.8895,-2.8189,-2.8616,-2.8412,-2.7018,-2.7371,-2.7408,-2.6721,-2.6553,-2.6479,-2.6479,-2.5856,-2.5485,-2.5485,-2.4834,-2.45,-2.45,-2.45,-2.45,-2.4518,-2.5187,-2.5485,-3.54,-3.55,-3.55,-3.55,-3.4834,-3.3975,-3.3103,-3.1602,-3.0019,-2.8692,-2.7775,-2.7082,-2.664,-2.7948,-2.9511,-3.076,-3.2769,-3.5045,-3.7586,-3.8349,-3.9092,-4.0404,-4.0523,-4.0504,-4.0539,-4.0523,-4.0854,-4.1731,-4.1788,-4.2354,-4.3605,-4.447,-4.5133,-4.5594,-4.5594,-4.5594,-4.5594,-4.5594,-4.5594,-4.5594,-4.5594,-4.5594,-4.5594,-4.5171,-4.472,-4.422,-4.3008,-4.222,-4.1731,-4.0854,-4.0496,-4.0496,-4.0496,-4.0523,-4.0539,-4.0539,-4.0554,-4.0549,-4.0549,-4.0549,-4.0549,-4.0549,-4.0858,-4.1147,-4.0684,-4.0816,-4.1035,-4.0666,-4.0531,-4.0496,-4.0496,-4.0496,-4.0496,-4.0496,-4.0189,-3.9627,-3.8665,-3.7387,-3.6068,-3.4962,-3.4658,-3.4517,-3.4245,-3.3528,-3.3001,-3.3001,-3.1998,-3.1069,-3.0641,-3.0251,-2.9694,-2.8876,-2.9155,-2.9062,-2.8263,-2.8133,-2.7947,-2.7557,-2.713,-2.6907,-2.6907,-2.6535,-2.6312,-2.6312,-2.5949,-2.5745,-2.5745,-2.5745,-2.5745,-2.5764,-2.6145,-2.6312,-3.5521,-3.55,-3.55,-3.55,-3.4699,-3.3526,-3.2045,-3.075,-2.9231,-2.7044,-2.6447,-2.6173,-2.5673,-2.6697,-2.8011,-2.9195,-3.1204,-3.3526,-3.6072,-3.7341,-3.858,-4.0149,-4.0435,-4.0523,-4.0573,-4.0531,-4.0785,-4.147,-4.1527,-4.1989,-4.3047,-4.3855,-4.4605,-4.5306,-4.5498,-4.5594,-4.5594,-4.5594,-4.5594,-4.5594,-4.5594,-4.5594,-4.5594,-4.5229,-4.4682,-4.3989,-4.297,-4.2143,-4.147,-4.0785,-4.0496,-4.0496,-4.0496,-4.0496,-4.0496,-4.0496,-4.0496,-4.0496,-4.0496,-4.0496,-4.0496,-4.0496,-4.0531,-4.0573,-4.0523,-4.0496,-4.0496,-4.0496,-4.0496,-4.0496,-4.0496,-4.0496,-4.0496,-4.0496,-4.0015,-3.9235,-3.8024,-3.7156,-3.6224,-3.4919,-3.4583,-3.445,-3.4233,-3.3677,-3.325,-3.325,-3.2574,-3.1831,-3.1199,-3.0809,-3.0363,-2.9712,-2.9489,-2.9396,-2.9396,-2.8765,-2.8374,-2.8374,-2.778,-2.7445,-2.7445,-2.726,-2.7167,-2.7167,-2.6981,-2.6907,-2.6907,-2.6907,-2.6907,-2.6907,-2.7074,-2.7167,-3.5521,-3.55,-3.55,-3.55,-3.4257,-3.2795,-3.191,-2.9852,-2.7832,-2.6813,-2.5962,-2.5635,-2.6351,-2.6621,-2.7497,-2.9883,-3.1145,-3.2692,-3.5245,-3.699,-3.8354,-3.9304,-4.0054,-4.0496,-4.0504,-4.0496,-4.0535,-4.0612,-4.0631,-4.1362,-4.3008,-4.3855,-4.4335,-4.4412,-4.519,-4.5594,-4.5594,-4.5594,-4.5594,-4.5594,-4.5594,-4.5594,-4.5556,-4.4008,-4.3297,-4.3124,-4.1458,-4.0689,-4.0612,-4.0535,-4.0496,-4.0496,-4.0496,-4.0496,-4.0496,-4.0496,-4.0496,-4.0496,-4.0496,-4.0496,-4.0496,-4.0496,-4.0496,-4.0516,-4.0496,-4.0496,-4.0496,-4.0496,-4.0496,-4.0496,-4.0496,-4.0496,-4.0496,-4.0496,-4.0439,-3.995,-3.8319,-3.7625,-3.6824,-3.5201,-3.4524,-3.4233,-3.4209,-3.4141,-3.4086,-3.4086,-3.341,-3.2871,-3.2797,-3.1496,-3.0567,-3.0493,-2.9842,-2.9396,-2.9396,-2.9322,-2.9266,-2.9266,-2.9211,-2.9174,-2.9174,-2.8412,-2.7984,-2.7984,-2.726,-2.6907,-2.6907,-2.6907,-2.6907,-2.6925,-2.765,-2.7984,-3.5386,-3.55,-3.55,-3.55,-3.4192,-3.2699,-3.1891,-2.9737,-2.764,-2.6774,-2.5904,-2.5404,-2.575,-2.5827,-2.6486,-2.8566,-2.919,-3.0473,-3.3506,-3.4962,-3.6425,-3.8358,-3.9299,-3.9985,-4.0508,-4.0531,-4.0496,-4.0496,-4.0496,-4.0804,-4.1497,-4.2835,-4.3797,-4.4278,-4.5152,-4.5594,-4.5594,-4.5594,-4.5594,-4.5594,-4.5594,-4.5594,-4.5556,-4.4374,-4.3816,-4.372,-4.2027,-4.1277,-4.1239,-4.0727,-4.0496,-4.0496,-4.0496,-4.0496,-4.0496,-4.0496,-4.0496,-4.0496,-4.0496,-4.0496,-4.0496,-4.0496,-4.0496,-4.0496,-4.0496,-4.0496,-4.0496,-4.0496,-4.0496,-4.0496,-4.0496,-4.0496,-4.0496,-4.0496,-4.0496,-4.0146,-3.8879,-3.8054,-3.7157,-3.5716,-3.4902,-3.4386,-3.4221,-3.4197,-3.4197,-3.4197,-3.3918,-3.3559,-3.3057,-3.2444,-3.1663,-3.0697,-2.988,-2.9396,-2.9396,-2.9396,-2.9396,-2.9396,-2.9396,-2.9396,-2.9396,-2.9062,-2.8876,-2.8876,-2.856,-2.8393,-2.8393,-2.8393,-2.8393,-2.8412,-2.8728,-2.8876,-3.4956,-3.5308,-3.5442,-3.5173,-3.4007,-3.2545,-3.1237,-2.9352,-2.7582,-2.6447,-2.5731,-2.5308,-2.5308,-2.5308,-2.5788,-2.7274,-2.7934,-2.9261,-3.2141,-3.3718,-3.5366,-3.7434,-3.8414,-3.9253,-4.0123,-4.0396,-4.0496,-4.0496,-4.0496,-4.0496,-4.0496,-4.1912,-4.3085,-4.3912,-4.5017,-4.5594,-4.5594,-4.5594,-4.5479,-4.5229,-4.5229,-4.5094,-4.4825,-4.3951,-4.3566,-4.3489,-4.2047,-4.1412,-4.1373,-4.0746,-4.0496,-4.0496,-4.0496,-4.0496,-4.0496,-4.0496,-4.0496,-4.0496,-4.0496,-4.0496,-4.0496,-4.0496,-4.0496,-4.0496,-4.0496,-4.0496,-4.0496,-4.0496,-4.0496,-4.0496,-4.0496,-4.0496,-4.0496,-4.0496,-4.0496,-4.0177,-3.895,-3.8174,-3.7259,-3.5819,-3.5023,-3.4517,-3.4245,-3.4197,-3.4197,-3.4197,-3.4197,-3.3993,-3.3429,-3.315,-3.2574,-3.144,-3.0586,-2.9917,-2.9434,-2.9396,-2.9396,-2.9396,-2.9396,-2.9396,-2.9396,-2.9396,-2.9396,-2.9396,-2.9396,-2.9396,-2.9396,-2.9396,-2.9396,-2.9396,-2.9396,-2.9396,-3.4205,-3.4834,-3.5288,-3.443,-3.3545,-3.2237,-2.9704,-2.8492,-2.7409,-2.5673,-2.5308,-2.5308,-2.5308,-2.5308,-2.5596,-2.6467,-2.8005,-2.9704,-3.1468,-3.3885,-3.5788,-3.6615,-3.7488,-3.8354,-3.9227,-4.0035,-4.0496,-4.0496,-4.0496,-4.0496,-4.0496,-4.1335,-4.222,-4.3085,-4.4729,-4.5594,-4.5594,-4.5594,-4.5171,-4.4316,-4.4316,-4.3893,-4.3104,-4.222,-4.1827,-4.1769,-4.0893,-4.0516,-4.0516,-4.0496,-4.0496,-4.0496,-4.0496,-4.0496,-4.0496,-4.0496,-4.0496,-4.0496,-4.0496,-4.0496,-4.0496,-4.0496,-4.0496,-4.0496,-4.0496,-4.0496,-4.0496,-4.0496,-4.0496,-4.0496,-4.0496,-4.0496,-4.0496,-4.0496,-4.0496,-4.0035,-3.8373,-3.7846,-3.7142,-3.5277,-3.474,-3.4517,-3.4245,-3.4197,-3.4197,-3.4197,-3.4197,-3.4197,-3.4179,-3.3503,-3.299,-3.2983,-3.2258,-3.1125,-2.9527,-2.9396,-2.9396,-2.9396,-2.9396,-2.9396,-2.9396,-2.9396,-2.9396,-2.9396,-2.9396,-2.9396,-2.9396,-2.9396,-2.9396,-2.9396,-2.9396,-2.9396,-3.2487,-3.2699,-3.2692,-3.1808,-3.0948,-3.0088,-2.928,-2.8025,-2.6851,-2.6288,-2.5712,-2.5308,-2.5308,-2.5308,-2.5962,-2.7986,-2.8742,-2.9896,-3.2199,-3.4231,-3.5808,-3.6596,-3.8488,-3.9823,-4.0092,-4.0342,-4.0496,-4.0496,-4.0496,-4.0496,-4.0496,-4.1335,-4.1923,-4.22,-4.3297,-4.3893,-4.3893,-4.3893,-4.3739,-4.347,-4.347,-4.3355,-4.3066,-4.22,-4.1788,-4.175,-4.0873,-4.0496,-4.0496,-4.0496,-4.0496,-4.0496,-4.0496,-4.0496,-4.0496,-4.0496,-4.0496,-4.0496,-4.0496,-4.0496,-4.0496,-4.0496,-4.0496,-4.0496,-4.0496,-4.0496,-4.0496,-4.0496,-4.0496,-4.0496,-4.0496,-4.0496,-4.0496,-4.0496,-4.0496,-4.0208,-3.913,-3.8257,-3.7314,-3.597,-3.5109,-3.4517,-3.4245,-3.4197,-3.4197,-3.4197,-3.4197,-3.4197,-3.4197,-3.3974,-3.3615,-3.3057,-3.2778,-3.1979,-3.0363,-3.0214,-2.9991,-2.9434,-2.9396,-2.9396,-2.9396,-2.9396,-2.9396,-2.9396,-2.9396,-2.9396,-2.9396,-2.9396,-2.9396,-2.9396,-2.9396,-2.9396,-3.1044,-3.1212,-3.1,-3.014,-2.9506,-2.8934,-2.8299,-2.7351,-2.6505,-2.6173,-2.5673,-2.5308,-2.5308,-2.5308,-2.5827,-2.7409,-2.8222,-2.9415,-3.1641,-3.3718,-3.5545,-3.7026,-3.8873,-4.0054,-4.0054,-4.0323,-4.0496,-4.0496,-4.0496,-4.0496,-4.0496,-4.1008,-4.1316,-4.1316,-4.247,-4.3104,-4.3104,-4.3104,-4.2931,-4.2604,-4.2604,-4.2431,-4.2104,-4.1566,-4.1316,-4.1277,-4.0746,-4.0496,0.0,-4.0496,-4.0496,-4.0496,-4.0496,-4.0496,-4.0496,-4.0496,-4.0496,-4.0496,-4.0496,-4.0496,-4.0496,-4.0496,-4.0496,-4.0496,-4.0496,-4.0496,-4.0496,-4.0496,-4.0496,-4.0496,-4.0496,-4.0496,-4.0496,-4.0496,-4.0496,-4.0285,-3.9477,-3.8468,-3.7371,-3.6321,-3.5279,-3.4517,-3.4245,-3.4197,-3.4197,-3.4197,-3.4197,-3.4197,-3.4197,-3.4197,-3.4011,-3.351,-3.3436,-3.2927,-3.1626,-3.0957,-3.0251,-2.9452,-2.9396,-2.9396,-2.9396,-2.9396,-2.9396,-2.9396,-2.9396,-2.9396,-2.9396,-2.9396,-2.9396,-2.9396,-2.9396,-2.9396,0.0,-3.0135,-2.9923,-2.9044,-2.8838,-2.8415,-2.6871,-2.6505,0.0,-2.5462,-2.5308,-2.5327,-2.5385,-2.5346,-2.5385,-2.5615,-2.6967,-2.8602,-3.0423,-3.2852,-3.5398,-3.7873,-3.8892,-3.94,-3.94,-4.0054,-4.0496,-4.0496,-4.0496,-4.0496,-4.0496,-4.0496,-4.0496,-4.0496,-4.2066,-4.2912,-4.2912,-4.2912,-4.2508,-4.1712,-4.1712,-4.1277,-4.0496,-4.0496,-4.0496,-4.0496,-4.0496,-4.0496,-4.0496,-4.0496,-4.0496,-4.0496,-4.0496,-4.0496,-4.0496,-4.0496,-4.0496,-4.0496,-4.0496,-4.0496,-4.0496,-4.0496,-4.0496,-4.0496,-4.0496,-4.0496,-4.0496,-4.0496,-4.0496,-4.0496,-4.0496,-4.0496,-4.0496,-4.0496,-4.0496,-4.0285,-3.9477,-3.8498,-3.7458,-3.6388,-3.5363,-3.4589,-3.4338,-3.4234,-3.4197,-3.4197,-3.4197,-3.4197,-3.4197,-3.4197,-3.4197,-3.4197,-3.4197,-3.3863,-3.3076,-3.1589,-3.0344,-2.9527,-2.9434,-2.9396,-2.9396,-2.9396,-2.9396,-2.9396,-2.9396,-2.9396,-2.9396,-2.9396,-2.9396,-2.9396,-2.9396,-2.9396,-2.7192,0.0,-2.7269,-2.6404,-2.6192,-2.6096,0.0,-2.5615,-2.5558,-2.5346,-2.5308,-2.55,-2.6173,-2.575,-2.6154,-2.8788,-2.8986,-2.9877,-3.2872,-3.5507,-3.7796,-3.9688,-4.0092,-4.0227,-4.0227,-4.04,-4.0496,-4.0496,-4.0496,-4.0496,-4.0496,-4.0496,-4.0496,-4.0496,-4.09,-4.1112,-4.1112,-4.1112,-4.1016,-4.0804,-4.0804,-4.0708,-4.0496,-4.0496,-4.0496,-4.0496,-4.0496,-4.0496,-4.0496,-4.0496,-4.0496,-4.0496,-4.0496,-4.0496,-4.0496,-4.0496,-4.0496,-4.0496,-4.0496,-4.0496,-4.0496,-4.0496,-4.0496,-4.0496,-4.0496,-4.0496,-4.0496,-4.0496,-4.0496,-4.0496,-4.0496,-4.0496,-4.0496,-4.0496,-4.0496,-4.0285,-3.9477,-3.8818,-3.8116,-3.7202,-3.607,-3.5268,-3.5206,-3.4643,-3.4197,-3.4197,-3.4197,-3.4197,-3.4197,-3.4197,-3.4197,-3.4197,-3.4197,-3.3863,-3.3076,-3.2091,-3.1162,-3.0363,-2.9731,-2.9396,-2.9396,-2.9396,-2.9396,-2.9396,-2.9396,-2.9396,-2.9396,-2.9396,-2.9396,-2.9396,-2.9396,-2.9396,-2.5885,-2.6288,-2.6486,-2.6,-2.5904,-2.5904,-2.5904,-2.5596,-2.5308,-2.5308,-2.5308,-2.5442,-2.5923,-2.5942,-2.6635,-2.889,-2.9506,-3.1025,-3.4814,-3.6873,-3.8623,-4.0304,-4.0496,-4.0496,-4.0496,-4.0496,-4.0496,-4.0496,-4.0496,-4.0496,-4.0496,-4.0496,-4.0496,-4.0496,-4.0496,-4.0496,-4.0496,-4.0496,-4.0496,-4.0496,-4.0496,-4.0496,-4.0496,-4.0496,-4.0496,-4.0496,-4.0496,-4.0496,-4.0496,-4.0496,-4.0496,-4.0496,-4.0496,-4.0496,-4.0496,-4.0496,-4.0496,-4.0496,-4.0496,-4.0496,-4.0496,-4.0496,-4.0496,-4.0496,-4.0496,-4.0496,-4.0496,-4.0496,-4.0496,-4.0496,-4.0496,-4.0496,-4.0496,-4.0496,-4.0496,-4.0358,-3.9835,-3.8842,-3.7864,-3.7276,-3.6255,-3.551,-3.551,-3.5417,-3.5349,-3.5349,-3.5349,-3.52,-3.4829,-3.4804,-3.4643,-3.4234,-3.4197,-3.4011,-3.3584,-3.2816,-3.2017,-3.1199,-3.0734,-3.0493,-3.0493,-3.014,-2.9768,-2.9407,-2.9396,-2.9396,-2.9396,-2.9396,-2.9396,-2.9396,-2.9768,-2.9954,-2.5462,-2.6135,-2.6736,-2.6467,-2.6505,-2.6601,-2.6601,-2.6019,-2.55,-2.55,-2.55,-2.5538,-2.5673,-2.6288,-2.7178,-2.8294,-3.0006,-3.2462,-3.6173,-3.7565,-3.8777,-4.0323,-4.0496,-4.0496,-4.0496,-4.0496,-4.0496,-4.0496,-4.0496,-4.0496,-4.0496,-4.0496,-4.0496,-4.0496,-4.0496,-4.0496,-4.0496,-4.0496,-4.0496,-4.0496,-4.0496,-4.0496,-4.0496,-4.0496,-4.0496,-4.0496,-4.0496,-4.0496,-4.0496,-4.0496,-4.0496,-4.0496,-4.0496,-4.0496,-4.0496,-4.0496,-4.0496,-4.0496,-4.0496,-4.0496,-4.0496,-4.0496,-4.0496,-4.0496,-4.0496,-4.0496,-4.0477,-4.0342,-4.0419,-4.0477,-4.0342,-4.0419,-4.0496,-4.0496,-4.0496,-4.0457,-4.0286,-3.8966,-3.7743,-3.748,-3.6625,-3.5913,-3.5863,-3.6328,-3.6699,-3.6699,-3.6699,-3.6458,-3.577,-3.5584,-3.5231,-3.4476,-3.4271,-3.4197,-3.4197,-3.3577,-3.289,-3.2221,-3.1942,-3.1794,-3.1794,-3.1143,-3.0456,-2.9768,-2.9768,-2.9768,-2.9768,-2.9768,-2.9768,-2.9768,-3.0474,-3.0772,-2.6192,-2.7044,-2.7351,-2.5865,-2.6058,-2.6601,-2.6601,-2.6505,-2.6409,-2.6409,-2.6409,-2.664,-2.7351,-2.7601,-2.8448,-3.0737,-3.3135,-3.5173,-3.65,-3.8084,-3.9457,-4.04,-4.0496,-4.0496,-4.0496,-4.0496,-4.0496,-4.0496,-4.0496,-4.0496,-4.0496,-4.0496,-4.0496,-4.0496,-4.0496,-4.0496,-4.0496,-4.0496,-4.0496,-4.0496,-4.0496,-4.0496,-4.0496,-4.0496,-4.0496,-4.0496,-4.0496,-4.0496,-4.0496,-4.0496,-4.0496,-4.0496,-4.0496,-4.0496,-4.0496,-4.0496,-4.0496,-4.0496,-4.0496,-4.0496,-4.0496,-4.0496,-4.0496,-4.0496,-4.0496,-4.0496,-4.0362,-3.9688,-3.9977,-4.0342,-3.9669,-3.9996,-4.0496,-4.0496,-4.0496,-4.0489,-4.0465,-4.0093,-3.9681,-3.9418,-3.8573,-3.7797,-3.7575,-3.7071,-3.6699,-3.6699,-3.6699,-3.6649,-3.6532,-3.5919,-3.5454,-3.5306,-3.4643,-3.4197,-3.4197,-3.4086,-3.3956,-3.3844,-3.2555,-3.1794,-3.1794,-3.1682,-3.1552,-3.144,-3.144,-3.144,-3.144,-3.144,-3.144,-3.144,-3.1552,-3.1626,-2.5787,-2.6533,-2.7005,-2.6192,-2.6986,-2.7832,-2.739,-2.7294,-2.7294,-2.7294,-2.7294,-2.7563,-2.8396,-2.8929,-3.0237,-3.325,-3.55,-3.7142,-3.7988,-3.8796,-3.9611,-4.04,-4.0496,-4.0496,-4.0496,-4.0496,-4.0496,-4.0496,-4.0496,-4.0496,-4.0496,-4.0496,-4.0496,-4.0496,-4.0496,-4.0496,-4.0496,-4.0496,-4.0496,-4.0496,-4.0496,-4.0496,-4.0496,-4.0496,-4.0496,-4.0496,-4.0496,-4.0496,-4.0496,-4.0496,-4.0496,-4.0496,-4.0496,-4.0496,-4.0496,-4.0496,-4.0496,-4.0496,-4.0496,-4.0496,-4.0496,-4.0496,-4.0496,-4.0496,-4.0496,-4.0496,-4.0323,-3.9534,-3.9573,-3.9765,-3.94,-3.9573,-3.9958,-4.04,-4.0425,-4.0304,-4.0148,-3.9621,-3.9096,-3.8825,-3.8403,-3.8033,-3.792,-3.7949,-3.7986,-3.7986,-3.7986,-3.7838,-3.7392,-3.7021,-3.663,-3.6197,-3.5776,-3.538,-3.4952,-3.4903,-3.4711,-3.4234,-3.351,-3.2908,-3.2481,-3.2462,-3.224,-3.1812,-3.1794,-3.1794,-3.1794,-3.1794,-3.1794,-3.1812,-3.2258,-3.2462,-2.5824,-2.6364,-2.6841,-2.6654,-2.7563,-2.8453,-2.8222,-2.8184,-2.8242,-2.8448,-2.864,-2.8986,-2.9608,-3.0737,-3.2519,-3.5327,-3.7199,-3.8546,-3.9207,-3.9457,-3.9804,-4.0439,-4.0496,-4.0496,-4.0496,-4.0496,-4.0496,-4.0496,-4.0496,-4.0496,-4.0496,-4.0457,-4.0457,-4.0496,-4.0457,-4.0457,-4.0496,-4.0496,-4.0496,-4.0496,-4.0496,-4.0496,-4.0496,-4.0496,-4.0496,-4.0496,-4.0496,-4.0496,-4.0496,-4.0496,-4.0496,-4.0496,-4.0496,-4.0496,-4.0496,-4.0496,-4.0496,-4.0496,-4.0496,-4.0496,-4.0496,-4.0496,-4.0496,-4.0496,-4.0496,-4.0496,-4.0323,-3.9534,-3.9304,-3.9304,-3.9304,-3.9438,-3.9746,-4.0342,-4.0372,-4.0204,-3.9953,-3.928,-3.8651,-3.8326,-3.8279,-3.8253,-3.8186,-3.8692,-3.9101,-3.9101,-3.9101,-3.8878,-3.8265,-3.8024,-3.7652,-3.7039,-3.6798,-3.6458,-3.5826,-3.5621,-3.5231,-3.455,-3.4309,-3.3918,-3.3317,-3.328,-3.299,-3.237,-3.237,-3.237,-3.237,-3.237,-3.237,-3.2388,-3.299,-3.328,-2.7407,-2.7673,-2.7536,-2.6788,-2.6697,-2.7178,-2.8665,-2.9011,-2.9242,-3.0058,-3.0865,-3.1448,-3.1506,-3.35,-3.5462,-3.6442,-3.8065,-3.9227,-3.9284,-3.9938,-4.0439,-4.0496,-4.0496,-4.0496,-4.0496,-4.0496,-4.0496,-4.0496,-4.0496,-4.0496,-4.0496,-4.0321,-4.0304,-4.0489,-4.0321,-4.0313,-4.0496,-4.0496,-4.0496,-4.0496,-4.0496,-4.0496,-4.0496,-4.0496,-4.0496,-4.0496,-4.0496,-4.0496,-4.0496,-4.0496,-4.0496,-4.0496,-4.0496,-4.0496,-4.0496,-4.0496,-4.0496,-4.0496,-4.0496,-4.0496,-4.0496,-4.0496,-4.0496,-4.0496,-4.0496,-4.0496,-4.0323,-3.9534,-3.9304,-3.9304,-3.9304,-3.9842,-4.0439,-4.0496,-4.0489,-4.0414,-4.0223,-4.012,-3.9926,-3.9462,-3.9383,-3.9308,-3.9063,-3.9064,-3.9101,-3.9101,-3.9101,-3.9082,-3.9027,-3.8358,-3.7875,-3.7819,-3.7151,-3.6681,-3.6625,-3.5937,-3.5473,-3.5417,-3.4643,-3.416,-3.4123,-3.4104,-3.4086,-3.403,-3.403,-3.403,-3.403,-3.403,-3.403,-3.403,-3.4086,-3.4104,-2.6899,-2.7023,-2.7108,-2.7346,-2.7409,-2.7717,-2.8838,-2.9935,-3.0948,-3.1775,-3.2218,-3.2602,-3.3141,-3.4891,-3.6519,-3.7373,-3.8527,-3.9477,-3.9977,-4.0304,-4.0496,-4.0496,-4.0496,-4.0496,-4.0496,-4.0496,-4.0449,-4.0321,-4.0313,-4.0241,-4.0082,-3.9993,-4.0072,-4.0304,-4.0242,-4.0295,-4.0496,-4.0496,-4.0496,-4.0496,-4.0496,-4.0496,-4.0496,-4.0496,-4.0496,-4.0496,-4.0496,-4.0496,-4.0496,-4.0496,-4.0496,-4.0496,-4.0496,-4.0496,-4.0496,-4.0496,-4.0496,-4.0496,-4.0496,-4.0496,-4.0496,-4.0496,-4.0496,-4.0496,-4.0496,-4.0496,-4.0439,-4.0131,-4.0054,-3.9938,-3.9438,-3.9534,-3.9746,-3.9746,-3.9902,-3.9919,-3.9335,-3.9376,-3.9464,-3.9298,-3.9245,-3.9219,-3.9129,-3.9101,-3.9101,-3.9101,-3.9101,-3.9101,-3.9101,-3.8822,-3.8655,-3.8655,-3.7931,-3.7448,-3.7448,-3.6718,-3.603,-3.5529,-3.468,-3.4197,-3.4197,-3.4197,-3.4197,-3.4197,-3.4197,-3.4197,-3.4197,-3.4197,-3.4197,-3.4197,-3.4197,-3.4197,-2.6498,-2.6729,-2.705,-2.7404,-2.8082,-2.8909,-2.9737,-3.0833,-3.2006,-3.3083,-3.3526,-3.391,-3.4507,-3.5757,-3.6981,-3.7853,-3.8719,-3.9573,-4.04,-4.0496,-4.0496,-4.0496,-4.0496,-4.0496,-4.0496,-4.0449,-4.0347,-4.0214,-4.0129,-3.9983,-3.9808,-3.9731,-3.9816,-4.0062,-4.0002,-4.0072,-4.0285,-4.0274,-4.0274,-4.0274,-4.0274,-4.0353,-4.0496,-4.0496,-4.0496,-4.0496,-4.0496,-4.0496,-4.0496,-4.0496,-4.0496,-4.0496,-4.0496,-4.0496,-4.0496,-4.0496,-4.0496,-4.0496,-4.0496,-4.0496,-4.0496,-4.0496,-4.0496,-4.0496,-4.0496,-4.0496,-4.0496,-4.0496,-4.0496,-4.0362,-3.9823,-3.9688,-3.9688,-3.9688,-3.9655,-3.9527,-3.9172,-3.9018,-3.9006,-3.9189,-3.917,-3.9101,-3.9101,-3.9101,-3.9101,-3.9101,-3.9101,-3.9101,-3.9101,-3.9101,-3.9101,-3.9101,-3.8599,-3.8284,-3.8284,-3.7541,-3.6835,-3.629,-3.5231,-3.4494,-3.4197,-3.4197,-3.4197,-3.4197,-3.4197,-3.4197,-3.4197,-3.4197,-3.4197,-3.4197,-3.4197,-3.4197,-2.6518,-2.7132,-2.7613,-2.6827,-2.8519,-3.0635,-3.1506,-3.1718,-3.2199,-3.3878,-3.4911,-3.55,-3.55,-3.6154,-3.6981,-3.7853,-3.8719,-3.9573,-4.04,-4.0496,-4.0496,-4.0496,-4.0496,-4.0496,-4.0496,-4.0313,-4.0205,-4.0196,-3.9943,-3.9797,-3.9797,-3.9609,-3.9585,-3.9797,-3.9597,-3.9597,-3.9797,-3.9808,-3.9808,-3.9808,-3.9808,-4.0034,-4.0489,-4.0489,-4.0489,-4.0489,-4.0489,-4.0489,-4.0489,-4.0496,-4.0496,-4.0496,-4.0496,-4.0496,-4.0496,-4.0496,-4.0496,-4.0496,-4.0496,-4.0496,-4.0496,-4.0496,-4.0496,-4.0496,-4.0496,-4.0496,-4.0496,-4.0496,-4.0496,-4.0496,-4.0496,-4.0496,-4.0496,-4.0477,-3.9881,-3.9461,-4.0031,-3.9326,-3.8764,-3.9363,-3.9266,-3.9082,-3.9082,-3.9082,-3.9101,-3.9101,-3.9101,-3.9101,-3.9101,-3.9101,-3.9101,-3.9101,-3.9101,-3.9101,-3.9101,-3.8377,-3.7912,-3.7894,-3.6402,-3.5138,-3.4253,-3.4197,-3.4197,-3.4197,-3.4197,-3.4197,-3.4197,-3.4197,-3.4197,-3.4197,-3.4197,-3.4197,-2.7251,-2.7599,-2.7882,-2.825,-2.9852,-3.1525,-3.2352,-3.2545,-3.3026,-3.4757,-3.5327,-3.55,-3.55,-3.6154,-3.6981,-3.7853,-3.8719,-3.9573,-4.04,-4.0496,-4.0496,-4.0496,-4.0496,-4.0449,-4.0304,-4.0242,-4.0061,-3.9724,-3.9632,-3.9501,-3.9313,-3.924,-3.9331,-3.9573,-3.9532,-3.9597,-3.9797,-3.9808,-3.9808,-3.9808,-3.9808,-3.9872,-4.0004,-4.0004,-4.0004,-4.0004,-4.0004,-4.0004,-4.0014,-4.0213,-4.0364,-4.0496,-4.0496,-4.0496,-4.0496,-4.0496,-4.0397,-4.0313,-4.0457,-4.0417,-4.0313,-4.0457,-4.0496,-4.0496,-4.0496,-4.0496,-4.0496,-4.0496,-4.0496,-4.0496,-4.0496,-4.0496,-4.0208,-3.9008,-3.8876,-3.8748,-3.7742,-3.7495,-3.7525,-3.7718,-3.8021,-3.8265,-3.8265,-3.8729,-3.9101,-3.9101,-3.9101,-3.9101,-3.9101,-3.9101,-3.9101,-3.9101,-3.9101,-3.9101,-3.9101,-3.8878,-3.8488,-3.7931,-3.7448,-3.6556,-3.5175,-3.4531,-3.4197,-3.4197,-3.4197,-3.4197,-3.4197,-3.4197,-3.4197,-3.4197,-3.4197,-3.4197,-2.6987,-2.7577,-2.8124,-2.9313,-3.0679,-3.2006,-3.3141,-3.368,-3.4231,-3.5288,-3.55,-3.55,-3.55,-3.5904,-3.65,-3.7353,-3.812,-3.8906,-3.9758,-4.0161,-4.0372,-4.0372,-4.0372,-4.033,-4.0214,-4.0031,-3.9802,-3.952,-3.9114,-3.8786,-3.8632,-3.8321,-3.8364,-3.8864,-3.8864,-3.9071,-3.9531,-3.9512,-3.9519,-3.9482,-3.9519,-3.9519,-3.9494,-3.9709,-3.9808,-3.9808,-3.9808,-3.9808,-3.9819,-3.9973,-4.012,-4.023,-4.0347,-4.0372,-4.0381,-4.0473,-4.0364,-4.0166,-3.9964,-3.9806,-3.965,-3.9446,-3.9442,-3.9515,-3.9515,-3.9515,-3.9592,-3.9938,-4.0015,-4.0092,-4.0419,-4.0265,-3.9765,-3.8757,-3.8527,-3.8238,-3.7148,-3.6776,-3.6701,-3.6941,-3.748,-3.7801,-3.7466,-3.8079,-3.8618,-3.8618,-3.8897,-3.9101,-3.9101,-3.9101,-3.9101,-3.9101,-3.9101,-3.9101,-3.9101,-3.9101,-3.8897,-3.8414,-3.8079,-3.7448,-3.6495,-3.5627,-3.5182,-3.5182,-3.5182,-3.5182,-3.5182,-3.5182,-3.5182,-3.5182,-3.5182,-3.5182,-2.6228,-2.7292,-2.8313,-3.0077,-3.1231,-3.2352,-3.3949,-3.493,-3.55,-3.55,-3.55,-3.55,-3.55,-3.5558,-3.5846,-3.6577,-3.7201,-3.7885,-3.8677,-3.9536,-4.009,-4.009,-4.0167,-4.0196,-4.0177,-3.9701,-3.9389,-3.9364,-3.8387,-3.7782,-3.7782,-3.7095,-3.7021,-3.7764,-3.7769,-3.8122,-3.8878,-3.8864,-3.8878,-3.8868,-3.8934,-3.8934,-3.8896,-3.9481,-3.9742,-3.9742,-3.9742,-3.9754,-3.9775,-3.9775,-3.9748,-3.9716,-3.9957,-4.0043,-4.0071,-4.0293,-4.0224,-3.9929,-3.9239,-3.8886,-3.864,-3.7931,-3.7846,-3.8007,-3.8007,-3.8007,-3.8161,-3.8957,-3.9188,-3.9361,-4.0073,-3.9727,-3.9169,-3.9092,-3.845,-3.7816,-3.7523,-3.6682,-3.6154,-3.6678,-3.7337,-3.7559,-3.6829,-3.7429,-3.7968,-3.7912,-3.8451,-3.8915,-3.8971,-3.899,-3.9027,-3.9082,-3.9101,-3.9101,-3.9101,-3.9101,-3.9101,-3.9101,-3.8414,-3.8005,-3.8005,-3.7169,-3.6699,-3.6699,-3.6699,-3.6699,-3.6699,-3.6699,-3.6699,-3.6699,-3.6699,-3.6699,-2.6891,-2.7717,-2.8467,-3.0833,-3.2545,-3.393,-3.4988,-3.5365,-3.55,-3.55,-3.55,-3.55,-3.55,-3.6019,-3.65,-3.6673,-3.7255,-3.7749,-3.794,-3.8713,-3.9257,-3.9257,-3.9813,-4.012,-3.9912,-3.9082,-3.8471,-3.8255,-3.745,-3.6946,-3.6946,-3.674,-3.6708,-3.6946,-3.6853,-3.6919,-3.714,-3.7086,-3.7378,-3.7983,-3.7992,-3.7978,-3.8015,-3.8853,-3.9253,-3.9253,-3.9253,-3.9383,-3.9549,-3.9549,-3.9282,-3.8862,-3.8933,-3.8943,-3.8973,-3.922,-3.907,-3.875,-3.8937,-3.8403,-3.7642,-3.7686,-3.7846,-3.8007,-3.8007,-3.8007,-3.8046,-3.8238,-3.8277,-3.8315,-3.8488,-3.8411,-3.8104,-3.743,-3.7123,-3.6752,-3.5919,-3.5426,-3.5143,-3.5125,-3.6111,-3.6891,-3.6736,-3.7894,-3.8618,-3.7986,-3.7503,-3.7429,-3.8079,-3.8154,-3.8395,-3.9027,-3.9101,-3.9101,-3.9101,-3.9101,-3.9101,-3.9101,-3.8934,-3.8841,-3.8841,-3.7448,-3.6699,-3.6699,-3.6699,-3.6699,-3.6699,-3.6699,-3.6699,-3.6699,-3.6699,-3.6699,-2.6628,-2.7846,-2.9085,-3.1635,-3.3564,-3.4949,-3.5404,-3.55,-3.55,-3.55,-3.55,-3.55,-3.55,-3.5846,-3.6135,-3.6135,-3.6589,-3.6929,-3.6929,-3.7566,-3.8029,-3.8029,-3.8409,-3.8612,-3.8474,-3.7894,-3.7455,-3.7291,-3.6536,-3.6059,-3.602,-3.5605,-3.5555,-3.602,-3.5954,-3.6125,-3.6554,-3.6513,-3.6694,-3.7081,-3.7105,-3.7147,-3.7193,-3.7682,-3.7922,-3.7949,-3.7949,-3.8024,-3.8203,-3.8582,-3.854,-3.8273,-3.8418,-3.8463,-3.8439,-3.8299,-3.7997,-3.7656,-3.7522,-3.7076,-3.6547,-3.6416,-3.6489,-3.6681,-3.6774,-3.6796,-3.6892,-3.7276,-3.768,-3.8104,-3.8507,-3.8315,-3.7988,-3.795,-3.7623,-3.704,-3.5996,-3.602,-3.6141,-3.5816,-3.6686,-3.7299,-3.6799,-3.7708,-3.8247,-3.7448,-3.7615,-3.7856,-3.7894,-3.8228,-3.8637,-3.9064,-3.9101,-3.9101,-3.9101,-3.9101,-3.9101,-3.9101,-3.9101,-3.9101,-3.9101,-3.8284,-3.7838,-3.7838,-3.7838,-3.7838,-3.7838,-3.7838,-3.7838,-3.7838,-3.7838,-3.7838,-2.5693,-2.7692,-2.9894,-3.2308,-3.4212,-3.55,-3.55,-3.55,-3.55,-3.55,-3.55,-3.55,-3.55,-3.55,-3.5493,-3.5446,-3.5696,-3.5883,-3.5843,-3.6387,-3.6795,-3.6784,-3.6915,-3.699,-3.6979,-3.6684,-3.6456,-3.639,-3.5618,-3.5129,-3.5082,-3.4386,-3.4317,-3.5045,-3.5037,-3.537,-3.6048,-3.6034,-3.6086,-3.6149,-3.6215,-3.6283,-3.635,-3.6202,-3.6348,-3.6699,-3.6699,-3.6779,-3.6946,-3.7634,-3.7894,-3.792,-3.8147,-3.8139,-3.7988,-3.7664,-3.7214,-3.6681,-3.6182,-3.5825,-3.5506,-3.5009,-3.4973,-3.5193,-3.5395,-3.5446,-3.558,-3.6301,-3.7123,-3.795,-3.8661,-3.843,-3.8142,-3.8719,-3.8527,-3.7932,-3.6865,-3.7194,-3.7565,-3.7092,-3.7669,-3.7991,-3.724,-3.7541,-3.7671,-3.7015,-3.7912,-3.8488,-3.7968,-3.8469,-3.8952,-3.9082,-3.9101,-3.9101,-3.9101,-3.9101,-3.9101,-3.9101,-3.9101,-3.9045,-3.8897,-3.9027,-3.9027,-3.8897,-3.9027,-3.9101,-3.9101,-3.9101,-3.9101,-3.9101,-3.9101,-3.9101,-2.4079,-2.7215,-3.0655,-3.2442,-3.4212,-3.55,-3.55,-3.55,-3.55,-3.55,-3.55,-3.55,-3.55,-3.55,-3.5439,-3.5266,-3.5141,-3.4992,-3.4827,-3.5472,-3.5938,-3.5893,-3.6535,-3.6979,-3.6921,-3.61,-3.5569,-3.5556,-3.4715,-3.4177,-3.4164,-3.4002,-3.3989,-3.4164,-3.4047,-3.4094,-3.4239,-3.4186,-3.4513,-3.5183,-3.5197,-3.5257,-3.5358,-3.4602,-3.5145,-3.6699,-3.6699,-3.7108,-3.7745,-3.7856,-3.7894,-3.7907,-3.7947,-3.7532,-3.7031,-3.7863,-3.7129,-3.5802,-3.6564,-3.5938,-3.4744,-3.4663,-3.4781,-3.4982,-3.5185,-3.5242,-3.5312,-3.558,-3.625,-3.6904,-3.7019,-3.7526,-3.7834,-3.7199,-3.8104,-3.8835,-3.7753,-3.7623,-3.7565,-3.7092,-3.7511,-3.8133,-3.8687,-3.8284,-3.7856,-3.7764,-3.7318,-3.7225,-3.7819,-3.7986,-3.8321,-3.9027,-3.9101,-3.9101,-3.9101,-3.9101,-3.9101,-3.9101,-3.9101,-3.8785,-3.8079,-3.8729,-3.8767,-3.8061,-3.8729,-3.9101,-3.9101,-3.9101,-3.9101,-3.9101,-3.9101,-3.9101,-2.539,-2.8071,-3.0657,-3.2449,-3.3833,-3.4911,-3.5385,-3.55,-3.55,-3.55,-3.5467,-3.5453,-3.5493,-3.55,-3.5432,-3.5234,-3.5037,-3.4831,-3.4572,-3.4719,-3.482,-3.476,-3.5088,-3.5311,-3.5287,-3.4884,-3.4609,-3.4552,-3.4181,-3.3921,-3.3881,-3.3855,-3.3873,-3.3881,-3.3815,-3.3802,-3.3842,-3.3802,-3.3972,-3.4325,-3.4325,-3.4366,-3.4465,-3.4079,-3.4404,-3.5261,-3.5762,-3.6196,-3.663,-3.7522,-3.7894,-3.7894,-3.7894,-3.7671,-3.7381,-3.7399,-3.6596,-3.556,-3.6,-3.5383,-3.4386,-3.4539,-3.4658,-3.4771,-3.4973,-3.5107,-3.5321,-3.5852,-3.6692,-3.7546,-3.8027,-3.843,-3.8738,-3.8815,-3.9065,-3.9281,-3.9276,-3.9279,-3.9131,-3.8656,-3.8577,-3.8674,-3.9045,-3.8804,-3.8414,-3.7968,-3.7968,-3.8005,-3.7912,-3.8284,-3.8711,-3.9064,-3.9101,-3.9101,-3.9101,-3.9101,-3.9101,-3.9101,-3.9101,-3.8934,-3.8581,-3.8915,-3.8711,-3.7912,-3.8692,-3.9101,-3.9101,-3.9101,-3.9101,-3.9101,-3.9101,-3.9101,-2.5945,-2.7965,-2.9584,-3.1674,-3.3153,-3.4293,-3.4986,-3.532,-3.5493,-3.546,-3.542,-3.5412,-3.5446,-3.5405,-3.5304,-3.5132,-3.4898,-3.4662,-3.4431,-3.4209,-3.4049,-3.3985,-3.3985,-3.3998,-3.3972,-3.3972,-3.3947,-3.3895,-3.3881,-3.3842,-3.3788,-3.3807,-3.3807,-3.3807,-3.3807,-3.3807,-3.3807,-3.3807,-3.3807,-3.3807,-3.3807,-3.3834,-3.3868,-3.3868,-3.4063,-3.4419,-3.5099,-3.5545,-3.5893,-3.7318,-3.8024,-3.8191,-3.8191,-3.8079,-3.7838,-3.7448,-3.6551,-3.5529,-3.5733,-3.5101,-3.4233,-3.442,-3.4495,-3.4539,-3.4771,-3.4936,-3.5235,-3.6079,-3.7092,-3.812,-3.8984,-3.94,-3.9708,-4.0092,-3.99,-3.9765,-4.0362,-4.0406,-4.0221,-3.9872,-3.9408,-3.9101,-3.9101,-3.9101,-3.8897,-3.8302,-3.8711,-3.8878,-3.8284,-3.8729,-3.9101,-3.9101,-3.9101,-3.9101,-3.9101,-3.9101,-3.9101,-3.9101,-3.9101,-3.9008,-3.8804,-3.899,-3.8711,-3.7912,-3.8488,-3.8804,-3.8804,-3.9008,-3.9101,-3.9101,-3.9101,-3.9101,-2.4023,-2.5607,-2.6948,-2.9584,-3.2098,-3.3953,-3.4131,-3.4864,-3.546,-3.535,-3.5364,-3.5379,-3.5323,-3.5144,-3.499,-3.4841,-3.4551,-3.4277,-3.413,-3.4049,-3.3985,-3.3908,-3.3959,-3.3972,-3.3908,-3.3908,-3.3895,-3.3895,-3.3829,-3.3788,-3.3807,-3.3807,-3.3807,-3.3807,-3.3807,-3.3807,-3.3807,-3.3807,-3.3807,-3.3807,-3.3807,-3.3788,-3.382,-3.382,-3.4288,-3.516,-3.5325,-3.5834,-3.6607,-3.7514,-3.8339,-3.9045,-3.9045,-3.8562,-3.7986,-3.8711,-3.7503,-3.5621,-3.6383,-3.5572,-3.4209,-3.4221,-3.4221,-3.4269,-3.4539,-3.4615,-3.4837,-3.5834,-3.69,-3.79,-3.8704,-3.9676,-4.0265,-3.9534,-3.9919,-4.0458,-4.0496,-4.0148,-3.9829,-3.9808,-3.9408,-3.9101,-3.9101,-3.9101,-3.9082,-3.9045,-3.9064,-3.9082,-3.9045,-3.9064,-3.9101,-3.9101,-3.9101,-3.9101,-3.9101,-3.9101,-3.9101,-3.9101,-3.9101,-3.8767,-3.7986,-3.8692,-3.8711,-3.7912,-3.7931,-3.7949,-3.7949,-3.8729,-3.9101,-3.9101,-3.9101,-3.9101,-2.2726,-2.4437,-2.6382,-2.8594,-3.0693,-3.2371,-3.2936,-3.4262,-3.5211,-3.4652,-3.4955,-3.5273,-3.5075,-3.5015,-3.4935,-3.4754,-3.4497,-3.4218,-3.3992,-3.3947,-3.3908,-3.3842,-3.3873,-3.3855,-3.3847,-3.3847,-3.3847,-3.3847,-3.3802,-3.3807,-3.3807,-3.3807,-3.3807,-3.3807,-3.3807,-3.3807,-3.3807,-3.3807,-3.3807,-3.3807,-3.3807,-3.3807,-3.3825,-3.4325,-3.4743,-3.5138,-3.6311,-3.7017,-3.7396,-3.7715,-3.8349,-3.9101,-3.9101,-3.8915,-3.8711,-3.899,-3.7894,-3.6309,-3.6606,-3.559,-3.4197,-3.4197,-3.4197,-3.4221,-3.4305,-3.4817,-3.5562,-3.644,-3.7453,-3.8498,-3.948,-3.9891,-4.0015,-3.9914,-4.0205,-4.0465,-4.033,-4.0033,-3.9754,-3.9625,-3.9331,-3.9101,-3.9101,-3.9101,-3.9287,-3.9844,-3.9454,-3.9305,-3.9863,-3.9454,-3.9101,-3.9101,-3.9101,-3.9101,-3.9101,-3.9101,-3.9101,-3.9101,-3.9101,-3.8971,-3.8674,-3.8952,-3.8711,-3.7912,-3.8414,-3.8674,-3.8674,-3.8432,-3.8599,-3.9101,-3.9101,-3.9101,-2.1908,-2.3587,-2.5686,-2.7566,-2.9177,-3.059,-3.1795,-3.3039,-3.3945,-3.3937,-3.438,-3.4764,-3.4756,-3.4745,-3.4704,-3.458,-3.4318,-3.4068,-3.3921,-3.3868,-3.3842,-3.382,-3.3807,-3.3807,-3.3807,-3.3807,-3.3807,-3.3807,-3.3807,-3.3807,-3.3807,-3.3807,-3.3807,-3.3807,-3.3807,-3.3807,-3.3807,-3.3807,-3.3807,-3.3807,-3.3807,-3.3807,-3.3825,-3.4637,-3.5169,-3.55,-3.6654,-3.7366,-3.7757,-3.8067,-3.8535,-3.9059,-3.9087,-3.9101,-3.9101,-3.9101,-3.8247,-3.7058,-3.6792,-3.5776,-3.4587,-3.429,-3.4197,-3.4253,-3.455,-3.5136,-3.5921,-3.6999,-3.7871,-3.8726,-3.9711,-3.988,-3.9861,-4.0139,-4.0232,-4.0221,-4.0091,-3.9932,-3.9731,-3.9544,-3.9285,-3.9101,-3.9101,-3.9101,-3.9305,-3.9881,-3.9472,-3.9305,-3.9881,-3.9454,-3.9101,-3.9101,-3.9101,-3.9101,-3.9101,-3.9101,-3.9101,-3.9101,-3.9101,-3.9101,-3.9101,-3.9101,-3.8841,-3.8302,-3.8562,-3.8822,-3.9101,-3.8562,-3.8581,-3.9101,-3.9101,-3.9101,0.0,0.0,0.0,-2.6405,-2.7549,-2.8762,-3.0682,-3.1164,-3.1653,-3.3201,-3.3552,-3.3762,-3.4344,-3.4307,-3.4184,-3.4269,-3.4011,-3.3815,-3.3881,-3.3829,-3.3807,-3.3807,-3.3807,-3.3807,-3.3807,-3.3807,-3.3807,-3.3807,-3.3807,-3.3807,-3.3807,-3.3807,-3.3807,-3.3807,-3.3807,-3.3807,-3.3807,-3.3807,-3.3807,-3.3807,-3.3807,-3.3807,-3.3862,-3.4674,-3.55,-3.634,-3.6358,-3.6842,-3.7702,-3.8603,-3.8974,-3.9007,-3.9073,-3.9101,-3.9101,-3.9101,-3.8581,-3.7782,-3.7015,-3.6216,-3.5398,-3.455,-3.4271,-3.442,-3.5287,-3.5547,-3.59,-3.7448,-3.8103,-3.85,-3.9295,-3.9637,-3.9861,-4.012,-3.9992,-3.9797,-3.9797,-3.9797,-3.972,-3.9532,-3.9272,-3.9101,-3.9101,-3.9101,-3.9101,-3.912,-3.9138,-3.9138,-3.9138,-3.9138,-3.912,-3.9101,-3.9101,-3.9101,-3.9101,-3.9101,-3.9101,-3.9101,-3.9101,-3.9101,-3.9101,-3.9101,-3.9101,-3.9101,-3.8321,-3.8321,-3.9101,-3.9045,-3.9045,-3.9064,-3.9064,-3.9082,-2.1721,0.0,0.0,0.0,0.0,0.0,-2.869,-2.9125,-2.9736,-3.1318,-3.1204,-3.1346,-3.3094,-3.3383,-3.3481,-3.3867,-3.3855,-3.382,-3.3834,-3.3802,-3.3807,-3.3807,-3.3807,-3.3807,-3.3807,-3.3807,-3.3807,-3.3807,-3.3807,-3.3807,-3.3807,-3.3807,-3.3807,-3.3807,-3.3807,-3.3807,-3.3807,-3.3807,-3.3807,-3.3807,-3.3807,-3.41,-3.4692,-3.555,-3.6395,-3.7199,-3.7771,-3.8172,-3.8386,-3.8147,-3.8432,-3.9007,-3.9073,-3.9101,-3.9101,-3.9101,-3.8581,-3.7856,-3.7652,-3.7052,-3.6328,-3.6086,-3.5999,-3.6049,-3.6278,-3.6773,-3.7318,-3.7764,-3.837,-3.8926,-3.9149,-3.9507,-3.9775,-3.9713,-3.975,-3.9754,-3.9621,-3.9573,-3.9501,-3.9259,-3.9137,-3.9101,-3.9101,-3.9101,-3.9305,-3.9937,-4.003,-4.003,-4.003,-4.003,-3.9788,-3.9175,-3.9101,-3.9101,-3.9101,-3.9101,-3.9101,-3.9101,-3.9101,-3.9101,-3.9101,-3.9101,-3.9101,-3.9101,-3.8878,-3.8878,-3.9101,-3.7931,-3.7652,-3.8228,-3.8228,-3.8544,-2.2391,-2.3483,-2.4695,-2.4695,0.0,0.0,-2.7408,-2.7456,-2.7883,-2.9822,-2.986,-3.01,-3.1987,-3.2329,-3.2435,-3.275,-3.3073,-3.3421,-3.3752,-3.3807,-3.3807,-3.3807,-3.3807,-3.3807,-3.3807,-3.3807,-3.3807,-3.3807,-3.3807,-3.3807,-3.3807,-3.3807,-3.3807,-3.3807,-3.3807,-3.3807,-3.3807,-3.3807,-3.3807,-3.3807,-3.3807,-3.4045,-3.4546,-3.5752,-3.656,-3.707,-3.8193,-3.8707,-3.867,-3.8309,-3.8456,-3.8939,-3.9021,-3.9064,-3.9059,-3.9087,-3.8804,-3.8339,-3.8024,-3.7578,-3.7151,-3.6798,-3.6699,-3.6773,-3.7108,-3.7522,-3.7968,-3.8302,-3.8729,-3.9101,-3.9101,-3.93,-3.9507,-3.9495,-3.9501,-3.9507,-3.9495,-3.9414,-3.9285,-3.9142,-3.9101,-3.9101,-3.9101,-3.9101,-3.9268,-3.977,-3.9863,-3.9863,-3.9863,-3.9863,-3.9658,-3.9157,-3.9101,-3.9101,-3.9101,-3.9101,-3.9101,-3.9101,-3.9101,-3.9101,-3.9101,-3.9101,-3.9101,-3.9101,-3.9101,-3.8934,-3.8599,-3.7986,-3.7764,-3.7894,-3.7894,-3.8154,-2.3575,-2.4447,-2.5521,-2.5521,-2.5521,0.0,-2.6655,-2.6182,-2.621,-2.8641,-2.8984,-2.9365,-3.0974,-3.1268,-3.1305,-3.1397,-3.2008,-3.2761,-3.355,-3.3733,-3.3807,-3.3807,-3.3807,-3.3807,-3.3807,-3.3807,-3.3807,-3.3807,-3.3807,-3.3807,-3.3807,-3.3807,-3.3807,-3.3807,-3.3807,-3.3807,-3.3807,-3.3807,-3.3807,-3.3807,-3.3807,-3.3844,-3.399,-3.5569,-3.634,-3.6523,-3.8046,-3.8707,-3.8707,-3.8762,-3.8792,-3.8822,-3.8954,-3.9011,-3.8993,-3.9059,-3.9087,-3.8994,-3.827,-3.8042,-3.7912,-3.7188,-3.6965,-3.7108,-3.7819,-3.8024,-3.8172,-3.8897,-3.9101,-3.9101,-3.9101,-3.9101,-3.917,-3.9401,-3.9272,-3.917,-3.9395,-3.9272,-3.9101,-3.9101,-3.9101,-3.9101,-3.9101,-3.9101,-3.9101,-3.9101,-3.9175,-3.9212,-3.9101,-3.9175,-3.9212,-3.9101,-3.9101,-3.9101,-3.9101,-3.9101,-3.9101,-3.9101,-3.9101,-3.9101,-3.9101,-3.9101,-3.9101,-3.9101,-3.9101,-3.8748,-3.8024,-3.8655,-3.8599,-3.7894,-3.7894,-3.7949,-2.5768,-2.6135,-2.6374,-2.6374,-2.6374,0.0,-2.662,-2.5544,-2.5186,-2.7606,-2.7064,-2.7043,-2.9909,-3.043,-3.065,-3.1286,-3.1525,-3.1916,-3.2711,-3.3385,-3.3807,-3.3807,-3.3807,-3.3807,-3.3807,-3.3807,-3.3807,-3.3807,-3.3807,-3.3807,-3.3807,-3.3807,-3.3807,-3.3807,-3.3807,-3.3807,-3.3807,-3.3807,-3.3807,-3.3807,-3.3807,-3.4137,-3.4802,-3.5826,-3.6652,-3.7327,-3.8285,-3.8707,-3.8707,-3.8704,-3.875,-3.8822,-3.8954,-3.8983,-3.8939,-3.8993,-3.9021,-3.9003,-3.8836,-3.8823,-3.8841,-3.8674,-3.8618,-3.8655,-3.8822,-3.8859,-3.8897,-3.9064,-3.9101,-3.9101,-3.9101,-3.9101,-3.9115,-3.917,-3.9142,-3.9115,-3.917,-3.9142,-3.9101,-3.9101,-3.9101,-3.9101,-3.9101,-3.9101,-3.9101,-3.9101,-3.9695,-3.9881,-3.9194,-3.9714,-3.9881,-3.9175,-3.9101,-3.9101,-3.9101,-3.9101,-3.9101,-3.9101,-3.9101,-3.9101,-3.9101,-3.9101,-3.9101,-3.9101,-3.9101,-3.9027,-3.8859,-3.8377,-3.8042,-3.7894,-3.7894,-3.8247,-2.6722,-2.6888,-2.7108,-2.6704,-2.6906,0.0,0.0,-2.5676,-2.5374,-2.7394,-2.6513,-2.6146,-2.8558,-2.8998,-2.9145,-2.9542,-3.0277,-3.0797,-3.0803,-3.2179,-3.3201,-3.3201,-3.3568,-3.3807,-3.3807,-3.3807,-3.3807,-3.3807,-3.3807,-3.3807,-3.3807,-3.3807,-3.3807,-3.3807,-3.3807,-3.3807,-3.3807,-3.3807,-3.3807,-3.3807,-3.3807,-3.4009,-3.4435,-3.5716,-3.6505,-3.6978,-3.8175,-3.8707,-3.8707,-3.8707,-3.8719,-3.8765,-3.8866,-3.8881,-3.8866,-3.8939,-3.8964,-3.8993,-3.8993,-3.9031,-3.9101,-3.9101,-3.9101,-3.9101,-3.9101,-3.9101,-3.9101,-3.9101,-3.9101,-3.9101,-3.9101,-3.9101,-3.9101,-3.9101,-3.9101,-3.9101,-3.9101,-3.9101,-3.9101,-3.9101,-3.9101,-3.9101,-3.9101,-3.9101,-3.9101,-3.9101,-3.9472,-3.9584,-3.9157,-3.9472,-3.9584,-3.9138,-3.9101,-3.9101,-3.9101,-3.9101,-3.9101,-3.9101,-3.9101,-3.9101,-3.9101,-3.9101,-3.9101,-3.9101,-3.9101,-3.9101,-3.9101,-3.8692,-3.8284,-3.7894,-3.7894,-3.8116,-2.7879,-2.8007,-2.8301,-2.7493,-2.7787,-2.8007,0.0,0.0,0.0,-2.7541,-2.677,-2.6311,-2.775,-2.7897,-2.7798,-2.7798,-2.8888,-2.9457,-2.8656,-3.062,-3.2142,-3.2142,-3.2852,-3.333,-3.333,-3.3201,-3.3238,-3.355,-3.3421,-3.3476,-3.377,-3.3807,-3.3807,-3.3807,-3.3807,-3.3807,-3.3807,-3.3807,-3.3807,-3.3807,-3.3807,-3.3807,-3.3862,-3.5532,-3.6303,-3.6376,-3.801,-3.8707,-3.8707,-3.8707,-3.8707,-3.8707,-3.8777,-3.8792,-3.8792,-3.8866,-3.8921,-3.8979,-3.8979,-3.9036,-3.9101,-3.9101,-3.9101,-3.9101,-3.9101,-3.9101,-3.9101,-3.9101,-3.9101,-3.9101,-3.9101,-3.9101,-3.9101,-3.9101,-3.9101,-3.9101,-3.9101,-3.9101,-3.9101,-3.9101,-3.9101,-3.9101,-3.9101,-3.9101,-3.9101,-3.9101,-3.9101,-3.9101,-3.9101,-3.9101,-3.9101,-3.9101,-3.9101,-3.9101,-3.9101,-3.9101,-3.9101,-3.9101,-3.9101,-3.9101,-3.9101,-3.9101,-3.9101,-3.9101,-3.9101,-3.9101,-3.9101,-3.9101,-3.8767,-3.8135,-3.8135,-3.8135,-3.0889,-3.0919,-3.0809,-2.9989,-2.9861,-2.9531,-2.8007,0.0,-2.7578,-2.775,0.0,-2.7805,-2.8693,0.0,0.0,-2.7798,-2.7952,-2.7787,-2.6998,-2.8962,-3.0467,-3.0467,-3.1182,-3.1672,-3.1672,-3.1035,-3.1201,-3.2619,-3.2082,-3.2302,-3.3715,-3.3807,-3.3807,-3.3807,-3.3807,-3.3807,-3.3807,-3.3807,-3.3807,-3.3807,-3.3807,-3.3807,-3.3862,-3.5532,-3.6303,-3.6376,-3.801,-3.8707,-3.8707,-3.8707,-3.8707,-3.8707,-3.8777,-3.8747,-3.8719,-3.8792,-3.8848,-3.8925,-3.8925,-3.8974,-3.9101,-3.9101,-3.9101,-3.9101,-3.9101,-3.9101,-3.9101,-3.9101,-3.9101,-3.9101,-3.9101,-3.9101,-3.9101,-3.9101,-3.9101,-3.9101,-3.9101,-3.9101,-3.9101,-3.9101,-3.9101,-3.9101,-3.9101,-3.9101,-3.9101,-3.9101,-3.9101,-3.9101,-3.9101,-3.9101,-3.9101,-3.9101,-3.9101,-3.9101,-3.9101,-3.9101,-3.9101,-3.9101,-3.9101,-3.9101,-3.9101,-3.9101,-3.9101,-3.9101,-3.9101,-3.9101,-3.9101,-3.9101,-3.9045,-3.8952,-3.8952,-3.8952,-3.1397,-3.1397,-3.1213,-3.0393,-3.021,-2.9898,-2.876,-2.8136,-2.7934,-2.8411,0.0,0.0,0.0,0.0,0.0,0.0,-2.7108,-2.6814,-2.6017,-2.7181,-2.8282,-2.8741,-3.035,-3.1397,-3.1397,-3.0668,-3.0668,-3.1825,-3.1586,-3.1898,-3.3036,-3.355,-3.3807,-3.3807,-3.3807,-3.3807,-3.3807,-3.3807,-3.3807,-3.3807,-3.3807,-3.3807,-3.3862,-3.5532,-3.6303,-3.6376,-3.801,-3.8707,-3.8707,-3.8707,-3.8707,-3.8707,-3.8719,-3.8719,-3.8707,-3.8735,-3.8777,-3.8833,-3.8833,-3.8921,-3.905,-3.9087,-3.9101,-3.9101,-3.9101,-3.9101,-3.9101,-3.9101,-3.9101,-3.9101,-3.9101,-3.9101,-3.9101,-3.9101,-3.9101,-3.9101,-3.9101,-3.9101,-3.9101,-3.9101,-3.9101,-3.9101,-3.9101,-3.9101,-3.9101,-3.9101,-3.9101,-3.9101,-3.9101,-3.9101,-3.9101,-3.9101,-3.9101,-3.9101,-3.9101,-3.9101,-3.9101,-3.9101,-3.9101,-3.9101,-3.9101,-3.9101,-3.9101,-3.9101,-3.9101,-3.9101,-3.9101,-3.9101,-3.9101,-3.9101,-3.9101,-3.9101,-3.1397,-3.1549,-3.1476,-3.0467,-3.0375,-3.0265,-2.9225,-2.8723,-2.8558,-2.8932,-2.8253,0.0,0.0,0.0,0.0,0.0,0.0,-2.6319,-2.5503,-2.608,-2.6814,-2.7402,-2.9212,-3.0332,-3.0111,-2.9567,-2.9641,-3.0668,-3.0742,-3.1292,-3.2528,-3.3146,-3.3568,-3.3788,-3.3807,-3.3807,-3.3807,-3.3807,-3.3807,-3.3807,-3.3807,-3.3807,-3.3862,-3.5532,-3.6303,-3.6376,-3.801,-3.8707,-3.8707,-3.8707,-3.8707,-3.8707,-3.8707,-3.8707,-3.8707,-3.8707,-3.875,-3.8807,-3.8807,-3.8896,-3.9007,-3.9073,-3.9101,-3.9101,-3.9101,-3.9101,-3.9101,-3.9101,-3.9101,-3.9101,-3.9101,-3.9101,-3.9101,-3.9101,-3.9101,-3.9101,-3.9101,-3.9101,-3.9101,-3.9101,-3.9101,-3.9101,-3.9101,-3.9101,-3.9101,-3.9101,-3.9101,-3.9101,-3.9101,-3.9101,-3.9101,-3.9101,-3.9101,-3.9101,-3.9101,-3.9101,-3.9101,-3.9101,-3.9101,-3.9087,-3.9073,-3.9087,-3.9087,-3.9073,-3.9087,-3.9101,-3.9101,-3.9101,-3.9101,-3.9101,-3.9101,-3.9101,-3.1397,-3.1971,-3.2179,-3.0595,-3.0797,-3.0944,-2.9354,-2.9574,-2.9916,-2.9152,-2.9574,-2.9861,-2.9097,-2.8301,0.0,0.0,0.0,0.0,0.0,-2.608,-2.6602,-2.6649,-2.7383,-2.7603,-2.6833,-2.673,-2.7372,-2.8968,-2.9078,-3.0106,-3.2472,-3.2619,-3.2999,-3.377,-3.3807,-3.3807,-3.3807,-3.3807,-3.3807,-3.3807,-3.3807,-3.3807,-3.3862,-3.5532,-3.6303,-3.6376,-3.801,-3.8707,-3.8707,-3.8707,-3.8707,-3.8707,-3.8707,-3.8707,-3.8707,-3.8707,-3.875,-3.8807,-3.8807,-3.8896,-3.9007,-3.9073,-3.9101,-3.9101,-3.9101,-3.9101,-3.9101,-3.9101,-3.9101,-3.9101,-3.9101,-3.9101,-3.9101,-3.9101,-3.9101,-3.9101,-3.9101,-3.9101,-3.9101,-3.9101,-3.9101,-3.9101,-3.9101,-3.9101,-3.9101,-3.9101,-3.9101,-3.9101,-3.9101,-3.9101,-3.9101,-3.9101,-3.9101,-3.9101,-3.9101,-3.9101,-3.9101,-3.9101,-3.9101,-3.9059,-3.9011,-3.9078,-3.9059,-3.8993,-3.9059,-3.9101,-3.9101,-3.9101,-3.9101,-3.9101,-3.9101,-3.9101,-3.2045,-3.2779,-3.3146,-3.2051,-3.1586,-3.1109,-3.0044,-3.0008,-2.9971,-2.917,-2.9629,-2.9941,-2.9152,-2.8338,0.0,0.0,0.0,0.0,0.0,-2.5631,-2.5815,-2.5815,-2.6054,-2.6531,-2.731,-2.6439,-2.6465,-2.8081,-2.8209,-2.9035,-3.0913,-3.2014,-3.2711,-3.2999,-3.3532,-3.3807,-3.3807,-3.3807,-3.3807,-3.3807,-3.3807,-3.3807,-3.3862,-3.5532,-3.6303,-3.6376,-3.801,-3.8707,-3.8707,-3.8707,-3.8707,-3.8707,-3.8707,-3.8707,-3.8707,-3.8707,-3.8704,-3.875,-3.8837,-3.891,-3.895,-3.9059,-3.9101,-3.9101,-3.9101,-3.9101,-3.9101,-3.9101,-3.9101,-3.9101,-3.9101,-3.9101,-3.9101,-3.9101,-3.9101,-3.9101,-3.9101,-3.9101,-3.9101,-3.9101,-3.9101,-3.9101,-3.9101,-3.9101,-3.9101,-3.9101,-3.9101,-3.9101,-3.9101,-3.9101,-3.9101,-3.9101,-3.9101,-3.9101,-3.9101,-3.9045,-3.9036,-3.9036,-3.8993,-3.8964,-3.8921,-3.895,-3.895,-3.8921,-3.895,-3.8993,-3.9036,-3.9036,-3.9064,-3.9101,-3.9101,-3.9101,-3.2027,-3.2761,-3.3183,-3.2375,-3.2008,-3.1531,-3.0448,-3.0411,-3.0393,-2.9592,-2.9831,-3.0136,-2.9898,-2.8962,0.0,0.0,0.0,0.0,0.0,-2.565,-2.5833,-2.5833,-2.5833,-2.6227,-2.7273,-2.6182,-2.6072,-2.7688,-2.753,-2.8191,-3.0099,-3.1458,-3.2289,-3.2583,-3.3385,-3.3807,-3.3807,-3.3807,-3.3807,-3.3807,-3.3807,-3.3954,-3.4284,-3.5661,-3.645,-3.6813,-3.8138,-3.8707,-3.8707,-3.8707,-3.8707,-3.8707,-3.8707,-3.8707,-3.8707,-3.8707,-3.8707,-3.8723,-3.8851,-3.891,-3.8921,-3.9059,-3.9101,-3.9101,-3.9101,-3.9101,-3.9101,-3.9101,-3.9101,-3.9101,-3.9101,-3.9101,-3.9101,-3.9101,-3.9101,-3.9101,-3.9101,-3.9101,-3.9101,-3.9101,-3.9101,-3.9101,-3.9101,-3.9101,-3.9101,-3.9101,-3.9101,-3.9101,-3.9101,-3.9101,-3.9101,-3.9101,-3.9101,-3.9087,-3.9059,-3.9021,-3.8979,-3.8983,-3.8921,-3.8896,-3.8881,-3.8896,-3.8896,-3.8848,-3.8896,-3.8925,-3.895,-3.8979,-3.9007,-3.9031,-3.9073,-3.9087]},{"header":{"parameterUnit":"m.s-1","parameterCategory":1,"la1":30.6,"la2":29.2853,"lo1":-89.7004,"lo2":-87.6739,"dy":0.0162,"dx":0.0183,"nx":112,"ny":82,"refTime":"2026-04-13T00:00:00:Z","depth":0,"parameterNumber":3,"parameterNumberName":"V-component_of_WINDS"},"data":[0.0,0.0,0.0,0.0,0.0,0.0,0.0,0.0,0.0,0.0,0.0,0.0,0.0,0.0,0.0,0.0,0.0,0.0,0.0,0.0,0.0,0.0,0.0,0.0,0.0,0.0,0.0,0.0,0.0,0.0,0.0,0.0,0.0,0.0,0.0,0.0,0.0,0.0,0.0,0.0,0.0,0.0,0.0,0.0,0.0,0.0,0.0,0.0,0.0,0.0,0.0,0.0,0.0,0.0,0.0,0.0,0.0,0.0,0.0,0.0,0.0,0.0,0.0,0.0,0.0,0.0,0.0,0.0,0.0,0.0,0.0,0.0,0.0,0.0,0.0,0.0,0.0,0.0,0.0,0.0,0.0,0.0,0.0,0.0,0.0,0.0,0.0,0.0,0.0,0.0,0.0907,0.0925,0.1028,0.1066,0.101,0.1,0.104,0.1164,0.0,0.0,0.0,0.0,0.0,0.0,0.0,0.0,0.0,0.0,0.0,0.0,0.0,0.0,0.0,0.0,0.0,0.0,0.0,0.0,0.0,0.0,0.0,0.0,0.0,0.0,0.0,0.0,0.0,0.0,0.0,0.0,0.0,0.0,0.0,0.0,0.0,0.0,0.0,0.0,0.0,0.0,0.0,0.0,0.0,0.0,0.0,0.0,0.0,0.0,0.0,0.0,0.0,0.0,0.0,0.0,0.0,0.0,0.0,0.0,0.0,0.0,0.0,0.0,0.0,0.0,0.0,0.0,0.0,0.0,0.0,0.0,0.0,0.0,0.0,0.0,0.0,0.0,0.0,0.0,0.0,0.0,0.0,0.0,0.0,0.0,0.0,0.0,0.0,0.0,0.0,0.0,0.0,0.0,0.0,0.0,0.0,0.0,0.0,0.0,0.0,0.0,0.0,0.0,0.0933,0.0977,0.1053,0.1107,0.1069,0.1024,0.1025,0.1119,0.0,0.0,0.0,0.0,0.0,0.0,0.0,0.0,0.0,0.0,0.0,0.0,0.0,0.0,0.0,0.0,0.0,0.0,0.0,0.0,0.0,0.0,0.0,0.0,0.0,0.0,0.0,0.0,0.0,0.0,0.0,0.0,0.0,0.0,0.0,0.0,0.0,0.0,0.0,0.0,0.0,0.0,0.0,0.0,0.0,0.0,0.0,0.0,0.0,0.0,0.0,0.0,0.0,0.0,0.0,0.0,0.0,0.0,0.0,0.0,0.0,0.0,0.0,0.0,0.0,0.0,0.0,0.0,0.0,0.0,0.0,0.0,0.0,0.0,0.0,0.0,0.0,0.0,0.0,0.0,0.0,0.0,0.0,0.0,0.0,0.0,0.0,0.0,0.0,0.0,0.0,0.0,0.0,0.0,0.0,0.0,0.0,0.0,0.0,0.0,0.0,0.0,0.0,0.0895,0.0941,0.1045,0.1068,0.1109,0.1109,0.1037,0.1041,0.11,0.1086,0.0,0.0,0.0,0.0,0.0,0.0,0.0,0.0,0.0,0.0,0.0,0.0,0.0,0.0,0.0,0.0,0.0,0.0,0.0,0.0,0.0,0.0,0.0,0.0,0.0,0.0,0.0,0.0,0.0,0.0,0.0,0.0,0.0,0.0,0.0,0.0,0.0,0.0,0.0,0.0,0.0,0.0,0.0,0.0,0.0,0.0,0.0,0.0,0.0,0.0,0.0,0.0,0.0,0.0,0.0,0.0,0.0,0.0,0.0,0.0,0.0,0.0,0.0,0.0,0.0,0.0,0.0,0.0,0.0,0.0,0.0,0.0,0.0,0.0,0.0,0.0,0.0,0.0,0.0,0.0,0.0,0.0,0.0,0.0,0.0,0.0,0.0,0.0,0.0,0.0,0.0,0.0,0.0,0.0,0.0,0.0,0.0,0.0,0.0,0.0,0.0,0.0,0.0935,0.0961,0.1101,0.1109,0.1109,0.1109,0.1037,0.101,0.1043,0.1016,0.0,0.0,0.0,0.0,0.0,0.0,0.0,0.0,0.0,0.0,0.0,0.0,0.0,0.0,0.0,0.0,0.0,0.0,0.0,0.0,0.0,0.0,0.0,0.0,0.0,0.0,0.0,0.0,0.0,0.0,0.0,0.0,0.0,0.0,0.0,0.0,0.0,0.0,0.0,0.0,0.0,0.0,0.0,0.0,0.0,0.0,0.0,0.0,0.0,0.0,0.0,0.0,0.0,0.0,0.0,0.0,0.0,0.0,0.0,0.0,0.0,0.0,0.0,0.0,0.0,0.0,0.0,0.0,0.0,0.0,0.0,0.0,0.0,0.0,0.0,0.0,0.0,0.0,0.0,0.0,0.0,0.0,0.0,0.0,0.0,0.0,0.0,0.0,0.0,0.0,0.0,0.0,0.0,0.0,0.0,0.0,0.0,0.0,0.0,0.0,0.0,0.0,0.0946,0.1007,0.1106,0.1109,0.1109,0.1109,0.0967,0.0905,0.0928,0.0918,0.0,0.0,0.0,0.0,0.0,0.0,0.0,0.0,0.0,0.0,0.0,0.0,0.0,0.0,0.0,0.0,0.0,0.0,0.0,0.0,0.0,0.0,0.0,0.0,0.0,0.0,0.0,0.0,0.0,0.0,0.0,0.0,0.0,0.0,0.0,0.0,0.0,0.0,0.0,0.0,0.0,0.0,0.0,0.0,0.0,0.0,0.0,0.0,0.0,0.0,0.0,0.0,0.0,0.0,0.0,0.0,0.0,0.0,0.0,0.0,0.0,0.0,0.0,0.0,0.0,0.0,0.0,0.0,0.0,0.0,0.0,0.0,0.0,0.0,0.0,0.0,0.0,0.0,0.0,0.0,0.0,0.0,0.0,0.0,0.0,0.0,0.0,0.0,0.0,0.0,0.0,0.0,0.0,0.0,0.0,0.0,0.0,0.0,0.0,0.0,0.0,0.0,0.096,0.1024,0.1104,0.1109,0.1109,0.1109,0.1029,0.094,0.0902,0.0,0.0,0.0,0.0,0.0,0.0,0.0,0.0,0.0,0.0,0.0,0.0,0.0,0.0,0.0,0.0,0.0,0.0,0.0,0.0,0.0,0.0,0.0,0.0,0.0,0.0,0.0,0.0,0.0,0.0,0.0,0.0,0.0,0.0,0.0,0.0,0.0,0.0,0.0,0.0,0.0,0.0,0.0,0.0,0.0,0.0,0.0,0.0,0.0,0.0,0.0,0.0,0.0,0.0,0.0,0.0,0.0,0.0,0.0,0.0,0.0,0.0,0.0,0.0,0.0,0.0,0.0,0.0,0.0,0.0,0.0,0.0,0.0,0.0,0.0,0.0,0.0,0.0,0.0,0.0,0.0,0.0,0.0,0.0,0.0,0.0,0.0,0.0,0.0,0.0,0.0,0.0,0.0,0.0,0.0,0.0,0.0,0.0,0.0,0.0,0.0,0.0,0.0892,0.0967,0.1064,0.1105,0.1109,0.1106,0.1063,0.0995,0.094,0.0916,0.0,0.0,0.0,0.0,0.0,0.0,0.0,0.0,0.0,0.0,0.0,0.0,0.0,0.0,0.0,0.0,0.0,0.0,0.0,0.0,0.0,0.0,0.0,0.0,0.0,0.0,0.0,0.0,0.0,0.0,0.0,0.0,0.0,0.0,0.0,0.0,0.0,0.0,0.0,0.0,0.0,0.0,0.0,0.0,0.0,0.0,0.0,0.0,0.0,0.0,0.0,0.0,0.0,0.0,0.0,0.0,0.0,0.0,0.0,0.0,0.0,0.0,0.0,0.0,0.0,0.0,0.0,0.0,0.0,0.0,0.0,0.0,0.0,0.0,0.0,0.0,0.0,0.0,0.0,0.0,0.0,0.0,0.0,0.0,0.0,0.0,0.0,0.0,0.0,0.0,0.0,0.0,0.0,0.0,0.0,0.0,0.0,0.0,0.0,0.0,0.0,0.0,0.0898,0.1001,0.1109,0.1109,0.1109,0.1064,0.1004,0.0948,0.0889,0.0,0.0,0.0,0.0,0.0,0.0,0.0,0.0,0.0,0.0,0.0,0.0,0.0,0.0,0.0,0.0,0.0,0.0,0.0,0.0,0.0,0.0,0.0,0.0,0.0,0.0,0.0,0.0,0.0,0.0,0.0,0.0,0.0,0.0,0.0,0.0,0.0,0.0,0.0,0.0,0.0,0.0,0.0,0.0,0.0,0.0,0.0,0.0,0.0,0.0,0.0,0.0,0.0,0.0,0.0,0.0,0.0,0.0,0.0,0.0,0.0,0.0,0.0,0.0,0.0,0.0,0.0,0.0,0.0,0.0,0.0,0.0,0.0,0.0,0.0,0.0,0.0,0.0,0.0,0.0,0.0,0.0,0.0,0.0,0.0,0.0,0.0,0.0,0.0,0.0,0.0,0.0,0.0,0.0,0.0,0.0,0.0,0.0,0.0,0.0,0.0,0.0,0.0,0.0895,0.0967,0.1054,0.1107,0.1109,0.1064,0.1004,0.0967,0.094,0.0911,0.0,0.0,0.0,0.0,0.0,0.0,0.0,0.0,0.0,0.0,0.0,0.0,0.0,0.0,0.0,0.0,0.0,0.0,0.0,0.0,0.0,0.0,0.0,0.0,0.0,0.0,0.0,0.0,0.0,0.0,0.0,0.0,0.0,0.0,0.0,0.0,0.0,0.0,0.0,0.0,0.0,0.0,0.0,0.0,0.0,0.0,0.0,0.0,0.0,0.0,0.0,0.0,0.0,0.0,0.0,0.0,0.0,0.0,0.0,0.0,0.0,0.0,0.0,0.0,0.0,0.0,0.0,0.0,0.0,0.0,0.0,0.0,0.0,0.0,0.0,0.0,0.0,0.0,0.0,0.0,0.0,0.0,0.0,0.0,0.0,0.0,0.0,0.0,0.0,0.0,0.0,0.0,0.0,0.0,0.0,0.0,0.0,0.0,0.0,0.0,0.0,0.0,0.1316,0.1381,0.1452,0.1508,0.1511,0.1356,0.1019,0.0999,0.0974,0.0867,0.0,0.0,0.0,0.0,0.0,0.0,0.0,0.0,0.0,0.0,0.0,0.0,0.0,0.0,0.0,0.0,0.0,0.0,0.0,0.0,0.0,0.0,0.0,0.0,0.0,0.0,0.0,0.0,0.0,0.0,0.0,0.0,0.0,0.0,0.0,0.0,0.0,0.0,0.0,0.0,0.0,0.0,0.0,0.0,0.0,0.0,0.0,0.0,0.0,0.0,0.0,0.0,0.0,0.0,0.0,0.0,0.0,0.0,0.0,0.0,0.0,0.0,0.0,0.0,0.0,0.0,0.0,0.0,0.0,0.0,0.0,0.0,0.0,0.0,0.0,0.0,0.0,0.0,0.0,0.0,0.0,0.0,0.0,0.0,0.0,0.0,0.0,0.0,0.0,0.0,0.0,0.0,0.0,0.0,0.0,0.0,0.0,0.0,0.0,0.0,0.0,0.0,0.1909,0.2125,0.2202,0.2211,0.2175,0.1898,0.124,0.117,0.1108,0.0966,0.0,0.0,0.0,0.0,0.0,0.0,0.0,0.0,0.0,0.0,0.0,0.0,0.0,0.0,0.0,0.0,0.0,0.0,0.0,0.0,0.0,0.0,0.0,0.0,0.0,0.0,0.0,0.0,0.0,0.0,0.0,0.0,0.0,0.0,0.0,0.0,0.0,0.0,0.0,0.0,0.0,0.0,0.0,0.0,0.0,0.0,0.0,0.0,0.0,0.0,0.0,0.0,0.0,0.0,0.0,0.0,0.0,0.0,0.0,0.0,0.055,0.0722,0.0,0.0,0.0,0.0,0.0,0.0,0.0,0.0,0.0,0.0,0.0,0.0,0.0,0.0,0.0,0.0,0.0,0.0,0.0,0.0,0.0,0.0,0.0,0.0,0.0,0.0,0.0,0.0,0.0,0.0,0.0,0.0,0.0,0.0,0.0,0.0,0.0,0.0,0.0,0.0,0.2017,0.2511,0.284,0.2969,0.2861,0.2753,0.2593,0.2437,0.2271,0.208,0.1911,0.0,0.0,0.0,0.0,0.0,0.0,0.0,0.0,0.0,0.0,0.0,0.0,0.0,0.0,0.0,0.0,0.0,0.0,0.0,0.0,0.0,0.0,0.0,0.0,0.0,0.0,0.0,0.0,0.0,0.0,0.0,0.0,0.0,0.0,0.0,0.0,0.0,0.0,0.0,0.0,0.0,0.0,0.0,0.0,0.0,0.0,0.0,0.0,0.0,0.0,0.0,0.0,0.0,0.0,0.0,0.0,0.0,0.0,0.0,0.0485,0.0571,0.0,0.0,0.0,0.0,0.0,0.0,0.0,0.0,0.0,0.0,0.0,0.0,0.0,0.0,0.0,0.0,0.0,0.0,0.0,0.0,0.0,0.0,0.0,0.0,0.0,0.0,0.0,0.0,0.0,0.0,0.0,0.0,0.0,0.0,0.0,0.0,0.0,0.0,0.0,0.0,0.2854,0.327,0.3575,0.3701,0.3593,0.3398,0.3024,0.2809,0.2617,0.2408,0.231,0.0,0.0,0.0,0.0,0.0,0.0,0.0,0.0,0.0,0.0,0.0,0.0,0.0,0.0,0.0,0.0,0.0,0.0,0.0,0.0,0.0,0.0,0.0,0.0,0.0,0.0,0.0,0.0,0.0,0.0,0.0,0.0,0.0,0.0,0.0,0.0,0.0,0.0,0.0,0.0,0.0,0.0,0.0,0.0,0.0,0.0,0.0,0.0,0.0,0.0,0.0,0.0,0.0,0.0461,0.0433,0.0402,0.0401,0.036,0.0239,0.0373,0.0364,0.0329,0.0596,0.0,0.0,0.0,0.0,0.0,0.0,0.0,0.0,0.0,0.0,0.0,0.0,0.0,0.0,0.0,0.0,0.0,0.0,0.0,0.0,0.0,0.0,0.112,0.0886,0.1049,0.1181,0.0997,0.0,0.0,0.0,0.0,0.0,0.0,0.0,0.0,0.0,0.0,0.0,0.3719,0.4058,0.4255,0.4438,0.4289,0.3973,0.3362,0.3112,0.2907,0.2686,0.2646,0.255,0.0,0.0,0.0,0.0,0.0,0.0,0.0,0.0,0.0,0.0,0.0,0.0,0.0,0.0,0.0,0.0,0.0,0.0,0.0,0.0,0.0,0.0,0.0,0.0,0.0,0.0,0.0,0.0,0.0,0.0,0.0,0.0,0.0908,0.0969,0.0,0.0,0.0,0.0,0.0,0.0,0.0,0.0,0.0,0.0,0.0,0.0,0.0,0.0511,0.0485,0.0547,0.0485,0.0331,0.0339,0.0216,0.0044,0.0087,0.0043,0.0043,0.0042,0.0,0.0301,0.0299,0.0,0.0,0.0,0.0,0.0,0.0,0.0,0.0,0.0,0.0,0.0,0.0,0.0,0.0,0.0,0.0,0.0,0.0,0.0,0.0,0.0,0.0,0.2042,0.0767,0.1588,0.2449,0.1736,0.1218,0.1039,0.1489,0.1471,0.1578,0.0,0.0,0.0,0.0,0.0,0.0,0.3914,0.4356,0.4733,0.4969,0.4759,0.4591,0.4487,0.4352,0.4139,0.3814,0.3685,0.3556,0.34,0.3131,0.0,0.0,0.0,0.0,0.0,0.0,0.0,0.0,0.0,0.0,0.0,0.0,0.0,0.0,0.0,0.0,0.0,0.0,0.0,0.0,0.0,0.0,0.0,0.0,0.0,0.0,0.0,0.0,0.0,0.0919,0.0958,0.0985,0.0961,0.0956,0.0,0.0,0.0,0.0,0.0,0.0,0.0,0.0,0.0,0.0299,0.0345,0.0316,0.0205,0.0254,0.0218,0.0133,0.0136,0.0092,0.0,0.0,0.0,0.0,0.0,0.0043,0.0125,0.0237,0.0338,0.0467,0.0,0.0,0.0,0.0,0.0602,0.0577,0.0519,0.0522,0.0518,0.0462,0.0,0.0,0.0,0.0,0.0,0.0,0.0,0.2143,0.1756,0.2114,0.2479,0.1973,0.2428,0.2887,0.2613,0.236,0.2209,0.2289,0.23,0.231,0.2389,0.2599,0.0,0.0,0.0,0.3926,0.4241,0.4532,0.4772,0.4958,0.4819,0.4691,0.4691,0.458,0.4399,0.4136,0.3981,0.3853,0.3726,0.3493,0.3347,0.0,0.0,0.0,0.0,0.0,0.0,0.0,0.0,0.0,0.0,0.0,0.0,0.0,0.0,0.0,0.0,0.0,0.0,0.0,0.0,0.0,0.0,0.0,0.0,0.0,0.0,0.0,0.0,0.0971,0.1,0.1,0.0968,0.1041,0.0,0.0,0.0,0.0,0.0,0.0,0.109,0.0896,0.0697,0.0528,0.0333,0.0172,0.0,0.0,0.0,0.0,0.0,0.0,0.0,0.0,0.0,0.0,0.0,0.0,0.0,0.0167,0.0238,0.0231,0.0407,0.0431,0.0423,0.0431,0.0435,0.0439,0.0454,0.0611,0.0757,0.0716,0.1233,0.188,0.181,0.0,0.0,0.0,0.0,0.2863,0.2606,0.2794,0.3035,0.2878,0.3157,0.3438,0.3424,0.36,0.3612,0.3153,0.3072,0.3026,0.2874,0.3205,0.0,0.3383,0.3846,0.4287,0.4525,0.4614,0.4691,0.4843,0.4724,0.4662,0.4662,0.4556,0.4412,0.4176,0.4058,0.3934,0.3744,0.3658,0.3524,0.3391,0.0,0.0,0.0,0.0,0.0,0.0,0.0,0.0,0.0,0.0,0.0,0.0,0.0,0.0,0.0,0.0,0.0,0.0,0.0,0.0,0.0,0.0,0.0,0.0,0.0,0.0,0.0,0.0,0.0,0.0999,0.0879,0.0,0.0,0.0,0.0,0.2986,0.3071,0.3025,0.297,0.2101,0.1534,0.1336,0.05,0.0,0.0,0.0,0.0,0.0,0.0,0.0,0.0,0.0,0.0,0.0,0.0,0.0,0.0,0.0,0.0127,0.0284,0.0323,0.0398,0.0468,0.0351,0.0317,0.0282,0.0079,0.0587,0.1251,0.1246,0.1887,0.2638,0.2629,0.2811,0.0,0.0,0.3215,0.3511,0.2557,0.334,0.4079,0.2733,0.3589,0.4558,0.4077,0.4643,0.4987,0.3956,0.3651,0.3674,0.4042,0.0,0.4016,0.4127,0.4187,0.4324,0.464,0.4586,0.4559,0.4684,0.4593,0.4501,0.4501,0.4494,0.4365,0.4024,0.3998,0.389,0.3624,0.3607,0.36,0.359,0.3394,0.0,0.0,0.0,0.0,0.0,0.0,0.0,0.0,0.0,0.0,0.0,0.0,0.0,0.0,0.0,0.0,0.0,0.0,0.0,0.0,0.0,0.0,0.0,0.0,0.0,0.0,0.0,0.0,0.1823,0.2211,0.0,0.2871,0.2737,0.2751,0.3117,0.3161,0.3219,0.3275,0.3134,0.2985,0.2834,0.267,0.2137,0.131,0.1454,0.1126,0.025,0.025,0.0251,0.0252,0.01,0.01,0.025,0.0098,0.0,0.0,0.0,0.0044,0.0127,0.0126,0.0124,0.0164,0.0123,0.0124,0.0166,0.07,0.1056,0.1475,0.2474,0.2993,0.3376,0.3848,0.4051,0.4089,0.4015,0.4188,0.428,0.3951,0.4247,0.453,0.4177,0.4552,0.499,0.4924,0.516,0.5251,0.4743,0.4589,0.4516,0.4415,0.4423,0.4406,0.4217,0.4301,0.4426,0.4559,0.4525,0.4511,0.4566,0.4525,0.4491,0.4491,0.4491,0.4406,0.4153,0.4048,0.3927,0.3747,0.3651,0.3604,0.3604,0.345,0.3273,0.0,0.0,0.0,0.0,0.0,0.0,0.0,0.0,0.0,0.0,0.0,0.0,0.0,0.0,0.0,0.0,0.0,0.0,0.0,0.0,0.0,0.0,0.0,0.0,0.0,0.1909,0.2373,0.2715,0.3176,0.3485,0.3692,0.3693,0.3776,0.3978,0.4191,0.434,0.4458,0.4408,0.415,0.3687,0.3524,0.2878,0.1584,0.1781,0.1395,0.0556,0.0556,0.0556,0.0505,0.0253,0.0253,0.0404,0.01,0.0,0.0,0.0,0.0,0.0,0.0,0.0,0.0,0.0,0.0215,0.0645,0.1873,0.2248,0.238,0.3713,0.4112,0.418,0.4665,0.4813,0.4813,0.4813,0.4813,0.4802,0.4761,0.4767,0.4807,0.4975,0.5061,0.5156,0.5359,0.5395,0.5365,0.5226,0.5133,0.4988,0.4674,0.4657,0.464,0.4466,0.4467,0.4508,0.4559,0.4522,0.4491,0.4491,0.4491,0.4491,0.4491,0.4491,0.4406,0.4156,0.4051,0.3931,0.375,0.3651,0.3604,0.3604,0.3523,0.3372,0.3159,0.0,0.0,0.0,0.0,0.0,0.0,0.0,0.0,0.0,0.0,0.0,0.0,0.0,0.0,0.0,0.0,0.0,0.0,0.0,0.0,0.0,0.0,0.0,0.2517,0.2455,0.2729,0.3642,0.367,0.3798,0.4302,0.4668,0.5094,0.5677,0.6225,0.6515,0.6543,0.5904,0.5085,0.3962,0.3039,0.2015,0.0909,0.0909,0.0858,0.0808,0.0808,0.0808,0.0758,0.0505,0.0404,0.0404,0.0152,0.0,0.0,0.0,0.0,0.0,0.0,0.0,0.0045,0.0045,0.0673,0.1744,0.3495,0.4044,0.41,0.4945,0.511,0.5021,0.5018,0.5018,0.5018,0.5018,0.5018,0.4991,0.4833,0.4862,0.4919,0.5002,0.5067,0.516,0.5362,0.5395,0.5395,0.5395,0.524,0.5059,0.4921,0.4802,0.4755,0.4867,0.4663,0.0,0.467,0.4586,0.4491,0.4498,0.4498,0.4498,0.4498,0.4498,0.4368,0.4014,0.3994,0.3887,0.3614,0.3604,0.3604,0.361,0.36,0.35,0.3313,0.0,0.0,0.0,0.0,0.0,0.0,0.0,0.0,0.0,0.0,0.0,0.0,0.0,0.0,0.0,0.0,0.0,0.0,0.0,0.0,0.0,0.2924,0.3481,0.3505,0.3993,0.4468,0.4831,0.5293,0.5678,0.5829,0.6057,0.623,0.6397,0.6808,0.7082,0.7215,0.7208,0.6979,0.6583,0.6515,0.5477,0.3425,0.3623,0.2719,0.0808,0.0808,0.0707,0.0505,0.0455,0.0505,0.0657,0.0404,0.0299,0.0292,0.0096,0.0,0.0,0.0,0.0404,0.1032,0.1032,0.2061,0.3571,0.3976,0.4516,0.5081,0.5162,0.5165,0.5124,0.5042,0.5018,0.5018,0.5018,0.5018,0.5007,0.5123,0.5214,0.527,0.5356,0.5424,0.546,0.5419,0.5395,0.5395,0.5395,0.5361,0.525,0.5066,0.5005,0.4958,0.4897,0.4752,0.4672,0.4684,0.4586,0.4532,0.4644,0.4655,0.4655,0.4655,0.4655,0.4453,0.4021,0.3994,0.3887,0.3614,0.3604,0.3651,0.3754,0.3502,0.3425,0.0,0.0,0.0,0.0,0.0,0.0,0.0,0.0,0.0,0.0,0.0,0.0,0.0,0.0,0.0,0.0,0.0,0.0,0.0,0.0,0.0,0.0,0.3986,0.4604,0.5102,0.5165,0.5365,0.586,0.6298,0.6545,0.6511,0.6817,0.6961,0.6889,0.7206,0.7462,0.7563,0.7762,0.7651,0.7138,0.7238,0.6182,0.3775,0.3874,0.2919,0.0808,0.0808,0.0707,0.0556,0.0455,0.0505,0.0606,0.0354,0.025,0.0196,0.0048,0.0,0.0,0.0,0.0,0.0,0.0,0.2732,0.3799,0.4502,0.5111,0.5483,0.5343,0.5303,0.5252,0.5184,0.5129,0.5089,0.5089,0.5053,0.5054,0.5243,0.534,0.5411,0.5552,0.5596,0.5566,0.5511,0.544,0.5395,0.5395,0.5395,0.0,0.5243,0.514,0.5069,0.4988,0.4826,0.4691,0.4691,0.4586,0.4525,0.4614,0.4624,0.4624,0.4624,0.4624,0.0,0.0,0.0,0.3957,0.3703,0.3634,0.0,0.0,0.0,0.0,0.0,0.0,0.0,0.0,0.3358,0.3337,0.0,0.0,0.0,0.0,0.0,0.0,0.0,0.0,0.0,0.0,0.0,0.0,0.0,0.0,0.0,0.0,0.5271,0.5743,0.6744,0.6076,0.5825,0.6735,0.6853,0.6821,0.6764,0.7171,0.7389,0.7208,0.7582,0.7752,0.7637,0.7892,0.0,0.0,0.0,0.5479,0.3221,0.3171,0.2418,0.0959,0.096,0.0858,0.0707,0.0505,0.0404,0.0404,0.0152,0.005,0.0049,0.0,0.0047,0.0138,0.0136,0.0225,0.0539,0.2376,0.3135,0.3449,0.5104,0.0,0.0,0.551,0.5477,0.5429,0.5416,0.5333,0.5205,0.5189,0.5116,0.511,0.5287,0.539,0.5488,0.5691,0.5682,0.563,0.5596,0.5518,0.5416,0.5399,0.5395,0.5395,0.5395,0.5247,0.5117,0.51,0.4894,0.4711,0.4694,0.4586,0.4498,0.4515,0.4532,0.0,0.4515,0.4532,0.444,0.4207,0.4255,0.4176,0.3924,0.3876,0.3876,0.3954,0.4105,0.415,0.4021,0.4191,0.4177,0.3987,0.3634,0.3522,0.0,0.0,0.0,0.0,0.0,0.0,0.0,0.0,0.0,0.0,0.0,0.0,0.0,0.0,0.0,0.5144,0.5938,0.6658,0.6873,0.6807,0.6845,0.7007,0.7206,0.7294,0.7275,0.754,0.7702,0.7659,0.7828,0.7958,0.7939,0.7992,0.7889,0.769,0.769,0.7036,0.5732,0.5479,0.4273,0.2065,0.1865,0.0,0.0152,0.0303,0.0404,0.0404,0.0354,0.0302,0.0301,0.0097,0.0467,0.1127,0.1123,0.1614,0.2465,0.3628,0.4523,0.5193,0.5555,0.5675,0.5637,0.554,0.5491,0.5454,0.5398,0.5394,0.0,0.5214,0.5293,0.5414,0.5509,0.569,0.5832,0.5907,0.5949,0.5881,0.564,0.5566,0.5542,0.5419,0.5395,0.5395,0.5395,0.5371,0.5274,0.5117,0.4955,0.483,0.4707,0.4586,0.4539,0.4662,0.4758,0.4779,0.4657,0.4758,0.4635,0.422,0.4565,0.4729,0.4686,0.5134,0.52,0.4856,0.5234,0.5031,0.4153,0.4564,0.4496,0.3994,0.3931,0.3907,0.0,0.0,0.0,0.0,0.0,0.0,0.0,0.0,0.0,0.0,0.0,0.4423,0.4613,0.0,0.6101,0.6002,0.6524,0.691,0.698,0.7051,0.7095,0.7095,0.7278,0.7446,0.7478,0.7682,0.7841,0.787,0.7944,0.7988,0.7988,0.7988,0.7988,0.7988,0.7988,0.7434,0.6232,0.6079,0.4774,0.2416,0.2266,0.1513,0.0202,0.0354,0.0303,0.0253,0.0757,0.0954,0.0942,0.1287,0.176,0.218,0.216,0.2465,0.3001,0.3941,0.4612,0.5062,0.5555,0.5688,0.568,0.5618,0.5599,0.5586,0.557,0.551,0.5447,0.5549,0.5527,0.558,0.5832,0.5918,0.5922,0.6124,0.6088,0.5932,0.5745,0.564,0.5545,0.5426,0.5395,0.5395,0.5395,0.5395,0.5341,0.512,0.4978,0.4863,0.4711,0.4586,0.4518,0.4597,0.5027,0.5262,0.5208,0.5543,0.5653,0.5411,0.5423,0.5439,0.5439,0.5676,0.5691,0.5464,0.5741,0.5641,0.5098,0.541,0.5254,0.4655,0.4655,0.4415,0.0,0.0,0.0,0.0,0.0,0.0,0.0,0.2846,0.3488,0.4367,0.471,0.509,0.5932,0.6268,0.6508,0.6829,0.691,0.6967,0.7082,0.7095,0.7095,0.7095,0.7302,0.7465,0.7587,0.7753,0.7906,0.7982,0.7988,0.7988,0.7988,0.7988,0.7988,0.7988,0.7988,0.7484,0.6381,0.6331,0.5227,0.3119,0.3067,0.2366,0.1109,0.1109,0.0958,0.0757,0.1563,0.1841,0.1798,0.2586,0.3047,0.3251,0.3199,0.3269,0.3494,0.4076,0.4433,0.4701,0.5419,0.5688,0.5688,0.5688,0.5675,0.5653,0.5653,0.5586,0.5545,0.5775,0.5749,0.5708,0.6086,0.609,0.6022,0.6261,0.6166,0.603,0.5878,0.5732,0.5586,0.547,0.5416,0.5395,0.5395,0.5395,0.5341,0.512,0.4978,0.4863,0.4711,0.4586,0.4491,0.4491,0.5243,0.581,0.5989,0.6418,0.6687,0.6687,0.6475,0.6363,0.6363,0.636,0.6319,0.6218,0.6369,0.6325,0.612,0.6347,0.6128,0.555,0.5612,0.5085,0.176,0.1843,0.183,0.1933,0.205,0.2515,0.0,0.436,0.4752,0.5623,0.5966,0.6175,0.639,0.6661,0.6829,0.6876,0.6991,0.7078,0.7095,0.7095,0.7095,0.7095,0.7397,0.758,0.7597,0.7851,0.7971,0.7988,0.7988,0.7988,0.7988,0.7988,0.7988,0.7988,0.7988,0.7939,0.7786,0.754,0.6786,0.5577,0.5372,0.467,0.3615,0.3615,0.3468,0.3169,0.3071,0.2961,0.2813,0.2942,0.3433,0.4133,0.4123,0.4656,0.5285,0.4567,0.4837,0.5555,0.5644,0.5688,0.5688,0.5688,0.5615,0.5529,0.5529,0.5518,0.5529,0.5675,0.5829,0.5985,0.6149,0.6212,0.6261,0.63,0.6286,0.6231,0.6037,0.5884,0.5735,0.5593,0.5487,0.5395,0.5395,0.5395,0.5341,0.512,0.4978,0.4863,0.4711,0.4586,0.4491,0.4491,0.538,0.6267,0.6957,0.6984,0.6963,0.6963,0.7424,0.769,0.769,0.8138,0.8149,0.7681,0.7903,0.7544,0.6529,0.7094,0.7048,0.6454,0.6691,0.5957,0.1992,0.2342,0.2596,0.2302,0.2823,0.362,0.4443,0.4982,0.5509,0.6064,0.6352,0.6563,0.6712,0.6784,0.688,0.7007,0.697,0.6966,0.7098,0.7095,0.7095,0.7095,0.7333,0.7502,0.759,0.7787,0.7894,0.7982,0.7988,0.7988,0.7988,0.7988,0.7988,0.7988,0.7988,0.7988,0.7988,0.7892,0.7288,0.6234,0.6132,0.5425,0.4218,0.4218,0.4321,0.4522,0.4375,0.4561,0.4923,0.4763,0.4901,0.5232,0.5129,0.5374,0.5644,0.524,0.5374,0.5688,0.5688,0.5688,0.5688,0.5688,0.5607,0.5508,0.5508,0.5547,0.5664,0.5981,0.6098,0.6233,0.6419,0.6455,0.6402,0.632,0.63,0.6255,0.6027,0.5942,0.5891,0.5742,0.5596,0.5528,0.5528,0.5453,0.5375,0.5274,0.5138,0.5109,0.5307,0.5233,0.541,0.6164,0.6764,0.7421,0.8236,0.8257,0.8226,0.8226,0.8171,0.8132,0.8132,0.8333,0.8367,0.8132,0.8403,0.8305,0.7837,0.7932,0.7689,0.7113,0.7077,0.6486,0.2409,0.2921,0.34,0.2991,0.3682,0.46,0.5048,0.559,0.6074,0.6383,0.6614,0.6768,0.6877,0.6856,0.6925,0.701,0.6922,0.6925,0.7098,0.7095,0.7082,0.7045,0.718,0.7309,0.7458,0.7547,0.7714,0.7917,0.7878,0.7898,0.7988,0.7988,0.7988,0.7988,0.7988,0.7988,0.7988,0.7988,0.759,0.6836,0.6836,0.6331,0.5372,0.5325,0.5477,0.5829,0.5649,0.5879,0.6347,0.6073,0.5915,0.5847,0.5721,0.5688,0.5688,0.5688,0.5688,0.5688,0.5688,0.5688,0.5688,0.5688,0.5583,0.5502,0.5544,0.5611,0.5769,0.6199,0.6349,0.6431,0.6679,0.6617,0.6487,0.6381,0.6327,0.6269,0.6118,0.6023,0.5959,0.5884,0.5715,0.5589,0.5589,0.5629,0.5686,0.5686,0.5715,0.5765,0.5904,0.5893,0.6292,0.7373,0.7726,0.8235,0.904,0.9167,0.9215,0.9215,0.8782,0.853,0.853,0.853,0.853,0.853,0.8716,0.8776,0.871,0.8518,0.8187,0.7717,0.7605,0.7186,0.3127,0.3673,0.4197,0.4404,0.4653,0.5134,0.6055,0.6349,0.6539,0.6848,0.6873,0.688,0.6807,0.6966,0.701,0.684,0.6966,0.7095,0.7095,0.7095,0.7045,0.691,0.6896,0.6953,0.7095,0.7191,0.7374,0.7759,0.7631,0.7645,0.7982,0.7988,0.7988,0.7988,0.7988,0.7988,0.7988,0.7988,0.7988,0.7939,0.7939,0.7939,0.7889,0.7643,0.7497,0.7497,0.6989,0.6646,0.6464,0.6225,0.5945,0.5694,0.5691,0.5688,0.5688,0.5688,0.5688,0.5688,0.5688,0.5688,0.5688,0.5688,0.557,0.546,0.563,0.571,0.5791,0.6284,0.6509,0.6659,0.6833,0.6698,0.6511,0.6508,0.6402,0.6296,0.6293,0.6135,0.599,0.5986,0.5789,0.5589,0.5589,0.6026,0.6367,0.6367,0.692,0.7044,0.6287,0.6415,0.68,0.7429,0.7726,0.8235,0.904,0.9348,0.9504,0.9504,0.9233,0.9071,0.9071,0.9071,0.9071,0.9071,0.9083,0.8963,0.871,0.8698,0.8537,0.8291,0.8537,0.8224,0.4191,0.464,0.5202,0.4918,0.5252,0.5769,0.6293,0.6515,0.6654,0.6756,0.6858,0.6869,0.6734,0.6551,0.6498,0.6814,0.6697,0.6682,0.7037,0.7095,0.7045,0.6903,0.6967,0.696,0.6784,0.6996,0.726,0.7651,0.7664,0.7738,0.7885,0.7934,0.7988,0.7988,0.7988,0.7988,0.7988,0.7988,0.7988,0.7988,0.7988,0.7988,0.7988,0.7892,0.7743,0.7596,0.7241,0.6939,0.6652,0.6275,0.6037,0.5952,0.5777,0.5688,0.5688,0.5688,0.5688,0.5688,0.5688,0.5688,0.5688,0.5688,0.5656,0.5638,0.5803,0.5922,0.6106,0.6454,0.6669,0.6797,0.6886,0.6851,0.6722,0.6562,0.6474,0.6416,0.632,0.6259,0.6183,0.6183,0.602,0.585,0.5749,0.6187,0.6806,0.7661,0.7845,0.7756,0.7497,0.7608,0.7802,0.8004,0.8108,0.8281,0.8543,0.8824,0.8981,0.8981,0.8728,0.8578,0.8578,0.8746,0.8836,0.8836,0.9011,0.9053,0.8963,0.8614,0.8403,0.8285,0.8201,0.8035,0.4631,0.5124,0.5729,0.543,0.5729,0.6176,0.6457,0.6549,0.6634,0.6688,0.6736,0.6711,0.6587,0.6245,0.6173,0.6714,0.6537,0.6527,0.7024,0.7095,0.7045,0.6903,0.6967,0.6897,0.6629,0.6877,0.7146,0.7356,0.7509,0.7661,0.7807,0.7907,0.7988,0.7988,0.7988,0.7988,0.7988,0.7988,0.7988,0.7988,0.7988,0.7988,0.7988,0.7988,0.7892,0.7743,0.7387,0.714,0.6929,0.6459,0.627,0.6169,0.5952,0.5863,0.5822,0.5733,0.5688,0.5688,0.5688,0.5688,0.5688,0.5688,0.5686,0.5664,0.5909,0.6117,0.6309,0.6613,0.6834,0.696,0.696,0.6923,0.6836,0.6681,0.6552,0.6487,0.6395,0.6334,0.63,0.63,0.6359,0.64,0.6332,0.6935,0.7755,0.8727,0.8721,0.8555,0.846,0.8457,0.8393,0.8297,0.8291,0.8291,0.8291,0.856,0.871,0.871,0.8463,0.8291,0.8291,0.8453,0.8566,0.8566,0.8824,0.8915,0.8818,0.8481,0.8243,0.8147,0.7979,0.7901,0.4524,0.5181,0.5861,0.5969,0.6152,0.6337,0.648,0.6508,0.6542,0.6647,0.6556,0.6451,0.6296,0.6105,0.6106,0.6522,0.6483,0.6544,0.7055,0.7095,0.7045,0.6903,0.6893,0.685,0.6622,0.6804,0.693,0.6989,0.7137,0.7367,0.7794,0.7901,0.7988,0.7988,0.7988,0.7988,0.7988,0.7988,0.7988,0.7988,0.7988,0.7988,0.7988,0.7988,0.7988,0.7982,0.7589,0.7347,0.7201,0.6783,0.6509,0.6387,0.6213,0.6127,0.6083,0.5822,0.5733,0.5688,0.5688,0.5688,0.5688,0.5688,0.561,0.5645,0.6076,0.6251,0.6423,0.681,0.6994,0.7095,0.7095,0.6997,0.6896,0.6886,0.6709,0.6532,0.6515,0.6405,0.631,0.6303,0.6772,0.7241,0.7315,0.8203,0.9036,0.9473,0.9496,0.942,0.9149,0.889,0.8626,0.8339,0.8309,0.8297,0.8273,0.8536,0.868,0.8668,0.8405,0.8273,0.8273,0.8285,0.8291,0.8291,0.856,0.8566,0.8291,0.8279,0.8141,0.7901,0.7901,0.7901,0.5434,0.5878,0.619,0.6231,0.6272,0.6337,0.648,0.6429,0.6364,0.6405,0.6251,0.605,0.5835,0.5764,0.5889,0.6311,0.6373,0.6544,0.7055,0.7095,0.7045,0.6903,0.6977,0.691,0.6632,0.689,0.7033,0.6995,0.733,0.7567,0.7651,0.785,0.7988,0.7988,0.7988,0.7988,0.7988,0.7988,0.7988,0.7988,0.7988,0.7988,0.7988,0.7988,0.7988,0.7982,0.7589,0.7446,0.7443,0.6829,0.6647,0.6659,0.6435,0.6213,0.6083,0.6041,0.5863,0.5688,0.5688,0.5688,0.5688,0.5688,0.593,0.6163,0.6122,0.6474,0.6869,0.6828,0.6939,0.7095,0.7095,0.7068,0.7014,0.691,0.6868,0.6749,0.6562,0.6484,0.6426,0.632,0.6772,0.7569,0.8702,0.8908,0.9092,0.9712,0.9636,0.9492,0.942,0.9167,0.8896,0.8638,0.8608,0.8423,0.8033,0.8237,0.8303,0.8111,0.8039,0.8003,0.8003,0.8189,0.8291,0.8291,0.8357,0.8357,0.8291,0.8093,0.7967,0.7901,0.7901,0.7901,0.5517,0.5911,0.63,0.63,0.63,0.6303,0.6274,0.6217,0.6122,0.603,0.5844,0.5684,0.5552,0.5481,0.5607,0.6074,0.6248,0.6498,0.6964,0.7058,0.7065,0.6987,0.7048,0.6977,0.6723,0.6916,0.7073,0.7002,0.7376,0.7628,0.7689,0.7864,0.7988,0.7988,0.7988,0.7988,0.7988,0.7988,0.7988,0.7988,0.7988,0.7988,0.7988,0.7988,0.7955,0.788,0.7591,0.7493,0.7485,0.7012,0.686,0.6925,0.6656,0.6523,0.6393,0.6257,0.6124,0.5994,0.5994,0.5994,0.5994,0.5908,0.6038,0.6302,0.6393,0.6659,0.6969,0.6922,0.701,0.7095,0.7095,0.7095,0.7078,0.6997,0.693,0.6865,0.6624,0.6559,0.6665,0.725,0.7626,0.8305,0.9785,0.974,0.9615,0.9852,0.9684,0.9516,0.9516,0.9269,0.9041,0.889,0.8776,0.859,0.8267,0.8273,0.8225,0.8081,0.7967,0.7901,0.7901,0.8039,0.8117,0.8117,0.8117,0.8117,0.8117,0.7973,0.7901,0.7901,0.7901,0.7901,0.526,0.5733,0.63,0.63,0.6282,0.6196,0.6023,0.5946,0.5867,0.5613,0.5457,0.5337,0.5337,0.5233,0.5324,0.5855,0.6099,0.636,0.6796,0.6991,0.7075,0.7095,0.7095,0.7054,0.6836,0.701,0.7073,0.7044,0.7356,0.7641,0.7801,0.7907,0.7988,0.7988,0.7988,0.7988,0.7988,0.7988,0.7988,0.7988,0.7988,0.7988,0.7988,0.7968,0.7887,0.7801,0.7641,0.7495,0.7405,0.7204,0.7095,0.7098,0.6925,0.6836,0.6792,0.6523,0.6432,0.6384,0.6384,0.6384,0.6387,0.6213,0.6183,0.6284,0.6621,0.6805,0.6907,0.7017,0.7098,0.7095,0.7095,0.7095,0.7095,0.7095,0.7004,0.6873,0.6763,0.6675,0.7058,0.8435,0.878,0.9246,1.0519,1.0521,1.0268,1.0039,0.9757,0.957,0.957,0.9324,0.9137,0.9101,0.8927,0.8782,0.8716,0.853,0.8375,0.8345,0.8129,0.8003,0.8003,0.7973,0.7955,0.7955,0.7919,0.7901,0.7901,0.7901,0.7901,0.7901,0.7937,0.7955,0.572,0.6198,0.63,0.63,0.6166,0.6027,0.5996,0.5742,0.5498,0.5446,0.5186,0.4996,0.4996,0.5196,0.54,0.5578,0.5988,0.6364,0.6606,0.6817,0.6964,0.7082,0.7095,0.7095,0.7054,0.7098,0.7159,0.7314,0.7397,0.7529,0.7797,0.7907,0.7988,0.7988,0.7988,0.7988,0.7988,0.7988,0.7988,0.7988,0.7988,0.7988,0.7985,0.7909,0.7834,0.7797,0.7529,0.7443,0.7405,0.7204,0.7095,0.7095,0.7051,0.6966,0.6795,0.6748,0.6612,0.6384,0.6384,0.6384,0.6384,0.6343,0.6556,0.6814,0.6557,0.6869,0.7215,0.6913,0.6966,0.7095,0.7095,0.7095,0.7095,0.7095,0.7078,0.7021,0.6876,0.72,0.7722,0.855,0.9236,0.9976,1.0865,1.0828,1.0599,1.0557,1.0142,0.9835,0.9835,0.9606,0.9354,0.9125,0.9263,0.9197,0.8746,0.886,0.8872,0.865,0.8596,0.8572,0.8572,0.8339,0.8219,0.8219,0.8009,0.7901,0.7901,0.7901,0.7901,0.7907,0.8123,0.8219,0.5964,0.63,0.63,0.63,0.6142,0.5952,0.5837,0.5572,0.5327,0.5092,0.4897,0.4775,0.4697,0.4928,0.517,0.5286,0.5704,0.6179,0.6501,0.6676,0.6849,0.6943,0.7054,0.7051,0.6966,0.7054,0.7204,0.7405,0.7415,0.7468,0.7689,0.7841,0.7907,0.7988,0.7988,0.7988,0.7988,0.7988,0.7988,0.7988,0.7988,0.7988,0.7988,0.7914,0.7885,0.7797,0.7584,0.7444,0.7405,0.7204,0.7095,0.7095,0.7095,0.7054,0.6966,0.6966,0.6877,0.6786,0.6786,0.6786,0.6786,0.6786,0.6837,0.6886,0.6808,0.6968,0.7189,0.7033,0.701,0.7095,0.7095,0.7095,0.7095,0.7095,0.7041,0.7076,0.7341,0.7564,0.8037,0.9123,0.9652,1.0143,1.0962,1.0894,1.0683,1.0683,1.0358,1.0057,0.9919,0.9793,0.9612,0.9348,0.9438,0.9408,0.9149,0.9107,0.9047,0.8921,0.8782,0.871,0.871,0.859,0.8518,0.8518,0.8369,0.8303,0.8303,0.8303,0.8303,0.8309,0.8463,0.8518,0.6064,0.63,0.63,0.63,0.6118,0.5911,0.565,0.5457,0.5187,0.4769,0.4663,0.4644,0.4556,0.4707,0.4908,0.5049,0.5467,0.5911,0.632,0.6542,0.6716,0.6809,0.6993,0.7054,0.6881,0.701,0.7146,0.7312,0.7322,0.7404,0.759,0.7733,0.7865,0.7938,0.7971,0.7988,0.7988,0.7988,0.7988,0.7988,0.7988,0.7988,0.7988,0.7924,0.7879,0.7756,0.7577,0.7431,0.7312,0.7146,0.7095,0.7095,0.7095,0.7095,0.7095,0.7095,0.7095,0.7095,0.7095,0.7095,0.7095,0.7095,0.701,0.6881,0.7054,0.7095,0.7095,0.7095,0.7095,0.7095,0.7095,0.7095,0.7095,0.7095,0.7011,0.7051,0.7564,0.7813,0.8321,0.9438,0.9916,1.0368,1.0999,1.0942,1.0803,1.0803,1.0545,1.0304,1.01,0.9973,0.9829,0.9618,0.9546,0.9516,0.9516,0.9312,0.9185,0.9185,0.8993,0.8884,0.8884,0.8824,0.8794,0.8794,0.8734,0.871,0.871,0.871,0.871,0.871,0.8764,0.8794,0.6064,0.63,0.63,0.63,0.604,0.5783,0.5627,0.5264,0.4908,0.4728,0.4607,0.4549,0.4646,0.4694,0.4787,0.4967,0.5352,0.5691,0.5938,0.6398,0.6763,0.6886,0.7018,0.7095,0.7051,0.7095,0.7102,0.7115,0.7119,0.7247,0.7584,0.7733,0.7818,0.7831,0.7917,0.7988,0.7988,0.7988,0.7988,0.7988,0.7988,0.7988,0.7982,0.776,0.7634,0.7604,0.7264,0.7129,0.7115,0.7102,0.7095,0.7095,0.7095,0.7095,0.7095,0.7095,0.7095,0.7095,0.7095,0.7095,0.7095,0.7095,0.7095,0.7098,0.7095,0.7095,0.7095,0.7095,0.7095,0.7095,0.7095,0.7095,0.7095,0.7095,0.7085,0.7044,0.6843,0.7955,0.8926,0.8818,0.9981,1.0999,1.1074,1.1093,1.1075,1.1075,1.0815,1.0641,1.0617,1.0196,0.9895,0.9871,0.966,0.9516,0.9516,0.9492,0.9474,0.9474,0.9456,0.9444,0.9444,0.9197,0.9059,0.9059,0.8824,0.871,0.871,0.871,0.871,0.8716,0.8951,0.9059,0.6041,0.63,0.63,0.63,0.6067,0.5766,0.5623,0.5243,0.4874,0.4721,0.4597,0.4508,0.4569,0.4583,0.467,0.4908,0.5081,0.5339,0.5795,0.6086,0.6341,0.6505,0.6797,0.696,0.6915,0.701,0.7095,0.7095,0.7095,0.7149,0.727,0.7553,0.7723,0.7807,0.7911,0.7988,0.7988,0.7988,0.7988,0.7988,0.7988,0.7988,0.7982,0.7824,0.7726,0.7709,0.7411,0.7278,0.7272,0.7136,0.7095,0.7095,0.7095,0.7095,0.7095,0.7095,0.7095,0.7095,0.7095,0.7095,0.7095,0.7095,0.7095,0.7095,0.7095,0.7095,0.7095,0.7095,0.7095,0.7095,0.7095,0.7095,0.7095,0.7095,0.7095,0.7169,0.7469,0.8002,0.8621,0.9403,1.0008,1.0513,1.1037,1.1111,1.1111,1.1111,1.1021,1.0863,1.0701,1.0503,1.025,0.9937,0.9672,0.9516,0.9516,0.9516,0.9516,0.9516,0.9516,0.9516,0.9516,0.9408,0.9348,0.9348,0.9245,0.9191,0.9191,0.9191,0.9191,0.9197,0.93,0.9348,0.6007,0.6265,0.6289,0.6242,0.5996,0.5739,0.5508,0.5176,0.4863,0.4663,0.4566,0.4491,0.4491,0.4491,0.4576,0.4809,0.4894,0.5127,0.5667,0.5945,0.6157,0.6348,0.6644,0.6833,0.6849,0.6987,0.7095,0.7095,0.7095,0.7095,0.7095,0.739,0.7597,0.7743,0.7887,0.7988,0.7988,0.7988,0.7968,0.7924,0.7924,0.7901,0.7853,0.775,0.7682,0.7668,0.7414,0.7302,0.7295,0.7139,0.7095,0.7095,0.7095,0.7095,0.7095,0.7095,0.7095,0.7095,0.7095,0.7095,0.7095,0.7095,0.7095,0.7095,0.7095,0.7095,0.7095,0.7095,0.7095,0.7095,0.7095,0.7095,0.7095,0.7095,0.7095,0.722,0.7615,0.781,0.826,0.9472,0.9795,1.0143,1.0962,1.1111,1.1111,1.1111,1.1111,1.1045,1.0821,1.0731,1.0545,1.0178,0.9901,0.9684,0.9528,0.9516,0.9516,0.9516,0.9516,0.9516,0.9516,0.9516,0.9516,0.9516,0.9516,0.9516,0.9516,0.9516,0.9516,0.9516,0.9516,0.9516,0.5993,0.6142,0.6262,0.6071,0.5915,0.5684,0.5204,0.4992,0.4833,0.4556,0.4491,0.4491,0.4491,0.4491,0.4542,0.4667,0.4938,0.5204,0.5549,0.6013,0.6351,0.6497,0.661,0.6763,0.6873,0.7014,0.7095,0.7095,0.7095,0.7095,0.7095,0.7288,0.7444,0.7597,0.7837,0.7988,0.7988,0.7988,0.7914,0.7814,0.7814,0.774,0.76,0.7444,0.7422,0.7412,0.721,0.7098,0.7098,0.7095,0.7095,0.7095,0.7095,0.7095,0.7095,0.7095,0.7095,0.7095,0.7095,0.7095,0.7095,0.7095,0.7095,0.7095,0.7095,0.7095,0.7095,0.7095,0.7095,0.7095,0.7095,0.7095,0.7095,0.7095,0.7095,0.7014,0.6766,0.7357,0.8064,0.8592,0.9349,1.0143,1.0962,1.1111,1.1111,1.1111,1.1111,1.1111,1.1105,1.0845,1.0719,1.0677,1.0442,1.0075,0.9558,0.9516,0.9516,0.9516,0.9516,0.9516,0.9516,0.9516,0.9516,0.9516,0.9516,0.9516,0.9516,0.9516,0.9516,0.9516,0.9516,0.9516,0.5728,0.5766,0.5801,0.5644,0.5457,0.5272,0.513,0.4942,0.4735,0.4665,0.4563,0.4491,0.4491,0.4491,0.4607,0.4935,0.5036,0.5238,0.5677,0.6074,0.6354,0.6494,0.6787,0.6977,0.7024,0.7068,0.7095,0.7095,0.7095,0.7095,0.7095,0.7288,0.7439,0.7441,0.7634,0.774,0.774,0.774,0.7712,0.7665,0.7665,0.7645,0.7594,0.7441,0.7415,0.7409,0.7207,0.7095,0.7095,0.7095,0.7095,0.7095,0.7095,0.7095,0.7095,0.7095,0.7095,0.7095,0.7095,0.7095,0.7095,0.7095,0.7095,0.7095,0.7095,0.7095,0.7095,0.7095,0.7095,0.7095,0.7095,0.7095,0.7095,0.7095,0.7095,0.7045,0.6856,0.7393,0.8102,0.8719,0.9407,1.0143,1.0962,1.1111,1.1111,1.1111,1.1111,1.1111,1.1111,1.1039,1.0882,1.0701,1.0611,1.0352,0.9829,0.9781,0.9709,0.9528,0.9516,0.9516,0.9516,0.9516,0.9516,0.9516,0.9516,0.9516,0.9516,0.9516,0.9516,0.9516,0.9516,0.9516,0.5474,0.5539,0.5501,0.5315,0.5203,0.5069,0.4958,0.4823,0.4674,0.4644,0.4556,0.4491,0.4491,0.4491,0.4583,0.4833,0.4945,0.5154,0.5579,0.5945,0.6268,0.6529,0.6854,0.7018,0.7018,0.7065,0.7095,0.7095,0.7095,0.7095,0.7095,0.7231,0.7285,0.7285,0.7489,0.76,0.76,0.76,0.757,0.7512,0.7512,0.7482,0.7424,0.7329,0.7285,0.7278,0.7139,0.7095,0.0,0.7095,0.7095,0.7095,0.7095,0.7095,0.7095,0.7095,0.7095,0.7095,0.7095,0.7095,0.7095,0.7095,0.7095,0.7095,0.7095,0.7095,0.7095,0.7095,0.7095,0.7095,0.7095,0.7095,0.7095,0.7095,0.7095,0.7058,0.6916,0.7434,0.8114,0.8762,0.9453,1.0143,1.0962,1.1111,1.1111,1.1111,1.1111,1.1111,1.1111,1.1111,1.1051,1.0888,1.0864,1.0659,1.0238,1.0021,0.9793,0.9534,0.9516,0.9516,0.9516,0.9516,0.9516,0.9516,0.9516,0.9516,0.9516,0.9516,0.9516,0.9516,0.9516,0.9516,0.0,0.5347,0.531,0.5121,0.5052,0.4978,0.4738,0.4674,0.0,0.4518,0.4491,0.4494,0.4505,0.4498,0.4505,0.4545,0.4755,0.5043,0.5399,0.5793,0.6202,0.6678,0.6858,0.6903,0.6903,0.7018,0.7095,0.7095,0.7095,0.7095,0.7095,0.7095,0.7095,0.7095,0.7417,0.7567,0.7567,0.7567,0.7495,0.7402,0.7402,0.7278,0.7095,0.7095,0.7095,0.7095,0.7095,0.7095,0.7095,0.7095,0.7095,0.7095,0.7095,0.7095,0.7095,0.7095,0.7095,0.7095,0.7095,0.7095,0.7095,0.7095,0.7095,0.7095,0.7095,0.7095,0.7095,0.7095,0.7095,0.7095,0.7095,0.7095,0.7095,0.7095,0.7095,0.7058,0.6916,0.7483,0.8176,0.882,0.9517,1.0246,1.0992,1.1123,1.1111,1.1111,1.1111,1.1111,1.1111,1.1111,1.1111,1.1111,1.1111,1.1003,1.0707,1.0226,0.9823,0.9558,0.9528,0.9516,0.9516,0.9516,0.9516,0.9516,0.9516,0.9516,0.9516,0.9516,0.9516,0.9516,0.9516,0.9516,0.4825,0.0,0.4839,0.4685,0.4648,0.4631,0.0,0.4545,0.4535,0.4498,0.4491,0.4525,0.4644,0.4569,0.4641,0.5109,0.5111,0.5235,0.5796,0.6261,0.6664,0.6953,0.7024,0.7048,0.7048,0.7078,0.7095,0.7095,0.7095,0.7095,0.7095,0.7095,0.7095,0.7095,0.7166,0.7203,0.7203,0.7203,0.7186,0.7149,0.7149,0.7132,0.7095,0.7095,0.7095,0.7095,0.7095,0.7095,0.7095,0.7095,0.7095,0.7095,0.7095,0.7095,0.7095,0.7095,0.7095,0.7095,0.7095,0.7095,0.7095,0.7095,0.7095,0.7095,0.7095,0.7095,0.7095,0.7095,0.7095,0.7095,0.7095,0.7095,0.7095,0.7095,0.7095,0.7058,0.6916,0.8074,0.9151,0.9189,1.0258,1.1162,1.1354,1.1256,1.1111,1.1111,1.1111,1.1111,1.1111,1.1111,1.1111,1.1111,1.1111,1.1003,1.0707,1.0388,1.0088,0.9829,0.9624,0.9516,0.9516,0.9516,0.9516,0.9516,0.9516,0.9516,0.9516,0.9516,0.9516,0.9516,0.9516,0.9516,0.4593,0.4665,0.467,0.4614,0.4597,0.4597,0.4597,0.4542,0.4491,0.4491,0.4491,0.4515,0.46,0.4604,0.4726,0.5094,0.5203,0.5471,0.6139,0.6502,0.681,0.7061,0.7095,0.7095,0.7095,0.7095,0.7095,0.7095,0.7095,0.7095,0.7095,0.7095,0.7095,0.7095,0.7095,0.7095,0.7095,0.7095,0.7095,0.7095,0.7095,0.7095,0.7095,0.7095,0.7095,0.7095,0.7095,0.7095,0.7095,0.7095,0.7095,0.7095,0.7095,0.7095,0.7095,0.7095,0.7095,0.7095,0.7095,0.7095,0.7095,0.7095,0.7095,0.7095,0.7095,0.7095,0.7095,0.7095,0.7095,0.7095,0.7095,0.7095,0.7095,0.7095,0.7095,0.7207,0.7563,0.8522,0.9441,0.977,1.0739,1.1495,1.1495,1.1465,1.1486,1.1486,1.1486,1.1437,1.1317,1.1266,1.1256,1.1123,1.1111,1.1051,1.0912,1.0623,1.0364,1.01,0.9949,0.9871,0.9871,0.9757,0.9636,0.9484,0.9516,0.9516,0.9516,0.9516,0.9516,0.9516,0.9636,0.9697,0.4518,0.4638,0.4714,0.4667,0.4674,0.4691,0.4691,0.4617,0.4525,0.4525,0.4525,0.4532,0.4556,0.4665,0.4792,0.4989,0.5291,0.576,0.6419,0.6624,0.6837,0.7065,0.7095,0.7095,0.7095,0.7095,0.7095,0.7095,0.7095,0.7095,0.7095,0.7095,0.7095,0.7095,0.7095,0.7095,0.7095,0.7095,0.7095,0.7095,0.7095,0.7095,0.7095,0.7095,0.7095,0.7095,0.7095,0.7095,0.7095,0.7095,0.7095,0.7095,0.7095,0.7095,0.7095,0.7095,0.7095,0.7095,0.7095,0.7095,0.7095,0.7095,0.7095,0.7095,0.7095,0.7095,0.7092,0.7068,0.7082,0.7092,0.7068,0.7082,0.7095,0.7095,0.7095,0.7316,0.8105,0.8683,0.9279,1.0218,1.0936,1.1453,1.1609,1.176,1.188,1.188,1.188,1.1802,1.1579,1.1519,1.1405,1.1202,1.1135,1.1111,1.1111,1.0869,1.0647,1.043,1.034,1.0292,1.0292,1.0081,0.9859,0.9636,0.9636,0.9636,0.9636,0.9636,0.9636,0.9636,0.9865,0.9961,0.4648,0.4769,0.4823,0.459,0.4624,0.4691,0.4691,0.4674,0.4657,0.4657,0.4657,0.4697,0.4823,0.4867,0.5016,0.542,0.588,0.6242,0.6477,0.6715,0.6913,0.7078,0.7095,0.7095,0.7095,0.7095,0.7095,0.7095,0.7095,0.7095,0.7095,0.7095,0.7095,0.7095,0.7095,0.7095,0.7095,0.7095,0.7095,0.7095,0.7095,0.7095,0.7095,0.7095,0.7095,0.7095,0.7095,0.7095,0.7095,0.7095,0.7095,0.7095,0.7095,0.7095,0.7095,0.7095,0.7095,0.7095,0.7095,0.7095,0.7095,0.7095,0.7095,0.7095,0.7095,0.7095,0.7071,0.6953,0.7004,0.7068,0.695,0.7007,0.7095,0.7095,0.7095,0.7139,0.7272,0.7975,0.8888,0.9828,1.0516,1.1241,1.2028,1.2,1.188,1.188,1.188,1.1908,1.1826,1.1627,1.1477,1.1429,1.1256,1.1111,1.1111,1.1075,1.1033,1.0997,1.0539,1.0292,1.0292,1.0256,1.0214,1.0178,1.0178,1.0178,1.0178,1.0178,1.0178,1.0178,1.0214,1.0238,0.4692,0.4738,0.4762,0.4648,0.4758,0.4908,0.483,0.4813,0.4813,0.4813,0.4813,0.486,0.4975,0.5101,0.5332,0.59,0.63,0.6549,0.6698,0.6841,0.694,0.7078,0.7095,0.7095,0.7095,0.7095,0.7095,0.7095,0.7095,0.7095,0.7095,0.7095,0.7095,0.7095,0.7095,0.7095,0.7095,0.7095,0.7095,0.7095,0.7095,0.7095,0.7095,0.7095,0.7095,0.7095,0.7095,0.7095,0.7095,0.7095,0.7095,0.7095,0.7095,0.7095,0.7095,0.7095,0.7095,0.7095,0.7095,0.7095,0.7095,0.7095,0.7095,0.7095,0.7095,0.7095,0.7065,0.6927,0.6933,0.6967,0.6903,0.6933,0.7001,0.7078,0.7492,0.8017,0.8488,0.9238,1.0065,1.0995,1.1467,1.181,1.223,1.233,1.2343,1.2343,1.2343,1.2294,1.2149,1.2029,1.1902,1.1718,1.1624,1.1453,1.1315,1.1341,1.1236,1.1123,1.0888,1.0653,1.0515,1.0509,1.0436,1.0298,1.0292,1.0292,1.0292,1.0292,1.0292,1.0298,1.0442,1.0509,0.4815,0.4797,0.4793,0.473,0.486,0.4985,0.4945,0.4938,0.4948,0.5016,0.505,0.5111,0.5187,0.542,0.5771,0.6269,0.6559,0.6797,0.6869,0.6913,0.6974,0.7085,0.7095,0.7095,0.7095,0.7095,0.7095,0.7095,0.7095,0.7095,0.7095,0.7316,0.7316,0.7095,0.7316,0.7316,0.7095,0.7095,0.7095,0.7095,0.7095,0.7095,0.7095,0.7095,0.7095,0.7095,0.7095,0.7095,0.7095,0.7095,0.7095,0.7095,0.7095,0.7095,0.7095,0.7095,0.7095,0.7095,0.7095,0.7095,0.7095,0.7095,0.7095,0.7095,0.7095,0.7095,0.7065,0.6927,0.6886,0.6886,0.6886,0.691,0.6964,0.7068,0.7665,0.8408,0.9362,0.9976,1.0673,1.1855,1.2069,1.2153,1.2361,1.2572,1.2705,1.2705,1.2705,1.2632,1.2433,1.2355,1.2234,1.2035,1.1956,1.1802,1.1597,1.1531,1.1405,1.1226,1.1148,1.1021,1.0785,1.0773,1.0719,1.0478,1.0478,1.0478,1.0478,1.0478,1.0478,1.0485,1.0719,1.0773,0.5172,0.5129,0.501,0.4754,0.4707,0.4792,0.5022,0.5083,0.5123,0.5334,0.5477,0.5545,0.5555,0.5945,0.6293,0.6467,0.6712,0.6873,0.6883,0.6997,0.7085,0.7095,0.7095,0.7095,0.7095,0.7095,0.7095,0.7095,0.7095,0.7095,0.7095,0.7929,0.8017,0.7139,0.7929,0.7973,0.7095,0.7095,0.7095,0.7095,0.7095,0.7095,0.7095,0.7095,0.7095,0.7095,0.7095,0.7095,0.7095,0.7095,0.7095,0.7095,0.7095,0.7095,0.7095,0.7095,0.7095,0.7095,0.7095,0.7095,0.7095,0.7095,0.7095,0.7095,0.7095,0.7095,0.7065,0.6927,0.6886,0.6886,0.6886,0.698,0.7085,0.7095,0.7139,0.7445,0.8412,0.8619,0.9218,1.1037,1.1386,1.1643,1.2504,1.2693,1.2705,1.2705,1.2705,1.2699,1.2681,1.2463,1.2306,1.2288,1.2071,1.1874,1.1856,1.1633,1.1483,1.1465,1.1256,1.1099,1.1087,1.1081,1.1075,1.1057,1.1057,1.1057,1.1057,1.1057,1.1057,1.1057,1.1075,1.1081,0.5229,0.51,0.4963,0.4853,0.4833,0.4887,0.5052,0.5245,0.5457,0.5603,0.5681,0.5749,0.5844,0.6152,0.648,0.659,0.6793,0.6916,0.7004,0.7061,0.7095,0.7095,0.7095,0.7095,0.7095,0.7095,0.736,0.7929,0.7973,0.8233,0.8794,0.9187,0.893,0.8017,0.8324,0.8061,0.7095,0.7095,0.7095,0.7095,0.7095,0.7095,0.7095,0.7095,0.7095,0.7095,0.7095,0.7095,0.7095,0.7095,0.7095,0.7095,0.7095,0.7095,0.7095,0.7095,0.7095,0.7095,0.7095,0.7095,0.7095,0.7095,0.7095,0.7095,0.7095,0.7095,0.7085,0.7031,0.7018,0.6997,0.691,0.6927,0.6964,0.6964,0.7937,0.8896,0.9172,1.0229,1.1316,1.2015,1.2186,1.2272,1.2619,1.2705,1.2705,1.2705,1.2705,1.2705,1.2705,1.2614,1.256,1.256,1.2324,1.2168,1.2168,1.1886,1.1663,1.1501,1.1268,1.1111,1.1111,1.1111,1.1111,1.1111,1.1111,1.1111,1.1111,1.1111,1.1111,1.1111,1.1111,1.1111,0.5241,0.5075,0.4952,0.4863,0.4952,0.5098,0.5243,0.5437,0.5644,0.5833,0.5911,0.5979,0.6084,0.6305,0.6562,0.6675,0.6827,0.6933,0.7078,0.7095,0.7095,0.7095,0.7095,0.7095,0.7095,0.736,0.7797,0.8456,0.8759,0.9231,0.9879,1.0183,0.9927,0.8973,0.9235,0.893,0.8013,0.7965,0.7965,0.7965,0.7965,0.7661,0.7095,0.7095,0.7095,0.7095,0.7095,0.7095,0.7095,0.7095,0.7095,0.7095,0.7095,0.7095,0.7095,0.7095,0.7095,0.7095,0.7095,0.7095,0.7095,0.7095,0.7095,0.7095,0.7095,0.7095,0.7095,0.7095,0.7095,0.7071,0.6977,0.6953,0.6953,0.6953,0.7978,0.9035,0.9269,1.0592,1.1832,1.2169,1.2491,1.2705,1.2705,1.2705,1.2705,1.2705,1.2705,1.2705,1.2705,1.2705,1.2705,1.2705,1.2542,1.2439,1.2439,1.2198,1.1968,1.1748,1.1405,1.1208,1.1111,1.1111,1.1111,1.1111,1.1111,1.1111,1.1111,1.1111,1.1111,1.1111,1.1111,1.1111,0.5245,0.5151,0.5024,0.476,0.5061,0.5436,0.5555,0.5593,0.5677,0.5936,0.6156,0.63,0.63,0.6416,0.6562,0.6675,0.6827,0.6933,0.7078,0.7095,0.7095,0.7095,0.7095,0.7095,0.7095,0.7973,0.85,0.8544,0.9405,0.9923,0.9923,1.0799,1.0885,0.9923,1.0842,1.0842,0.9923,0.9879,0.9879,0.9879,0.9879,0.8921,0.7139,0.7139,0.7139,0.7139,0.7139,0.7139,0.7139,0.7095,0.7095,0.7095,0.7095,0.7095,0.7095,0.7095,0.7095,0.7095,0.7095,0.7095,0.7095,0.7095,0.7095,0.7095,0.7095,0.7095,0.7095,0.7095,0.7095,0.7095,0.7095,0.7095,0.7095,0.7092,0.6987,0.7225,0.8281,0.9124,1.0025,1.1101,1.2052,1.2699,1.2699,1.2699,1.2705,1.2705,1.2705,1.2705,1.2705,1.2705,1.2705,1.2705,1.2705,1.2705,1.2705,1.2469,1.2318,1.2312,1.1784,1.1375,1.1129,1.1111,1.1111,1.1111,1.1111,1.1111,1.1111,1.1111,1.1111,1.1111,1.1111,1.1111,0.5359,0.5209,0.5073,0.5013,0.5264,0.5559,0.5705,0.5739,0.5823,0.6129,0.6269,0.63,0.63,0.6416,0.6562,0.6675,0.6827,0.6933,0.7078,0.7095,0.7095,0.7095,0.7095,0.736,0.8017,0.8324,0.9065,1.0366,1.0712,1.1187,1.1832,1.2137,1.1837,1.0928,1.1149,1.0842,0.9923,0.9879,0.9879,0.9879,0.9879,0.9618,0.9052,0.9052,0.9052,0.9052,0.9052,0.9052,0.9008,0.8364,0.7709,0.7095,0.7095,0.7095,0.7095,0.7095,0.7533,0.7973,0.7316,0.7536,0.7973,0.7316,0.7095,0.7095,0.7095,0.7095,0.7095,0.7095,0.7095,0.7095,0.7095,0.7095,0.7045,0.6878,0.7381,0.7927,0.8065,0.9305,1.0495,1.0816,1.1715,1.2433,1.2433,1.2584,1.2705,1.2705,1.2705,1.2705,1.2705,1.2705,1.2705,1.2705,1.2705,1.2705,1.2705,1.2632,1.2506,1.2324,1.2168,1.1878,1.1387,1.122,1.1111,1.1111,1.1111,1.1111,1.1111,1.1111,1.1111,1.1111,1.1111,1.1111,0.5185,0.5111,0.5054,0.5169,0.541,0.5644,0.5844,0.5939,0.6074,0.6262,0.63,0.63,0.63,0.6371,0.6477,0.6586,0.7065,0.7431,0.7548,0.7625,0.7665,0.7665,0.7665,0.7885,0.8456,0.9196,1.0062,1.1192,1.154,1.1951,1.2506,1.2451,1.2188,1.1697,1.1697,1.1481,1.1009,1.1004,1.1052,1.1182,1.1052,1.1052,1.1139,1.0269,0.9879,0.9879,0.9879,0.9879,0.9836,0.9274,0.8711,0.8185,0.7797,0.7665,0.7621,0.7228,0.7709,0.84,0.7723,0.7918,0.8292,0.7623,0.7221,0.6923,0.6923,0.6923,0.6937,0.6997,0.7011,0.7024,0.7082,0.7055,0.6967,0.6834,0.7228,0.7693,0.7854,0.9042,1.0178,1.0549,1.1548,1.2282,1.2174,1.2373,1.2548,1.2548,1.2638,1.2705,1.2705,1.2705,1.2705,1.2705,1.2705,1.2705,1.2705,1.2705,1.2638,1.2481,1.2373,1.2168,1.1814,1.1576,1.1431,1.1431,1.1431,1.1431,1.1431,1.1431,1.1431,1.1431,1.1431,1.1431,0.4891,0.4935,0.4992,0.5337,0.5542,0.5705,0.5986,0.6159,0.63,0.63,0.63,0.63,0.63,0.631,0.6361,0.6491,0.74,0.8139,0.8265,0.8359,0.8476,0.8476,0.8492,0.8544,0.8632,1.0221,1.1295,1.1381,1.192,1.2276,1.2276,1.2053,1.2029,1.227,1.2317,1.2432,1.2632,1.2675,1.282,1.3099,1.2838,1.2838,1.3014,1.1042,1.0139,1.0139,1.0139,1.0096,1.0009,1.0009,0.9956,0.9764,0.8904,0.8603,0.8472,0.7559,0.7819,0.8669,0.8251,0.8221,0.8345,0.8019,0.7357,0.6702,0.6702,0.6702,0.6729,0.6825,0.6866,0.6896,0.7021,0.696,0.6862,0.6849,0.678,0.6881,0.7677,0.8511,0.935,1.0258,1.1415,1.2204,1.1922,1.2161,1.2337,1.2318,1.2493,1.2644,1.2662,1.2668,1.2681,1.2699,1.2705,1.2705,1.2705,1.2705,1.2705,1.2705,1.2481,1.2349,1.2349,1.2077,1.188,1.188,1.188,1.188,1.188,1.188,1.188,1.188,1.188,1.188,0.5166,0.5106,0.502,0.5437,0.5739,0.5983,0.6169,0.6276,0.63,0.63,0.63,0.63,0.63,0.6392,0.6477,0.6508,0.7326,0.7938,0.7978,0.8096,0.8166,0.8166,0.8372,0.8803,0.9536,1.0426,1.1304,1.2016,1.2033,1.2005,1.2005,1.2071,1.2104,1.2005,1.2286,1.2398,1.2292,1.2454,1.2688,1.3032,1.2943,1.2984,1.2997,1.239,1.2095,1.2095,1.2095,1.1666,1.1015,1.1015,1.0434,0.9554,0.9347,0.9304,0.9177,0.8247,0.893,1.0157,0.8632,0.8514,0.895,0.8139,0.7357,0.6702,0.6702,0.6702,0.6709,0.6742,0.6749,0.6756,0.6787,0.6773,0.6719,0.66,0.6546,0.6729,0.743,0.8219,0.9048,0.9865,1.1083,1.1986,1.1892,1.2312,1.2548,1.2343,1.2186,1.2161,1.2373,1.2397,1.2475,1.2681,1.2705,1.2705,1.2705,1.2705,1.2705,1.2705,1.265,1.262,1.262,1.2168,1.188,1.188,1.188,1.188,1.188,1.188,1.188,1.188,1.188,1.188,0.5086,0.5161,0.5227,0.5614,0.5918,0.6162,0.6282,0.63,0.63,0.63,0.63,0.63,0.63,0.6361,0.6412,0.6412,0.7569,0.8483,0.8483,0.8932,0.9262,0.9262,0.9354,0.9672,1.0129,1.0911,1.163,1.2207,1.2003,1.189,1.2008,1.1956,1.1983,1.2008,1.2205,1.2307,1.232,1.2439,1.2635,1.2949,1.2822,1.27,1.2625,1.2517,1.2413,1.233,1.233,1.2034,1.1589,1.175,1.1416,1.0794,1.0339,1.0171,1.0031,0.8974,0.9474,1.0532,0.9442,0.9373,0.9622,0.8617,0.7756,0.7006,0.6608,0.6488,0.6505,0.6573,0.6644,0.6719,0.679,0.6756,0.6698,0.6692,0.6634,0.6781,0.7446,0.7985,0.8677,0.9933,1.0867,1.1537,1.1824,1.2252,1.2427,1.2168,1.2222,1.23,1.2312,1.2421,1.2554,1.2693,1.2705,1.2705,1.2705,1.2705,1.2705,1.2705,1.2705,1.2705,1.2705,1.2439,1.2294,1.2294,1.2294,1.2294,1.2294,1.2294,1.2294,1.2294,1.2294,1.2294,0.4878,0.5132,0.5473,0.5733,0.6071,0.63,0.63,0.63,0.63,0.63,0.63,0.63,0.63,0.63,0.6338,0.649,0.7914,0.9071,0.9228,0.992,1.0421,1.0461,1.0498,1.0519,1.056,1.1347,1.1933,1.2132,1.1917,1.1839,1.2037,1.184,1.1858,1.2024,1.2107,1.2222,1.2412,1.2452,1.2602,1.289,1.2647,1.2449,1.2251,1.2201,1.2074,1.188,1.188,1.195,1.2005,1.2228,1.2312,1.223,1.1436,1.1117,1.0938,0.9828,0.9928,1.0605,1.029,1.0188,1.0097,0.9176,0.8356,0.7561,0.676,0.649,0.6514,0.6482,0.6546,0.6692,0.6817,0.6776,0.6725,0.6827,0.6793,0.6902,0.7584,0.7821,0.8414,1.0156,1.0846,1.1344,1.1921,1.2198,1.224,1.1982,1.2318,1.2506,1.2337,1.2499,1.2656,1.2699,1.2705,1.2705,1.2705,1.2705,1.2705,1.2705,1.2705,1.2687,1.2638,1.2681,1.2681,1.2638,1.2681,1.2705,1.2705,1.2705,1.2705,1.2705,1.2705,1.2705,0.479,0.5136,0.5543,0.5757,0.6071,0.63,0.63,0.63,0.63,0.63,0.63,0.63,0.63,0.63,0.6528,0.7215,0.8153,0.9009,0.9699,1.0004,1.022,1.0377,1.0476,1.056,1.0761,1.1382,1.1815,1.1854,1.1784,1.1726,1.1764,1.1874,1.1911,1.1764,1.2098,1.2199,1.2083,1.2232,1.2477,1.2806,1.2767,1.2659,1.2434,1.2168,1.1973,1.188,1.188,1.2012,1.2264,1.23,1.2312,1.2271,1.2147,1.1969,1.1676,1.0947,1.0954,1.1288,1.0658,1.022,0.9922,0.9776,0.9198,0.8399,0.7599,0.733,0.7184,0.6514,0.6433,0.6549,0.6569,0.6617,0.6671,0.6559,0.6719,0.7066,0.7724,0.7869,0.8414,1.0156,1.1379,1.2206,1.2524,1.2439,1.23,1.227,1.2125,1.2095,1.2288,1.2343,1.2451,1.2681,1.2705,1.2705,1.2705,1.2705,1.2705,1.2705,1.2705,1.2602,1.2373,1.2584,1.2596,1.2367,1.2584,1.2705,1.2705,1.2705,1.2705,1.2705,1.2705,1.2705,0.5397,0.5743,0.5959,0.5831,0.5966,0.6156,0.6279,0.63,0.63,0.63,0.6374,0.6451,0.6338,0.63,0.6567,0.7369,0.8169,0.9008,0.9954,1.0491,1.0895,1.1085,1.1147,1.1218,1.1295,1.1587,1.179,1.1897,1.1895,1.1929,1.204,1.2114,1.212,1.204,1.2224,1.2261,1.215,1.2261,1.2365,1.2536,1.2536,1.2423,1.2205,1.2068,1.1846,1.1627,1.1793,1.1848,1.1902,1.2192,1.2312,1.2312,1.2312,1.224,1.2056,1.1613,1.1495,1.1468,1.1178,1.086,1.0513,1.0067,0.9652,0.9236,0.8437,0.7863,0.7427,0.7172,0.6842,0.662,0.6705,0.6776,0.6831,0.6844,0.6888,0.7015,0.7368,0.7457,0.8006,0.9817,1.1427,1.2566,1.2687,1.2608,1.2481,1.2337,1.2337,1.2349,1.2318,1.2439,1.2578,1.2693,1.2705,1.2705,1.2705,1.2705,1.2705,1.2705,1.2705,1.265,1.2536,1.2644,1.2578,1.2318,1.2572,1.2705,1.2705,1.2705,1.2705,1.2705,1.2705,1.2705,0.6049,0.6328,0.6423,0.6049,0.6107,0.6279,0.6287,0.6307,0.6338,0.6412,0.6525,0.6563,0.649,0.6602,0.7022,0.7748,0.858,0.949,1.0363,1.1074,1.1558,1.1744,1.1744,1.1706,1.1781,1.1781,1.1855,1.2003,1.204,1.215,1.2298,1.2305,1.2305,1.2305,1.2305,1.2305,1.2305,1.2305,1.2305,1.2305,1.2305,1.2231,1.2077,1.2077,1.1937,1.1684,1.1744,1.1764,1.1706,1.2125,1.2355,1.2409,1.2409,1.2373,1.2294,1.2168,1.1832,1.1501,1.1567,1.1363,1.0999,1.04,1.0218,1.0067,0.9236,0.8589,0.8094,0.8081,0.7546,0.7065,0.7225,0.7125,0.6957,0.7024,0.6991,0.6967,0.7071,0.7489,0.8229,0.9618,1.144,1.2705,1.2705,1.2705,1.2638,1.2445,1.2578,1.2632,1.2439,1.2584,1.2705,1.2705,1.2705,1.2705,1.2705,1.2705,1.2705,1.2705,1.2705,1.2674,1.2608,1.2668,1.2578,1.2318,1.2506,1.2608,1.2608,1.2674,1.2705,1.2705,1.2705,1.2705,0.6409,0.6682,0.6719,0.6423,0.6713,0.6908,0.6403,0.6304,0.6412,0.6791,0.6714,0.6637,0.6826,0.751,0.8199,0.8808,0.9744,1.0602,1.1254,1.1558,1.1744,1.1966,1.1818,1.1781,1.1966,1.1966,1.2003,1.2003,1.2187,1.2298,1.2305,1.2305,1.2305,1.2305,1.2305,1.2305,1.2305,1.2305,1.2305,1.2305,1.2305,1.2298,1.2268,1.2268,1.2353,1.2408,1.1991,1.1947,1.216,1.228,1.2457,1.2687,1.2687,1.253,1.2343,1.2578,1.2186,1.1531,1.1778,1.1558,1.1074,1.1037,1.1037,1.0887,1.0067,0.9803,0.9661,0.9184,0.8434,0.7883,0.8139,0.7667,0.7055,0.6927,0.6994,0.7088,0.7095,0.8488,0.9792,0.9879,1.144,1.2705,1.2705,1.2705,1.2699,1.2687,1.2693,1.2699,1.2687,1.2693,1.2705,1.2705,1.2705,1.2705,1.2705,1.2705,1.2705,1.2705,1.2705,1.2596,1.2343,1.2572,1.2578,1.2318,1.2324,1.233,1.233,1.2584,1.2705,1.2705,1.2705,1.2705,0.6624,0.7036,0.7409,0.7063,0.7015,0.7028,0.7001,0.6854,0.6685,0.6696,0.6874,0.7176,0.7736,0.8003,0.8347,0.9069,0.9933,1.0789,1.1663,1.1855,1.1966,1.215,1.212,1.2114,1.2194,1.2194,1.2194,1.2194,1.2261,1.2305,1.2305,1.2305,1.2305,1.2305,1.2305,1.2305,1.2305,1.2305,1.2305,1.2305,1.2305,1.2305,1.2311,1.2536,1.2645,1.2702,1.2725,1.2656,1.2512,1.2482,1.2553,1.2705,1.2705,1.2644,1.2578,1.2668,1.2312,1.1754,1.185,1.1564,1.1111,1.1111,1.1111,1.1037,1.0775,1.0437,1.0113,1.002,0.9555,0.8977,0.8527,0.8661,0.8734,0.8075,0.7497,0.7272,0.7885,0.9013,1.0096,1.0664,1.1837,1.2705,1.2705,1.2705,1.2765,1.2946,1.2819,1.2771,1.2952,1.2819,1.2705,1.2705,1.2705,1.2705,1.2705,1.2705,1.2705,1.2705,1.2705,1.2662,1.2566,1.2656,1.2578,1.2318,1.2481,1.2566,1.2566,1.2487,1.2542,1.2705,1.2705,1.2705,0.7092,0.755,0.8037,0.7742,0.7546,0.745,0.745,0.7173,0.6945,0.7175,0.7347,0.7787,0.8746,0.9026,0.9258,0.9712,1.0533,1.1316,1.1929,1.2077,1.215,1.2268,1.2305,1.2305,1.2305,1.2305,1.2305,1.2305,1.2305,1.2305,1.2305,1.2305,1.2305,1.2305,1.2305,1.2305,1.2305,1.2305,1.2305,1.2305,1.2305,1.2305,1.2311,1.265,1.2844,1.2965,1.316,1.314,1.2909,1.2783,1.28,1.2833,1.2747,1.2705,1.2705,1.2705,1.2427,1.2041,1.191,1.1624,1.1238,1.1141,1.1111,1.1129,1.1226,1.0994,1.0768,1.1047,1.0636,1.0015,0.9534,0.9666,0.9662,0.8715,0.8277,0.8229,0.8842,0.9449,1.0183,1.1106,1.2057,1.2705,1.2705,1.2705,1.2771,1.2958,1.2825,1.2771,1.2958,1.2819,1.2705,1.2705,1.2705,1.2705,1.2705,1.2705,1.2705,1.2705,1.2705,1.2705,1.2705,1.2705,1.262,1.2445,1.253,1.2614,1.2705,1.253,1.2536,1.2705,1.2705,1.2705,0.0,0.0,0.0,0.842,0.8357,0.8179,0.765,0.7231,0.7199,0.8201,0.8249,0.8457,0.9686,1.0571,1.1025,1.0887,1.1669,1.2224,1.204,1.2187,1.2305,1.2305,1.2305,1.2305,1.2305,1.2305,1.2305,1.2305,1.2305,1.2305,1.2305,1.2305,1.2305,1.2305,1.2305,1.2305,1.2305,1.2305,1.2305,1.2305,1.2305,1.2305,1.2325,1.2663,1.2965,1.3227,1.3233,1.3273,1.3305,1.3151,1.3088,1.3052,1.279,1.2705,1.2705,1.2705,1.2536,1.2276,1.1982,1.1724,1.1459,1.1226,1.1135,1.1184,1.1423,1.1507,1.1621,1.2168,1.1649,1.0994,1.1268,1.0621,0.9662,0.8803,0.9279,0.9923,0.9923,0.9923,1.0226,1.1149,1.21,1.2705,1.2705,1.2705,1.2705,1.2711,1.2717,1.2717,1.2717,1.2717,1.2711,1.2705,1.2705,1.2705,1.2705,1.2705,1.2705,1.2705,1.2705,1.2705,1.2705,1.2705,1.2705,1.2705,1.2451,1.2451,1.2705,1.2687,1.2687,1.2693,1.2693,1.2699,0.7879,0.0,0.0,0.0,0.0,0.0,0.8635,0.8043,0.7725,0.8538,0.8361,0.8583,1.0197,1.0646,1.104,1.1786,1.2114,1.2268,1.2231,1.2261,1.2305,1.2305,1.2305,1.2305,1.2305,1.2305,1.2305,1.2305,1.2305,1.2305,1.2305,1.2305,1.2305,1.2305,1.2305,1.2305,1.2305,1.2305,1.2305,1.2305,1.2305,1.2412,1.267,1.2939,1.3247,1.3493,1.3748,1.3846,1.3829,1.3275,1.3046,1.3052,1.279,1.2705,1.2705,1.2705,1.2536,1.23,1.2234,1.1994,1.176,1.1682,1.1697,1.167,1.1787,1.1904,1.2125,1.227,1.2236,1.2227,1.2297,1.1095,1.0009,1.0409,1.0188,1.0096,1.0755,1.0928,1.1187,1.2143,1.2528,1.2705,1.2705,1.2705,1.2771,1.2976,1.3006,1.3006,1.3006,1.3006,1.2928,1.2729,1.2705,1.2705,1.2705,1.2705,1.2705,1.2705,1.2705,1.2705,1.2705,1.2705,1.2705,1.2705,1.2632,1.2632,1.2705,1.2324,1.2234,1.2421,1.2421,1.2524,0.815,0.8518,0.8958,0.8958,0.0,0.0,0.8872,0.8394,0.8127,0.894,0.888,0.9167,1.0703,1.0974,1.1208,1.1839,1.2037,1.2164,1.2285,1.2305,1.2305,1.2305,1.2305,1.2305,1.2305,1.2305,1.2305,1.2305,1.2305,1.2305,1.2305,1.2305,1.2305,1.2305,1.2305,1.2305,1.2305,1.2305,1.2305,1.2305,1.2305,1.2392,1.2616,1.3013,1.3307,1.3447,1.3901,1.4088,1.4075,1.3519,1.3336,1.3313,1.3009,1.2881,1.2833,1.2747,1.2608,1.2457,1.2355,1.221,1.2071,1.1956,1.188,1.1904,1.2012,1.2192,1.2337,1.2445,1.2584,1.2705,1.2705,1.1875,1.1095,1.1278,1.1187,1.1095,1.1278,1.1628,1.2057,1.2577,1.2705,1.2705,1.2705,1.2705,1.2759,1.2922,1.2952,1.2952,1.2952,1.2952,1.2886,1.2723,1.2705,1.2705,1.2705,1.2705,1.2705,1.2705,1.2705,1.2705,1.2705,1.2705,1.2705,1.2705,1.2705,1.265,1.2542,1.2343,1.227,1.2312,1.2312,1.2397,0.861,0.8898,0.9257,0.9257,0.9257,0.0,0.8789,0.8475,0.8516,0.9375,0.9522,0.9861,1.1121,1.1342,1.1355,1.1389,1.165,1.1924,1.2211,1.2278,1.2305,1.2305,1.2305,1.2305,1.2305,1.2305,1.2305,1.2305,1.2305,1.2305,1.2305,1.2305,1.2305,1.2305,1.2305,1.2305,1.2305,1.2305,1.2305,1.2305,1.2305,1.2318,1.2371,1.2946,1.3227,1.3293,1.3848,1.4088,1.4088,1.3822,1.3737,1.3652,1.327,1.31,1.3094,1.2833,1.2747,1.2717,1.2481,1.2361,1.2318,1.2083,1.2011,1.2012,1.2288,1.2355,1.2403,1.2638,1.2705,1.2705,1.2705,1.2705,1.2491,1.1671,1.21,1.2491,1.1623,1.21,1.2705,1.2705,1.2705,1.2705,1.2705,1.2705,1.2705,1.2705,1.2729,1.2741,1.2705,1.2729,1.2741,1.2705,1.2705,1.2705,1.2705,1.2705,1.2705,1.2705,1.2705,1.2705,1.2705,1.2705,1.2705,1.2705,1.2705,1.259,1.2355,1.256,1.2542,1.2312,1.2312,1.233,0.9379,0.9512,0.9599,0.9599,0.9599,0.0,0.9492,0.9077,0.8919,0.981,0.9584,0.9643,1.0849,1.1076,1.1156,1.1349,1.1435,1.1617,1.1946,1.2151,1.2305,1.2305,1.2305,1.2305,1.2305,1.2305,1.2305,1.2305,1.2305,1.2305,1.2305,1.2305,1.2305,1.2305,1.2305,1.2305,1.2305,1.2305,1.2305,1.2305,1.2305,1.2425,1.271,1.3039,1.334,1.354,1.3935,1.4088,1.4088,1.4039,1.3913,1.3652,1.327,1.3185,1.3313,1.3094,1.3009,1.3003,1.2947,1.2802,1.262,1.2566,1.2548,1.256,1.2614,1.2626,1.2638,1.2693,1.2705,1.2705,1.2705,1.2705,1.2662,1.2491,1.2577,1.2662,1.2491,1.2577,1.2705,1.2705,1.2705,1.2705,1.2705,1.2705,1.2705,1.2705,1.2898,1.2958,1.2735,1.2904,1.2958,1.2729,1.2705,1.2705,1.2705,1.2705,1.2705,1.2705,1.2705,1.2705,1.2705,1.2705,1.2705,1.2705,1.2705,1.2681,1.2626,1.2469,1.2361,1.2312,1.2312,1.2427,0.9726,0.9786,0.9866,0.9719,0.9793,0.0,0.0,0.9345,0.9204,0.9937,0.9617,0.9484,1.0394,1.0555,1.0608,1.0716,1.0982,1.1209,1.1249,1.1752,1.2084,1.2084,1.2218,1.2305,1.2305,1.2305,1.2305,1.2305,1.2305,1.2305,1.2305,1.2305,1.2305,1.2305,1.2305,1.2305,1.2305,1.2305,1.2305,1.2305,1.2305,1.2378,1.2576,1.2999,1.3287,1.3413,1.3895,1.4088,1.4088,1.4088,1.3997,1.387,1.3525,1.3483,1.3525,1.3313,1.3179,1.3094,1.3094,1.2918,1.2705,1.2705,1.2705,1.2705,1.2705,1.2705,1.2705,1.2705,1.2705,1.2705,1.2705,1.2705,1.2705,1.2705,1.2705,1.2705,1.2705,1.2705,1.2705,1.2705,1.2705,1.2705,1.2705,1.2705,1.2705,1.2705,1.2825,1.2862,1.2723,1.2825,1.2862,1.2717,1.2705,1.2705,1.2705,1.2705,1.2705,1.2705,1.2705,1.2705,1.2705,1.2705,1.2705,1.2705,1.2705,1.2705,1.2705,1.2572,1.2439,1.2312,1.2312,1.2385,1.0147,1.0194,1.0301,1.0007,1.0114,1.0194,0.0,0.0,0.0,0.999,0.971,0.9544,1.01,1.0154,1.0083,1.0083,1.0514,1.0722,1.0466,1.1182,1.1739,1.1739,1.1957,1.2131,1.2131,1.2084,1.2098,1.2211,1.2164,1.2184,1.2291,1.2305,1.2305,1.2305,1.2305,1.2305,1.2305,1.2305,1.2305,1.2305,1.2305,1.2305,1.2325,1.2933,1.3213,1.324,1.3834,1.4088,1.4088,1.4088,1.4088,1.4088,1.3779,1.3737,1.3737,1.3525,1.3307,1.3137,1.3137,1.2966,1.2705,1.2705,1.2705,1.2705,1.2705,1.2705,1.2705,1.2705,1.2705,1.2705,1.2705,1.2705,1.2705,1.2705,1.2705,1.2705,1.2705,1.2705,1.2705,1.2705,1.2705,1.2705,1.2705,1.2705,1.2705,1.2705,1.2705,1.2705,1.2705,1.2705,1.2705,1.2705,1.2705,1.2705,1.2705,1.2705,1.2705,1.2705,1.2705,1.2705,1.2705,1.2705,1.2705,1.2705,1.2705,1.2705,1.2705,1.2705,1.2596,1.2391,1.2391,1.2391,1.1243,1.1216,1.1176,1.0915,1.0868,1.0748,1.0194,0.0,1.0003,1.01,0.0,1.012,1.0479,0.0,0.0,1.0083,1.0174,1.0114,0.9826,1.0541,1.1089,1.1089,1.1349,1.1489,1.1489,1.1296,1.1356,1.1913,1.1677,1.1757,1.2271,1.2305,1.2305,1.2305,1.2305,1.2305,1.2305,1.2305,1.2305,1.2305,1.2305,1.2305,1.2325,1.2933,1.3213,1.324,1.3834,1.4088,1.4088,1.4088,1.4088,1.4088,1.3779,1.3864,1.3997,1.3737,1.3519,1.3355,1.3355,1.3088,1.2705,1.2705,1.2705,1.2705,1.2705,1.2705,1.2705,1.2705,1.2705,1.2705,1.2705,1.2705,1.2705,1.2705,1.2705,1.2705,1.2705,1.2705,1.2705,1.2705,1.2705,1.2705,1.2705,1.2705,1.2705,1.2705,1.2705,1.2705,1.2705,1.2705,1.2705,1.2705,1.2705,1.2705,1.2705,1.2705,1.2705,1.2705,1.2705,1.2705,1.2705,1.2705,1.2705,1.2705,1.2705,1.2705,1.2705,1.2705,1.2687,1.2656,1.2656,1.2656,1.1389,1.1389,1.1322,1.1062,1.0995,1.0882,1.0468,1.0241,1.0167,1.0341,0.0,0.0,0.0,0.0,0.0,0.0,0.9866,0.976,0.9437,0.9893,1.0294,1.0461,1.1009,1.1389,1.1389,1.1162,1.1162,1.1583,1.1496,1.161,1.2024,1.2211,1.2305,1.2305,1.2305,1.2305,1.2305,1.2305,1.2305,1.2305,1.2305,1.2305,1.2325,1.2933,1.3213,1.324,1.3834,1.4088,1.4088,1.4088,1.4088,1.4088,1.3997,1.3997,1.4088,1.3955,1.3779,1.3561,1.3561,1.3307,1.2924,1.2747,1.2705,1.2705,1.2705,1.2705,1.2705,1.2705,1.2705,1.2705,1.2705,1.2705,1.2705,1.2705,1.2705,1.2705,1.2705,1.2705,1.2705,1.2705,1.2705,1.2705,1.2705,1.2705,1.2705,1.2705,1.2705,1.2705,1.2705,1.2705,1.2705,1.2705,1.2705,1.2705,1.2705,1.2705,1.2705,1.2705,1.2705,1.2705,1.2705,1.2705,1.2705,1.2705,1.2705,1.2705,1.2705,1.2705,1.2705,1.2705,1.2705,1.2705,1.1389,1.1483,1.1456,1.1089,1.1056,1.1015,1.0673,1.0454,1.0394,1.0566,1.0318,0.0,0.0,0.0,0.0,0.0,0.0,0.9579,0.9251,0.9492,0.976,0.9973,1.0596,1.1002,1.0922,1.0762,1.0788,1.1162,1.1189,1.139,1.1879,1.2064,1.2218,1.2298,1.2305,1.2305,1.2305,1.2305,1.2305,1.2305,1.2305,1.2305,1.2325,1.2933,1.3213,1.324,1.3834,1.4088,1.4088,1.4088,1.4088,1.4088,1.4088,1.4088,1.4088,1.4088,1.3913,1.3695,1.3695,1.344,1.3052,1.279,1.2705,1.2705,1.2705,1.2705,1.2705,1.2705,1.2705,1.2705,1.2705,1.2705,1.2705,1.2705,1.2705,1.2705,1.2705,1.2705,1.2705,1.2705,1.2705,1.2705,1.2705,1.2705,1.2705,1.2705,1.2705,1.2705,1.2705,1.2705,1.2705,1.2705,1.2705,1.2705,1.2705,1.2705,1.2705,1.2705,1.2705,1.2747,1.279,1.2747,1.2747,1.279,1.2747,1.2705,1.2705,1.2705,1.2705,1.2705,1.2705,1.2705,1.1389,1.1637,1.1752,1.1136,1.1209,1.1263,1.072,1.0801,1.0889,1.0646,1.0801,1.0868,1.0626,1.0301,0.0,0.0,0.0,0.0,0.0,0.9492,0.9715,0.9699,0.9967,1.0047,0.9766,0.9762,0.9997,1.0579,1.062,1.0995,1.1859,1.1913,1.2011,1.2291,1.2305,1.2305,1.2305,1.2305,1.2305,1.2305,1.2305,1.2305,1.2325,1.2933,1.3213,1.324,1.3834,1.4088,1.4088,1.4088,1.4088,1.4088,1.4088,1.4088,1.4088,1.4088,1.3913,1.3695,1.3695,1.344,1.3052,1.279,1.2705,1.2705,1.2705,1.2705,1.2705,1.2705,1.2705,1.2705,1.2705,1.2705,1.2705,1.2705,1.2705,1.2705,1.2705,1.2705,1.2705,1.2705,1.2705,1.2705,1.2705,1.2705,1.2705,1.2705,1.2705,1.2705,1.2705,1.2705,1.2705,1.2705,1.2705,1.2705,1.2705,1.2705,1.2705,1.2705,1.2705,1.2833,1.31,1.2839,1.2833,1.3094,1.2833,1.2705,1.2705,1.2705,1.2705,1.2705,1.2705,1.2705,1.1663,1.1931,1.2064,1.1705,1.1496,1.1323,1.0935,1.0922,1.0909,1.0653,1.0821,1.0935,1.0646,1.0314,0.0,0.0,0.0,0.0,0.0,0.9297,0.9364,0.9364,0.9451,0.9624,0.994,0.959,0.9633,1.0221,1.0267,1.0568,1.129,1.1692,1.1946,1.2011,1.2204,1.2305,1.2305,1.2305,1.2305,1.2305,1.2305,1.2305,1.2325,1.2933,1.3213,1.324,1.3834,1.4088,1.4088,1.4088,1.4088,1.4088,1.4088,1.4088,1.4088,1.4088,1.4039,1.3913,1.361,1.3398,1.3222,1.2833,1.2705,1.2705,1.2705,1.2705,1.2705,1.2705,1.2705,1.2705,1.2705,1.2705,1.2705,1.2705,1.2705,1.2705,1.2705,1.2705,1.2705,1.2705,1.2705,1.2705,1.2705,1.2705,1.2705,1.2705,1.2705,1.2705,1.2705,1.2705,1.2705,1.2705,1.2705,1.2705,1.2705,1.2875,1.2966,1.2966,1.3094,1.3179,1.3307,1.3222,1.3222,1.3307,1.3222,1.3094,1.2966,1.2966,1.2881,1.2705,1.2705,1.2705,1.1657,1.1924,1.2078,1.1784,1.165,1.1476,1.1082,1.1069,1.1062,1.0807,1.0894,1.0969,1.0882,1.0541,0.0,0.0,0.0,0.0,0.0,0.9304,0.9371,0.9371,0.9371,0.9546,0.9927,0.9497,0.9457,1.0043,1.002,1.0261,1.0955,1.145,1.1792,1.1899,1.2151,1.2305,1.2305,1.2305,1.2305,1.2305,1.2305,1.2358,1.2478,1.2979,1.3267,1.3353,1.3881,1.4088,1.4088,1.4088,1.4088,1.4088,1.4088,1.4088,1.4088,1.4088,1.4088,1.4046,1.3568,1.3398,1.3307,1.2833,1.2705,1.2705,1.2705,1.2705,1.2705,1.2705,1.2705,1.2705,1.2705,1.2705,1.2705,1.2705,1.2705,1.2705,1.2705,1.2705,1.2705,1.2705,1.2705,1.2705,1.2705,1.2705,1.2705,1.2705,1.2705,1.2705,1.2705,1.2705,1.2705,1.2705,1.2705,1.2747,1.2833,1.3009,1.3137,1.3185,1.3307,1.344,1.3483,1.344,1.344,1.3519,1.344,1.3355,1.3222,1.3137,1.3052,1.2918,1.279,1.2747]}]]